[[{"header":{"parameterUnit":"m.s-1","parameterCategory":1,"la1":31.0,"la2":29.5877,"lo1":-88.7671,"lo2":-86.6584,"dy":0.0162,"dx":0.0185,"nx":115,"ny":88,"refTime":"2026-03-06T00:00:00:Z","depth":0,"parameterNumber":2,"parameterNumberName":"U-component_of_WINDS"},"data":[0.0,0.0,0.0,0.0,0.0,0.0,0.0,0.0,0.0,0.0,0.0,0.0,0.0,0.0,0.0,0.0,0.0,0.0,0.0,0.0,0.0,0.0,0.0,0.0,0.0,0.0,0.0,0.0,0.0,0.0,0.0,0.0,0.0,0.0,0.0,0.0,0.0,0.0,0.0,0.0,0.0,0.0,0.0,0.0,0.0,0.0,0.0,0.0,0.0,0.0,0.0,0.0,0.0,0.0,0.0,0.0,0.0,0.0,0.0,0.0,0.0,0.0,0.0,0.0,0.0,0.0,0.0,0.0,0.0,0.0,0.0,0.0,0.0,0.0,0.0,0.0,0.0,0.0,0.0,0.0,0.0,0.0,0.0,0.0,0.0,0.0,0.0,0.0,0.0,0.0,0.0,0.0,0.0,0.0,0.0,0.0,0.0,0.0,0.0,0.0,0.0,0.0,0.0,0.0,0.0,0.0,0.0,0.0,0.0,0.0,0.0,0.0,0.0,0.0,0.0,0.0,0.0,0.0,0.0,0.0,0.0,0.0,0.0,0.0,0.0,0.0,0.0,0.0,0.0,0.0,0.0,0.0,0.0,0.0,0.0,0.0,0.0,0.0,0.0,0.0,0.0,0.0,0.0,0.0,0.0,0.0,0.0,0.0,0.0,0.0,0.0,0.0,0.0,0.0,0.0,0.0,0.0,0.0,0.0,0.0,0.0,0.0,0.0,0.0,0.0,0.0,0.0,0.0,0.0,0.0,0.0,0.0,0.0,0.0,0.0,0.0,0.0,0.0,0.0,0.0,0.0,0.0,0.0,0.0,0.0,0.0,0.0,0.0,0.0,0.0,0.0,0.0,0.0,0.0,0.0,0.0,0.0,0.0,0.0,0.0,0.0,0.0,0.0,0.0,0.0,0.0,0.0,0.0,0.0,0.0,0.0,0.0,0.0,0.0,0.0,0.0,0.0,0.0,0.0,0.0,0.0,0.0,0.0,0.0,0.0,0.0,0.0,0.0,0.0,0.0,0.0,0.0,0.0,0.0,0.0,0.0,0.0,0.0,0.0,0.0,0.0,0.0,0.0,0.0,0.0,0.0,0.0,0.0,0.0,0.0,0.0,0.0,0.0,0.0,0.0,0.0,0.0,0.0,0.0,0.0,0.0,0.0,0.0,0.0,0.0,0.0,0.0,0.0,0.0,0.0,0.0,0.0,0.0,0.0,0.0,0.0,0.0,0.0,0.0,0.0,0.0,0.0,0.0,0.0,0.0,0.0,0.0,0.0,0.0,0.0,0.0,0.0,0.0,0.0,0.0,0.0,0.0,0.0,0.0,0.0,0.0,0.0,0.0,0.0,0.0,0.0,0.0,0.0,0.0,0.0,0.0,0.0,0.0,0.0,0.0,0.0,0.0,0.0,0.0,0.0,0.0,0.0,0.0,0.0,0.0,0.0,0.0,0.0,0.0,0.0,0.0,0.0,0.0,0.0,0.0,0.0,0.0,0.0,0.0,0.0,0.0,0.0,0.0,0.0,0.0,0.0,0.0,0.0,0.0,0.0,0.0,0.0,0.0,0.0,0.0,0.0,0.0,0.0,0.0,0.0,0.0,0.0,0.0,0.0,0.0,0.0,0.0,0.0,0.0,0.0,0.0,0.0,0.0,0.0,0.0,0.0,0.0,0.0,0.0,0.0,0.0,0.0,0.0,0.0,0.0,0.0,0.0,0.0,0.0,0.0,0.0,0.0,0.0,0.0,0.0,0.0,0.0,0.0,0.0,0.0,0.0,0.0,0.0,0.0,0.0,0.0,0.0,0.0,0.0,0.0,0.0,0.0,0.0,0.0,0.0,0.0,0.0,0.0,0.0,0.0,0.0,0.0,0.0,0.0,0.0,0.0,0.0,0.0,0.0,0.0,0.0,0.0,0.0,0.0,0.0,0.0,0.0,0.0,0.0,0.0,0.0,0.0,0.0,0.0,0.0,0.0,0.0,0.0,0.0,0.0,0.0,0.0,0.0,0.0,0.0,0.0,0.0,0.0,0.0,0.0,0.0,0.0,0.0,0.0,0.0,0.0,0.0,0.0,0.0,0.0,0.0,0.0,0.0,0.0,0.0,0.0,0.0,0.0,0.0,0.0,0.0,0.0,0.0,0.0,0.0,0.0,0.0,0.0,0.0,0.0,0.0,0.0,0.0,0.0,0.0,0.0,0.0,0.0,0.0,0.0,0.0,0.0,0.0,0.0,0.0,0.0,0.0,0.0,0.0,0.0,0.0,0.0,0.0,0.0,0.0,0.0,0.0,0.0,0.0,0.0,0.0,0.0,0.0,0.0,0.0,0.0,0.0,0.0,0.0,0.0,0.0,0.0,0.0,0.0,0.0,0.0,0.0,0.0,0.0,0.0,0.0,0.0,0.0,0.0,0.0,0.0,0.0,0.0,0.0,0.0,0.0,0.0,0.0,0.0,0.0,0.0,0.0,0.0,0.0,0.0,0.0,0.0,0.0,0.0,0.0,0.0,0.0,0.0,0.0,0.0,0.0,0.0,0.0,0.0,0.0,0.0,0.0,0.0,0.0,0.0,0.0,0.0,0.0,0.0,0.0,0.0,0.0,0.0,0.0,0.0,0.0,0.0,0.0,0.0,0.0,0.0,0.0,0.0,0.0,0.0,0.0,0.0,0.0,0.0,0.0,0.0,0.0,0.0,0.0,0.0,0.0,0.0,0.0,0.0,0.0,0.0,0.0,0.0,0.0,0.0,0.0,0.0,0.0,0.0,0.0,0.0,0.0,0.0,0.0,0.0,0.0,0.0,0.0,0.0,0.0,0.0,0.0,0.0,0.0,0.0,0.0,0.0,0.0,0.0,0.0,0.0,0.0,0.0,0.0,0.0,0.0,0.0,0.0,0.0,0.0,0.0,0.0,0.0,0.0,0.0,0.0,0.0,0.0,0.0,0.0,0.0,0.0,0.0,0.0,0.0,0.0,0.0,0.0,0.0,0.0,0.0,0.0,0.0,0.0,0.0,0.0,0.0,0.0,0.0,0.0,0.0,0.0,0.0,0.0,0.0,0.0,0.0,0.0,0.0,0.0,0.0,0.0,0.0,0.0,0.0,0.0,0.0,0.0,0.0,0.0,0.0,0.0,0.0,0.0,0.0,0.0,0.0,0.0,0.0,0.0,0.0,0.0,0.0,0.0,0.0,0.0,0.0,0.0,0.0,0.0,0.0,0.0,0.0,0.0,0.0,0.0,0.0,0.0,0.0,0.0,0.0,0.0,0.0,0.0,0.0,0.0,0.0,0.0,0.0,0.0,0.0,0.0,0.0,0.0,0.0,0.0,0.0,0.0,0.0,0.0,0.0,0.0,0.0,0.0,0.0,0.0,0.0,0.0,0.0,0.0,0.0,0.0,0.0,0.0,0.0,0.0,0.0,0.0,0.0,0.0,0.0,0.0,0.0,0.0,0.0,0.0,0.0,0.0,0.0,0.0,0.0,0.0,0.0,0.0,0.0,0.0,0.0,0.0,0.0,0.0,0.0,0.0,0.0,0.0,0.0,0.0,0.0,0.0,0.0,0.0,0.0,0.0,0.0,0.0,0.0,0.0,0.0,0.0,0.0,0.0,0.0,0.0,0.0,0.0,0.0,0.0,0.0,0.0,0.0,0.0,0.0,0.0,0.0,0.0,0.0,0.0,0.0,0.0,0.0,0.0,0.0,0.0,0.0,0.0,0.0,0.0,0.0,0.0,0.0,0.0,0.0,0.0,0.0,0.0,0.0,0.0,0.0,0.0,0.0,0.0,0.0,0.0,0.0,0.0,0.0,0.0,0.0,0.0,0.0,0.0,0.0,0.0,0.0,0.0,0.0,0.0,0.0,0.0,0.0,0.0,0.0,0.0,0.0,0.0,0.0,0.0,0.0,0.0,0.0,0.0,0.0,0.0,0.0,0.0,0.0,0.0,0.0,0.0,0.0,0.0,0.0,0.0,0.0,0.0,0.0,0.0,0.0,0.0,0.0,0.0,0.0,0.0,0.0,0.0,0.0,0.0,0.0,0.0,0.0,0.0,0.0,0.0,0.0,0.0,0.0,0.0,0.0,0.0,0.0,0.0,0.0,0.0,0.0,0.0,0.0,0.0,0.0,0.0,0.0,0.0,0.0,0.0,0.0,0.0,0.0,0.0,0.0,0.0,0.0,0.0,0.0,0.0,0.0,0.0,0.0,0.0,0.0,0.0,0.0,0.0,0.0,0.0,0.0,0.0,0.0,0.0,0.0,0.0,0.0,0.0,0.0,-2.5452,0.0,0.0,0.0,0.0,0.0,0.0,0.0,0.0,0.0,0.0,0.0,0.0,0.0,0.0,0.0,0.0,0.0,0.0,0.0,0.0,0.0,0.0,0.0,0.0,0.0,0.0,0.0,0.0,0.0,0.0,0.0,0.0,0.0,0.0,0.0,0.0,0.0,0.0,0.0,0.0,0.0,0.0,0.0,0.0,0.0,0.0,0.0,0.0,0.0,0.0,0.0,0.0,0.0,0.0,0.0,0.0,0.0,0.0,0.0,0.0,0.0,0.0,0.0,0.0,0.0,0.0,0.0,0.0,0.0,0.0,0.0,0.0,0.0,0.0,0.0,0.0,0.0,0.0,0.0,0.0,0.0,0.0,0.0,0.0,0.0,0.0,0.0,0.0,0.0,0.0,0.0,0.0,0.0,0.0,0.0,0.0,0.0,0.0,0.0,0.0,0.0,0.0,0.0,0.0,0.0,0.0,0.0,0.0,0.0,0.0,-3.0015,-2.9685,-2.8917,-2.794,-2.6713,0.0,0.0,0.0,0.0,0.0,0.0,0.0,0.0,0.0,0.0,0.0,0.0,0.0,0.0,0.0,0.0,0.0,0.0,0.0,0.0,0.0,0.0,0.0,0.0,0.0,0.0,0.0,0.0,0.0,0.0,0.0,0.0,0.0,0.0,0.0,0.0,0.0,0.0,0.0,0.0,0.0,0.0,0.0,0.0,0.0,0.0,0.0,0.0,0.0,0.0,0.0,0.0,0.0,0.0,0.0,0.0,0.0,0.0,0.0,0.0,0.0,0.0,0.0,0.0,0.0,0.0,0.0,0.0,0.0,0.0,0.0,0.0,0.0,0.0,0.0,0.0,0.0,0.0,0.0,0.0,0.0,0.0,0.0,0.0,0.0,0.0,0.0,0.0,0.0,0.0,0.0,0.0,0.0,0.0,0.0,0.0,0.0,0.0,0.0,0.0,0.0,0.0,0.0,0.0,0.0,0.0,0.0,0.0,0.0,0.0,0.0,0.0,-2.9443,-2.8482,-2.722,0.0,0.0,0.0,0.0,0.0,0.0,0.0,0.0,0.0,0.0,0.0,0.0,0.0,0.0,0.0,0.0,0.0,0.0,0.0,0.0,0.0,0.0,0.0,0.0,0.0,0.0,0.0,0.0,0.0,0.0,0.0,0.0,0.0,0.0,0.0,0.0,0.0,0.0,0.0,0.0,0.0,0.0,0.0,0.0,0.0,0.0,0.0,0.0,0.0,0.0,0.0,0.0,0.0,0.0,0.0,0.0,0.0,0.0,0.0,0.0,0.0,0.0,0.0,0.0,0.0,0.0,0.0,0.0,0.0,0.0,0.0,0.0,0.0,0.0,0.0,0.0,0.0,0.0,0.0,0.0,0.0,0.0,0.0,0.0,0.0,0.0,0.0,0.0,0.0,0.0,0.0,0.0,0.0,0.0,0.0,0.0,0.0,0.0,0.0,0.0,0.0,0.0,0.0,0.0,0.0,0.0,0.0,0.0,0.0,0.0,-2.9999,-3.0091,-2.9336,0.0,-2.5609,0.0,0.0,0.0,0.0,0.0,0.0,0.0,0.0,0.0,0.0,0.0,0.0,0.0,0.0,0.0,0.0,0.0,0.0,0.0,0.0,0.0,0.0,0.0,0.0,0.0,0.0,0.0,0.0,0.0,0.0,0.0,0.0,0.0,0.0,0.0,0.0,0.0,0.0,0.0,0.0,0.0,0.0,0.0,0.0,0.0,0.0,0.0,0.0,0.0,0.0,0.0,0.0,0.0,0.0,0.0,0.0,0.0,0.0,0.0,0.0,0.0,0.0,0.0,0.0,0.0,0.0,0.0,0.0,0.0,0.0,0.0,0.0,0.0,0.0,0.0,0.0,0.0,0.0,0.0,0.0,0.0,0.0,0.0,0.0,0.0,0.0,0.0,0.0,0.0,0.0,0.0,0.0,0.0,0.0,0.0,0.0,0.0,0.0,0.0,0.0,0.0,0.0,0.0,0.0,0.0,0.0,0.0,0.0,0.0,0.0,-2.9399,-2.9972,-2.8777,-2.7459,0.0,0.0,0.0,0.0,0.0,0.0,0.0,0.0,0.0,0.0,0.0,0.0,0.0,0.0,0.0,0.0,0.0,0.0,0.0,0.0,0.0,0.0,0.0,0.0,0.0,0.0,0.0,0.0,0.0,0.0,0.0,0.0,0.0,0.0,0.0,0.0,0.0,0.0,0.0,0.0,0.0,0.0,0.0,0.0,0.0,0.0,0.0,0.0,0.0,0.0,0.0,0.0,0.0,0.0,0.0,0.0,0.0,0.0,0.0,0.0,0.0,0.0,0.0,0.0,0.0,0.0,0.0,0.0,0.0,0.0,0.0,0.0,0.0,0.0,0.0,0.0,0.0,0.0,0.0,0.0,0.0,0.0,0.0,0.0,0.0,0.0,0.0,0.0,0.0,0.0,0.0,0.0,0.0,0.0,0.0,0.0,0.0,0.0,0.0,0.0,0.0,0.0,0.0,0.0,0.0,0.0,0.0,0.0,0.0,0.0,-2.8294,-2.9017,-2.9799,-2.8391,-2.7198,-2.6421,0.0,0.0,0.0,0.0,0.0,0.0,0.0,0.0,0.0,0.0,0.0,0.0,0.0,0.0,0.0,0.0,0.0,0.0,0.0,0.0,0.0,0.0,0.0,0.0,0.0,0.0,0.0,0.0,0.0,0.0,0.0,0.0,0.0,0.0,0.0,0.0,0.0,0.0,0.0,0.0,0.0,0.0,0.0,0.0,0.0,0.0,0.0,0.0,0.0,0.0,0.0,0.0,0.0,0.0,0.0,0.0,0.0,0.0,0.0,0.0,0.0,0.0,0.0,0.0,0.0,0.0,0.0,0.0,0.0,0.0,0.0,0.0,0.0,0.0,0.0,0.0,0.0,0.0,0.0,0.0,0.0,0.0,0.0,0.0,0.0,0.0,0.0,0.0,0.0,0.0,0.0,0.0,0.0,0.0,0.0,0.0,0.0,0.0,0.0,0.0,0.0,0.0,0.0,0.0,0.0,0.0,0.0,0.0,0.0,-2.7713,-2.9034,-2.9885,-2.8373,-2.7143,0.0,0.0,0.0,0.0,0.0,0.0,0.0,0.0,0.0,0.0,0.0,0.0,0.0,0.0,0.0,0.0,0.0,0.0,0.0,0.0,0.0,0.0,0.0,0.0,0.0,0.0,0.0,0.0,0.0,0.0,0.0,0.0,0.0,0.0,0.0,0.0,0.0,0.0,0.0,0.0,0.0,0.0,0.0,0.0,0.0,0.0,0.0,0.0,0.0,0.0,0.0,0.0,0.0,0.0,0.0,0.0,0.0,0.0,0.0,0.0,0.0,0.0,0.0,0.0,0.0,0.0,0.0,0.0,0.0,0.0,0.0,0.0,0.0,0.0,0.0,0.0,0.0,0.0,0.0,0.0,0.0,0.0,0.0,0.0,0.0,0.0,0.0,0.0,0.0,0.0,0.0,0.0,0.0,0.0,0.0,0.0,0.0,0.0,0.0,0.0,0.0,0.0,0.0,0.0,0.0,0.0,0.0,0.0,0.0,-2.5918,-2.7123,-2.7921,-2.8207,-2.7188,-2.6273,0.0,0.0,0.0,0.0,0.0,0.0,0.0,0.0,0.0,0.0,0.0,0.0,0.0,0.0,0.0,0.0,0.0,0.0,0.0,0.0,0.0,0.0,0.0,0.0,0.0,0.0,0.0,0.0,0.0,0.0,0.0,0.0,0.0,0.0,0.0,0.0,0.0,0.0,0.0,0.0,0.0,0.0,0.0,0.0,0.0,0.0,0.0,0.0,0.0,0.0,0.0,0.0,0.0,0.0,0.0,0.0,0.0,0.0,0.0,0.0,0.0,0.0,0.0,0.0,0.0,0.0,0.0,0.0,0.0,0.0,0.0,0.0,0.0,0.0,0.0,0.0,0.0,0.0,0.0,0.0,0.0,0.0,0.0,0.0,0.0,0.0,0.0,0.0,0.0,0.0,0.0,0.0,0.0,0.0,0.0,0.0,0.0,0.0,0.0,0.0,0.0,0.0,0.0,0.0,0.0,0.0,0.0,0.0,0.0,-2.5897,0.0,-2.7008,0.0,-2.6499,-2.56,0.0,0.0,0.0,0.0,0.0,0.0,0.0,0.0,0.0,0.0,0.0,0.0,0.0,0.0,0.0,0.0,0.0,0.0,0.0,0.0,0.0,0.0,0.0,0.0,0.0,0.0,0.0,0.0,0.0,0.0,0.0,0.0,0.0,0.0,0.0,0.0,0.0,0.0,0.0,0.0,0.0,0.0,0.0,0.0,0.0,0.0,0.0,0.0,0.0,0.0,0.0,0.0,0.0,0.0,0.0,0.0,0.0,0.0,0.0,0.0,0.0,0.0,0.0,0.0,0.0,0.0,0.0,0.0,0.0,0.0,0.0,0.0,0.0,0.0,0.0,0.0,0.0,0.0,0.0,0.0,0.0,0.0,0.0,0.0,0.0,0.0,0.0,0.0,0.0,0.0,0.0,0.0,0.0,0.0,0.0,0.0,0.0,0.0,0.0,0.0,0.0,0.0,0.0,0.0,0.0,0.0,0.0,0.0,-2.5137,-2.5955,-2.6048,-2.6459,-2.7223,-2.6424,-2.5262,0.0,0.0,0.0,0.0,0.0,0.0,0.0,0.0,0.0,0.0,0.0,0.0,0.0,0.0,0.0,0.0,0.0,0.0,0.0,0.0,0.0,0.0,0.0,0.0,0.0,0.0,0.0,0.0,0.0,0.0,0.0,0.0,0.0,0.0,0.0,0.0,0.0,0.0,0.0,0.0,0.0,0.0,0.0,0.0,0.0,0.0,0.0,0.0,0.0,0.0,0.0,0.0,0.0,0.0,0.0,0.0,0.0,0.0,0.0,0.0,0.0,0.0,0.0,0.0,0.0,0.0,0.0,0.0,0.0,0.0,0.0,0.0,0.0,0.0,0.0,0.0,0.0,0.0,0.0,0.0,0.0,0.0,0.0,0.0,0.0,0.0,0.0,0.0,0.0,0.0,0.0,0.0,0.0,0.0,0.0,0.0,0.0,0.0,0.0,0.0,0.0,0.0,0.0,0.0,0.0,0.0,0.0,0.0,0.0,-2.5795,-2.6393,-2.6514,-2.6197,-2.5979,-2.4816,0.0,0.0,0.0,0.0,0.0,0.0,0.0,0.0,0.0,0.0,0.0,0.0,0.0,0.0,0.0,0.0,0.0,0.0,0.0,0.0,0.0,0.0,0.0,0.0,0.0,0.0,0.0,0.0,0.0,0.0,0.0,0.0,0.0,0.0,0.0,0.0,0.0,0.0,0.0,0.0,0.0,0.0,0.0,0.0,0.0,0.0,0.0,0.0,0.0,0.0,0.0,0.0,0.0,0.0,0.0,0.0,0.0,0.0,0.0,0.0,0.0,0.0,0.0,0.0,0.0,0.0,0.0,0.0,0.0,0.0,0.0,0.0,0.0,0.0,0.0,0.0,0.0,0.0,0.0,0.0,0.0,0.0,0.0,0.0,0.0,0.0,0.0,0.0,0.0,0.0,0.0,0.0,0.0,0.0,0.0,0.0,0.0,0.0,0.0,0.0,0.0,0.0,0.0,0.0,0.0,0.0,0.0,0.0,0.0,-2.6853,-2.6865,-2.6579,-2.605,-2.5811,-2.4816,-2.301,0.0,0.0,0.0,0.0,0.0,0.0,0.0,0.0,0.0,0.0,0.0,0.0,0.0,0.0,0.0,0.0,0.0,0.0,0.0,0.0,0.0,0.0,0.0,0.0,0.0,0.0,0.0,0.0,0.0,0.0,0.0,0.0,0.0,0.0,0.0,0.0,0.0,0.0,0.0,0.0,0.0,0.0,0.0,0.0,0.0,0.0,0.0,0.0,0.0,0.0,0.0,0.0,0.0,0.0,0.0,0.0,0.0,0.0,0.0,0.0,0.0,0.0,0.0,0.0,0.0,0.0,0.0,0.0,0.0,0.0,0.0,0.0,0.0,0.0,0.0,0.0,0.0,0.0,0.0,0.0,0.0,0.0,0.0,0.0,0.0,0.0,0.0,0.0,0.0,0.0,0.0,0.0,0.0,0.0,0.0,0.0,0.0,0.0,0.0,0.0,0.0,0.0,0.0,0.0,0.0,0.0,0.0,0.0,-2.887,-2.7508,-2.6791,-2.6728,-2.5989,-2.5161,0.0,0.0,0.0,0.0,0.0,0.0,0.0,0.0,0.0,0.0,0.0,0.0,0.0,0.0,0.0,0.0,0.0,0.0,0.0,0.0,0.0,0.0,0.0,0.0,0.0,0.0,0.0,0.0,0.0,0.0,0.0,0.0,0.0,0.0,0.0,0.0,0.0,0.0,0.0,0.0,0.0,0.0,0.0,0.0,0.0,0.0,0.0,0.0,0.0,0.0,0.0,0.0,0.0,0.0,0.0,0.0,0.0,0.0,0.0,0.0,0.0,0.0,0.0,0.0,0.0,0.0,0.0,0.0,0.0,0.0,0.0,0.0,0.0,0.0,0.0,0.0,0.0,0.0,0.0,0.0,0.0,0.0,0.0,0.0,0.0,0.0,0.0,0.0,0.0,0.0,0.0,0.0,0.0,0.0,0.0,0.0,0.0,0.0,0.0,0.0,0.0,0.0,0.0,0.0,0.0,0.0,0.0,0.0,0.0,-2.87,-2.89,-2.8719,-2.8218,-2.6933,-2.5572,0.0,0.0,0.0,0.0,0.0,0.0,0.0,0.0,0.0,0.0,0.0,0.0,0.0,0.0,0.0,0.0,0.0,0.0,0.0,0.0,0.0,0.0,0.0,0.0,0.0,0.0,0.0,0.0,0.0,0.0,0.0,0.0,0.0,0.0,0.0,0.0,0.0,0.0,0.0,0.0,0.0,0.0,0.0,0.0,0.0,0.0,0.0,0.0,0.0,0.0,0.0,0.0,0.0,0.0,0.0,0.0,0.0,0.0,0.0,0.0,0.0,0.0,0.0,0.0,0.0,0.0,0.0,0.0,0.0,0.0,0.0,0.0,0.0,0.0,0.0,0.0,0.0,0.0,0.0,0.0,0.0,0.0,0.0,0.0,0.0,0.0,0.0,0.0,0.0,0.0,0.0,0.0,0.0,0.0,0.0,0.0,0.0,0.0,0.0,0.0,0.0,0.0,0.0,0.0,0.0,0.0,0.0,0.0,-2.7404,-2.9572,-2.9709,-2.9748,-2.9742,-2.8245,-2.6676,0.0,0.0,0.0,0.0,0.0,0.0,0.0,0.0,0.0,0.0,0.0,0.0,0.0,0.0,0.0,0.0,0.0,0.0,0.0,0.0,0.0,0.0,0.0,0.0,0.0,0.0,0.0,0.0,0.0,0.0,0.0,0.0,0.0,0.0,0.0,0.0,0.0,0.0,0.0,0.0,0.0,0.0,0.0,0.0,0.0,0.0,0.0,0.0,0.0,0.0,0.0,0.0,0.0,0.0,0.0,0.0,0.0,0.0,0.0,0.0,0.0,0.0,0.0,0.0,0.0,0.0,0.0,0.0,0.0,0.0,0.0,0.0,0.0,0.0,0.0,0.0,0.0,0.0,0.0,0.0,0.0,0.0,0.0,0.0,0.0,0.0,0.0,0.0,0.0,0.0,0.0,0.0,0.0,0.0,0.0,0.0,0.0,0.0,0.0,0.0,0.0,0.0,0.0,0.0,0.0,0.0,0.0,0.0,-2.7676,-3.0662,-3.0067,-3.0071,-3.0772,-2.9448,-2.7931,0.0,0.0,0.0,0.0,0.0,0.0,0.0,0.0,0.0,0.0,0.0,0.0,0.0,0.0,0.0,0.0,0.0,0.0,0.0,0.0,0.0,0.0,0.0,0.0,0.0,0.0,0.0,0.0,0.0,0.0,0.0,0.0,0.0,0.0,0.0,0.0,0.0,0.0,0.0,0.0,0.0,0.0,0.0,0.0,0.0,0.0,0.0,0.0,0.0,0.0,0.0,0.0,0.0,0.0,0.0,0.0,0.0,0.0,0.0,0.0,0.0,0.0,0.0,0.0,0.0,0.0,0.0,0.0,0.0,0.0,0.0,0.0,0.0,0.0,0.0,0.0,0.0,0.0,0.0,0.0,0.0,0.0,0.0,0.0,0.0,0.0,0.0,0.0,0.0,0.0,0.0,0.0,0.0,0.0,0.0,0.0,0.0,0.0,0.0,0.0,0.0,0.0,0.0,0.0,0.0,0.0,0.0,0.0,-2.7281,-2.9778,-2.9706,-2.9733,-2.9981,-2.9094,-2.7882,0.0,0.0,0.0,0.0,0.0,0.0,0.0,0.0,0.0,0.0,0.0,0.0,0.0,0.0,0.0,0.0,0.0,0.0,0.0,0.0,0.0,0.0,0.0,0.0,0.0,0.0,0.0,0.0,0.0,0.0,0.0,0.0,0.0,0.0,0.0,0.0,0.0,0.0,0.0,0.0,0.0,0.0,0.0,0.0,0.0,0.0,0.0,0.0,-1.9829,0.0,0.0,0.0,0.0,0.0,0.0,0.0,0.0,0.0,0.0,0.0,0.0,0.0,0.0,0.0,0.0,0.0,0.0,0.0,0.0,0.0,0.0,0.0,0.0,0.0,0.0,0.0,0.0,0.0,0.0,0.0,0.0,0.0,0.0,0.0,0.0,0.0,0.0,0.0,0.0,0.0,0.0,0.0,0.0,0.0,0.0,0.0,0.0,0.0,0.0,0.0,0.0,0.0,0.0,0.0,0.0,0.0,0.0,0.0,-2.751,-2.9462,-2.9547,-2.9593,-2.9643,-2.9299,-2.8194,0.0,0.0,0.0,0.0,0.0,0.0,0.0,0.0,0.0,0.0,0.0,0.0,0.0,0.0,0.0,0.0,0.0,0.0,0.0,0.0,0.0,0.0,0.0,0.0,0.0,0.0,0.0,0.0,0.0,0.0,0.0,0.0,0.0,0.0,0.0,0.0,0.0,0.0,0.0,0.0,0.0,0.0,0.0,0.0,0.0,0.0,0.0,0.0,0.0,0.0,0.0,0.0,0.0,0.0,0.0,0.0,0.0,0.0,0.0,0.0,0.0,0.0,0.0,0.0,0.0,0.0,0.0,0.0,0.0,0.0,0.0,0.0,0.0,0.0,0.0,0.0,0.0,0.0,0.0,0.0,0.0,0.0,0.0,0.0,0.0,0.0,0.0,0.0,0.0,0.0,0.0,0.0,0.0,0.0,0.0,0.0,0.0,0.0,0.0,0.0,0.0,0.0,0.0,0.0,0.0,0.0,0.0,-2.6568,-2.7665,-2.9217,-2.9307,-2.9313,-2.9395,-2.9341,-2.8312,-2.6271,0.0,0.0,0.0,0.0,0.0,0.0,0.0,0.0,0.0,0.0,0.0,0.0,0.0,0.0,0.0,0.0,0.0,0.0,0.0,0.0,0.0,0.0,0.0,0.0,0.0,0.0,0.0,0.0,0.0,0.0,0.0,0.0,0.0,0.0,0.0,0.0,0.0,0.0,-1.6243,-1.7634,0.0,0.0,0.0,0.0,0.0,0.0,0.0,0.0,-1.9988,0.0,0.0,0.0,0.0,0.0,0.0,0.0,0.0,0.0,0.0,0.0,0.0,0.0,0.0,0.0,0.0,0.0,0.0,0.0,0.0,0.0,0.0,0.0,0.0,0.0,0.0,0.0,0.0,0.0,0.0,0.0,0.0,0.0,0.0,0.0,0.0,0.0,0.0,0.0,0.0,0.0,0.0,0.0,0.0,0.0,0.0,0.0,0.0,0.0,0.0,0.0,0.0,0.0,0.0,0.0,0.0,-2.587,-2.5981,-2.6795,-2.8352,-2.8419,-2.8429,-2.8492,-2.786,-2.7099,-2.6122,0.0,0.0,0.0,0.0,0.0,0.0,0.0,0.0,0.0,0.0,0.0,0.0,0.0,0.0,0.0,0.0,0.0,0.0,0.0,0.0,0.0,0.0,0.0,0.0,0.0,0.0,0.0,0.0,0.0,0.0,0.0,0.0,0.0,0.0,0.0,0.0,0.0,0.0,0.0,-1.7918,-1.882,0.0,0.0,0.0,0.0,0.0,0.0,0.0,0.0,-1.9958,0.0,0.0,0.0,0.0,0.0,0.0,0.0,0.0,0.0,0.0,0.0,0.0,0.0,0.0,0.0,0.0,0.0,0.0,0.0,0.0,0.0,0.0,0.0,0.0,0.0,0.0,0.0,0.0,0.0,0.0,0.0,0.0,0.0,0.0,0.0,0.0,0.0,0.0,0.0,0.0,0.0,0.0,0.0,0.0,0.0,0.0,0.0,0.0,0.0,0.0,0.0,0.0,0.0,0.0,0.0,-2.5177,-2.6027,-2.6774,-2.75,-2.7945,-2.7927,-2.7531,-2.7166,-2.6481,0.0,0.0,0.0,0.0,0.0,0.0,0.0,0.0,0.0,0.0,0.0,0.0,0.0,0.0,0.0,0.0,0.0,0.0,0.0,0.0,0.0,0.0,0.0,0.0,0.0,0.0,0.0,0.0,0.0,0.0,0.0,0.0,0.0,0.0,0.0,0.0,0.0,0.0,0.0,0.0,-1.8236,-1.9161,-1.9494,0.0,0.0,0.0,0.0,0.0,0.0,-1.9843,-1.9908,0.0,0.0,0.0,0.0,0.0,0.0,0.0,0.0,0.0,0.0,0.0,0.0,0.0,0.0,0.0,0.0,0.0,0.0,0.0,0.0,0.0,0.0,0.0,0.0,0.0,0.0,0.0,0.0,0.0,0.0,0.0,0.0,0.0,0.0,0.0,0.0,0.0,0.0,0.0,0.0,0.0,0.0,0.0,0.0,0.0,0.0,0.0,0.0,0.0,0.0,0.0,0.0,0.0,0.0,0.0,-2.4676,-2.6038,-2.6783,-2.6916,-2.7489,-2.7483,-2.6763,-2.6526,-2.5758,0.0,0.0,0.0,0.0,0.0,0.0,0.0,0.0,0.0,0.0,0.0,0.0,0.0,0.0,0.0,0.0,0.0,0.0,0.0,0.0,0.0,0.0,0.0,0.0,0.0,0.0,0.0,0.0,0.0,0.0,0.0,0.0,0.0,0.0,0.0,0.0,0.0,0.0,0.0,0.0,0.0,-1.9509,-1.9612,-1.9531,0.0,0.0,0.0,0.0,-1.9621,-1.9713,0.0,0.0,0.0,0.0,0.0,0.0,0.0,0.0,0.0,0.0,0.0,0.0,0.0,0.0,0.0,0.0,0.0,0.0,0.0,0.0,0.0,0.0,0.0,0.0,0.0,0.0,0.0,0.0,0.0,0.0,0.0,0.0,0.0,0.0,0.0,0.0,0.0,0.0,0.0,0.0,0.0,0.0,0.0,0.0,0.0,0.0,0.0,0.0,0.0,0.0,0.0,0.0,0.0,0.0,0.0,0.0,-2.4623,-2.5458,-2.6162,-2.6778,-2.6847,-2.675,-2.6514,-2.5288,-2.4239,0.0,0.0,0.0,0.0,0.0,0.0,0.0,0.0,0.0,0.0,0.0,0.0,0.0,0.0,0.0,0.0,0.0,0.0,0.0,0.0,0.0,0.0,0.0,0.0,0.0,0.0,0.0,0.0,0.0,0.0,0.0,0.0,0.0,0.0,0.0,0.0,0.0,0.0,0.0,0.0,0.0,-1.957,-2.0268,-1.9764,-1.9588,0.0,0.0,-1.9424,-1.9431,-1.9541,0.0,0.0,0.0,0.0,0.0,0.0,0.0,0.0,0.0,0.0,0.0,0.0,0.0,0.0,0.0,0.0,0.0,0.0,0.0,0.0,0.0,0.0,0.0,0.0,0.0,0.0,0.0,0.0,0.0,0.0,0.0,0.0,0.0,0.0,0.0,0.0,0.0,0.0,0.0,0.0,0.0,0.0,0.0,0.0,0.0,0.0,0.0,0.0,0.0,0.0,0.0,0.0,0.0,0.0,0.0,-2.2043,-2.3969,-2.5125,-2.5791,-2.601,-2.6349,-2.6239,-2.5605,-2.4542,-2.3458,0.0,0.0,0.0,0.0,0.0,0.0,0.0,0.0,0.0,0.0,0.0,0.0,0.0,0.0,0.0,0.0,0.0,0.0,0.0,0.0,0.0,0.0,0.0,0.0,0.0,0.0,0.0,0.0,0.0,0.0,0.0,0.0,0.0,0.0,0.0,0.0,0.0,0.0,0.0,0.0,0.0,0.0,-2.0279,-2.0105,0.0,0.0,0.0,-2.0008,-2.0023,0.0,0.0,0.0,0.0,0.0,0.0,0.0,0.0,0.0,0.0,0.0,0.0,0.0,0.0,0.0,0.0,0.0,0.0,0.0,0.0,0.0,0.0,0.0,0.0,0.0,0.0,0.0,0.0,0.0,0.0,0.0,0.0,0.0,0.0,0.0,0.0,0.0,0.0,0.0,0.0,0.0,0.0,0.0,0.0,0.0,0.0,0.0,0.0,0.0,0.0,0.0,0.0,0.0,0.0,0.0,0.0,0.0,-2.3162,-2.4626,-2.5253,-2.5075,-2.5488,-2.5334,-2.4523,-2.3596,0.0,0.0,0.0,0.0,0.0,0.0,0.0,0.0,0.0,0.0,0.0,0.0,0.0,0.0,0.0,0.0,0.0,0.0,0.0,0.0,0.0,0.0,0.0,0.0,0.0,0.0,0.0,-1.2859,0.0,0.0,0.0,0.0,0.0,0.0,0.0,0.0,0.0,0.0,0.0,0.0,0.0,0.0,-1.9391,-2.0192,-2.03,-2.0589,0.0,0.0,-2.0668,-2.0466,-1.9994,-1.9305,0.0,0.0,0.0,0.0,0.0,0.0,0.0,0.0,0.0,0.0,0.0,0.0,0.0,0.0,0.0,0.0,0.0,0.0,0.0,0.0,0.0,0.0,0.0,0.0,0.0,0.0,0.0,0.0,0.0,0.0,0.0,0.0,0.0,0.0,0.0,0.0,0.0,0.0,0.0,0.0,0.0,0.0,0.0,0.0,0.0,0.0,0.0,0.0,0.0,0.0,0.0,0.0,0.0,0.0,0.0,-2.2316,-2.3743,-2.4361,-2.4106,-2.396,-2.3767,-2.3473,-2.2132,-2.1075,0.0,0.0,0.0,0.0,0.0,0.0,0.0,0.0,0.0,0.0,0.0,0.0,0.0,0.0,0.0,0.0,0.0,0.0,0.0,0.0,0.0,0.0,0.0,0.0,0.0,0.0,0.0,0.0,0.0,0.0,0.0,0.0,0.0,0.0,0.0,0.0,0.0,0.0,0.0,0.0,0.0,-1.9403,-2.0192,-2.03,-2.059,0.0,0.0,-2.1179,-2.0426,-2.0315,-1.9827,-1.8339,0.0,0.0,0.0,0.0,0.0,0.0,0.0,0.0,0.0,0.0,0.0,0.0,0.0,0.0,0.0,0.0,0.0,0.0,0.0,0.0,0.0,0.0,0.0,0.0,0.0,0.0,0.0,0.0,0.0,0.0,0.0,0.0,0.0,0.0,0.0,0.0,0.0,0.0,0.0,0.0,0.0,0.0,0.0,0.0,0.0,0.0,0.0,0.0,0.0,0.0,0.0,0.0,0.0,-2.1441,-2.2133,-2.355,-2.4117,-2.3829,-2.3633,-2.3403,-2.315,-2.1745,-2.0686,0.0,0.0,0.0,0.0,0.0,0.0,0.0,0.0,0.0,0.0,0.0,0.0,0.0,0.0,0.0,0.0,0.0,0.0,0.0,0.0,0.0,0.0,0.0,0.0,0.0,0.0,0.0,0.0,-1.4462,-1.4428,-1.4429,0.0,0.0,0.0,0.0,0.0,0.0,0.0,0.0,0.0,0.0,-1.9558,-2.0862,-2.1033,0.0,0.0,-2.2546,-2.2129,-2.1841,-2.0971,-1.9963,-1.8885,-1.836,0.0,0.0,0.0,0.0,0.0,0.0,0.0,0.0,0.0,0.0,0.0,0.0,0.0,0.0,0.0,0.0,0.0,0.0,0.0,0.0,0.0,0.0,0.0,0.0,0.0,0.0,0.0,0.0,0.0,0.0,0.0,0.0,0.0,0.0,0.0,0.0,0.0,0.0,0.0,0.0,0.0,0.0,0.0,0.0,0.0,0.0,0.0,0.0,0.0,0.0,0.0,0.0,-2.1383,-2.2007,-2.316,-2.3613,-2.3325,-2.3093,-2.2889,-2.2647,-2.1437,-2.0538,0.0,0.0,0.0,0.0,0.0,0.0,0.0,0.0,0.0,0.0,0.0,0.0,0.0,0.0,0.0,0.0,0.0,0.0,0.0,0.0,0.0,0.0,0.0,0.0,0.0,0.0,0.0,0.0,-1.4411,-1.4399,-1.4374,0.0,0.0,0.0,0.0,0.0,0.0,0.0,0.0,0.0,0.0,-1.9866,-2.0988,-2.1558,-2.2238,-2.3324,-2.3234,-2.2952,-2.2735,-2.1739,-2.0653,-1.9619,0.0,0.0,0.0,0.0,0.0,0.0,0.0,0.0,0.0,0.0,0.0,0.0,0.0,0.0,0.0,0.0,0.0,0.0,0.0,0.0,0.0,0.0,0.0,0.0,0.0,0.0,0.0,0.0,0.0,0.0,-1.9445,0.0,0.0,0.0,0.0,0.0,0.0,0.0,0.0,0.0,0.0,0.0,0.0,0.0,0.0,0.0,0.0,0.0,0.0,0.0,0.0,0.0,0.0,-2.1278,-2.1814,-2.2452,-2.264,-2.2456,-2.2178,-2.202,-2.1947,-2.1126,-2.045,-1.9887,0.0,0.0,0.0,0.0,0.0,0.0,0.0,0.0,0.0,0.0,0.0,0.0,0.0,0.0,0.0,0.0,0.0,0.0,0.0,0.0,0.0,0.0,0.0,0.0,0.0,0.0,-1.4411,-1.4399,-1.4367,0.0,0.0,0.0,0.0,0.0,0.0,0.0,0.0,0.0,0.0,-1.9757,-2.0282,-2.0373,-2.1695,-2.2681,-2.2753,-2.3324,-2.3506,-2.2843,-2.2662,-2.2121,0.0,0.0,0.0,0.0,0.0,0.0,0.0,0.0,0.0,0.0,0.0,0.0,0.0,0.0,0.0,0.0,0.0,0.0,0.0,0.0,0.0,0.0,0.0,0.0,0.0,0.0,0.0,-2.327,-2.2273,0.0,0.0,0.0,0.0,0.0,0.0,0.0,0.0,0.0,0.0,0.0,-2.4012,-2.3992,0.0,0.0,0.0,0.0,0.0,0.0,0.0,0.0,0.0,0.0,0.0,0.0,-2.1143,-2.1717,-2.2293,-2.2487,-2.2262,-2.2044,-2.1897,-2.1823,-2.1097,-2.0,-1.8557,0.0,0.0,0.0,0.0,0.0,0.0,0.0,0.0,0.0,0.0,0.0,0.0,0.0,0.0,0.0,0.0,0.0,0.0,0.0,0.0,0.0,0.0,0.0,0.0,0.0,-1.4319,0.0,0.0,0.0,0.0,0.0,0.0,0.0,0.0,0.0,0.0,0.0,-1.8987,-1.9793,-2.059,-2.1296,-2.1821,-2.2355,-2.2862,0.0,0.0,0.0,0.0,0.0,0.0,0.0,0.0,0.0,0.0,0.0,0.0,0.0,0.0,-1.8985,-1.8416,-1.7866,-1.7487,-1.7482,0.0,0.0,0.0,0.0,0.0,0.0,0.0,0.0,0.0,0.0,0.0,0.0,0.0,0.0,-2.5702,0.0,-2.4403,0.0,0.0,0.0,0.0,0.0,0.0,0.0,0.0,-2.4171,-2.4582,-2.5355,-2.5345,-2.5024,0.0,-2.3763,-2.2282,0.0,0.0,0.0,0.0,0.0,0.0,0.0,0.0,-2.1452,-2.2016,-2.2312,-2.2377,-2.2194,-2.2003,-2.1884,-2.184,-2.0922,-1.9829,-1.861,-1.7575,-1.6845,0.0,0.0,0.0,0.0,0.0,0.0,0.0,0.0,0.0,0.0,0.0,0.0,0.0,0.0,0.0,0.0,0.0,0.0,0.0,0.0,0.0,0.0,0.0,-1.4318,0.0,0.0,0.0,0.0,0.0,0.0,0.0,0.0,0.0,-1.8316,-1.9023,-1.9811,-2.0626,-2.1423,-2.2129,-2.2626,0.0,0.0,0.0,0.0,0.0,0.0,0.0,-2.2988,-2.2753,-2.1869,-2.1051,-2.0615,-2.03,-2.0164,-2.0294,0.0,0.0,-1.9306,-1.8737,-1.8378,-1.8359,-1.8378,-1.8378,-1.8378,-1.8354,-1.8529,0.0,0.0,0.0,0.0,0.0,0.0,0.0,0.0,-2.7934,-2.7879,0.0,-2.6951,0.0,0.0,0.0,0.0,0.0,-2.4828,0.0,0.0,-2.5579,-2.5456,-2.5294,-2.5337,-2.5285,-2.5158,-2.4465,-2.371,-2.2906,-2.0869,0.0,0.0,0.0,0.0,0.0,0.0,-2.2106,-2.2712,-2.2515,-2.2355,-2.2247,-2.2051,-2.1913,-2.1863,-2.0656,-1.9959,-1.993,-1.8183,-1.7205,-1.7219,-1.593,0.0,0.0,0.0,0.0,0.0,0.0,0.0,0.0,0.0,0.0,0.0,0.0,0.0,0.0,0.0,0.0,0.0,0.0,0.0,0.0,-1.4372,0.0,0.0,0.0,0.0,0.0,0.0,0.0,0.0,0.0,0.0,-1.9268,-1.9902,-2.0662,-2.1432,0.0,0.0,0.0,0.0,-2.3795,-2.3795,-2.3795,-2.3795,-2.3795,-2.3788,-2.3542,-2.2843,0.0,0.0,-2.0841,-2.0745,-2.0843,-2.1017,-2.1023,-2.09,-2.0115,-1.9912,-1.9918,-1.9912,-1.9874,-1.9969,-1.9969,-1.9817,-1.9893,-3.1818,0.0,0.0,0.0,0.0,-3.0149,-3.0227,-3.0227,-3.0227,-2.988,-2.9271,-2.9028,0.0,0.0,0.0,0.0,0.0,0.0,-2.5883,-2.693,-2.6889,-2.7363,-2.8211,-2.7709,-2.7467,-2.74,-2.6122,-2.5394,-2.5115,-2.3501,-2.2044,-2.077,0.0,0.0,0.0,0.0,-2.2377,-2.3438,-2.2839,-2.266,-2.3042,-2.2433,-2.2075,-2.1969,-2.1235,-2.0589,-2.0086,-1.9212,-1.8489,-1.7994,-1.7231,0.0,0.0,0.0,0.0,0.0,0.0,0.0,0.0,0.0,0.0,0.0,0.0,0.0,0.0,0.0,0.0,0.0,0.0,0.0,-1.5882,-1.5944,-1.5922,0.0,0.0,0.0,0.0,0.0,0.0,0.0,0.0,0.0,-2.1522,-2.1866,-2.2093,0.0,0.0,-2.3487,-2.3487,-2.3679,-2.3795,-2.3795,0.0,0.0,0.0,-2.3795,-2.3723,-2.3524,-2.2633,-2.1625,-2.0815,-2.0303,-2.0011,-2.0158,-2.0243,-2.0214,-2.0039,-1.9988,-2.0007,-1.9988,-1.9988,-1.9988,-1.9988,-1.9988,-2.0007,-3.4629,-3.3127,-3.2474,-3.2173,-3.2165,-3.2411,-3.2514,-3.2478,-3.2155,-3.1696,-3.1174,-3.0409,-2.9498,-2.8457,-2.8393,0.0,0.0,0.0,-2.7635,-2.8336,-2.8287,-2.8708,-2.9437,-2.9024,-2.8678,-2.8368,-2.7471,-2.6713,-2.6092,-2.5207,-2.3967,-2.2434,0.0,0.0,-2.2286,-2.2519,-2.3037,-2.3805,-2.3584,-2.3474,-2.3481,-2.2694,-2.2248,-2.2158,-2.1593,-2.0926,-2.0215,-1.9694,-1.9054,-1.8335,-1.7457,-1.6773,0.0,0.0,0.0,0.0,0.0,0.0,0.0,0.0,0.0,0.0,0.0,-1.417,-1.4201,0.0,0.0,0.0,-1.5411,-1.6068,-1.6561,-1.6602,0.0,0.0,0.0,0.0,0.0,0.0,0.0,-1.939,-2.0416,-2.1498,-2.2483,-2.2891,-2.311,-2.3133,-2.3524,-2.3795,-2.3795,0.0,-2.3795,-2.3795,-2.3795,-2.3795,-2.3795,-2.3795,-2.3795,-2.3795,-2.2842,-2.1999,-2.1633,-2.0988,-2.0595,-2.0713,-2.0797,-2.0878,-2.0925,-2.0986,-2.0751,-2.0126,-1.9988,-1.9988,-1.9988,-2.0253,-2.0462,-3.6633,-3.5916,-3.4524,-3.38,-3.3622,-3.4292,-3.455,-3.4481,-3.3679,-3.3309,-3.317,-3.1436,-3.0581,-3.0445,-3.0161,0.0,-2.9954,-2.9908,-2.9794,-2.9678,-2.9678,-2.9696,-2.9696,-2.9644,-2.9248,-2.8575,-2.8454,-2.7678,-2.6335,-2.623,-2.5833,-2.5074,-2.38,-2.3119,-2.3102,-2.3696,-2.3991,-2.3991,-2.4606,-2.4482,-2.3625,-2.2889,-2.2473,-2.2391,-2.1812,-2.1161,-2.0436,-1.9826,-1.9148,-1.8394,-1.7113,-1.6395,-1.6339,0.0,0.0,0.0,0.0,0.0,0.0,0.0,0.0,0.0,0.0,0.0,0.0,0.0,0.0,0.0,-1.6204,0.0,-1.6761,-1.6787,0.0,0.0,0.0,-1.7819,-1.7865,-1.9192,-2.0144,-2.0252,0.0,0.0,-2.2607,0.0,-2.3714,-2.3774,-2.3795,-2.3795,-2.3813,-2.3795,-2.3795,-2.3795,-2.3795,-2.3795,-2.3795,-2.3795,-2.3806,-2.3798,-2.3252,-2.2793,-2.2749,-2.2266,-2.1988,-2.2043,-2.2241,-2.2285,-2.2376,-2.2338,-2.2015,-2.0543,-2.0272,-2.024,-2.0334,-2.0846,-2.1295,-3.7623,-3.7391,-3.703,-3.6148,-3.5017,-3.5033,-3.4988,-3.4866,-3.4621,-3.4446,-3.4252,-3.3298,-3.2138,-3.088,-3.0087,-2.9708,-2.9692,-2.9625,-2.9903,-3.0421,-3.0438,-3.0731,-3.1214,-3.0697,-3.0317,-3.0093,-2.8972,-2.8213,-2.7851,-2.7282,-2.6609,-2.5868,-2.5518,-2.5077,-2.4597,-2.4725,-2.5092,-2.5616,-2.521,-2.4537,-2.3727,-2.342,-2.3067,-2.2491,-2.2371,-2.1979,-2.1237,-2.0585,-1.9906,-1.9176,-1.8371,-1.7696,-1.7081,-1.6826,0.0,0.0,0.0,0.0,0.0,0.0,0.0,0.0,0.0,-1.5273,-1.5842,0.0,-1.6138,0.0,-1.6902,-1.7609,-1.8217,-1.8324,0.0,0.0,-1.8492,-1.8842,-1.9389,-1.9783,-2.0492,-2.1711,-2.2195,-2.2665,-2.3347,-2.3592,-2.3711,-2.3732,-2.3757,-2.3797,-2.3807,-2.3792,-2.3795,-2.3795,-2.3795,-2.3795,-2.3795,-2.3795,-2.3806,-2.3858,-2.3262,-2.2848,-2.2887,-2.235,-2.1962,-2.2092,-2.218,-2.2252,-2.2438,-2.2414,-2.235,-2.1977,-2.1926,-2.1907,-2.1913,-2.2059,-2.2192,-3.7845,-3.781,-3.7793,-3.7184,-3.6292,-3.6203,-3.6078,-3.5897,-3.5469,-3.5236,-3.5108,-3.4226,-3.333,-3.2419,-3.1858,-3.1423,-3.1078,-3.1042,-3.1076,-3.1179,-3.1197,-3.1403,-3.1783,-3.1386,-3.1025,-3.0662,-2.9817,-2.9075,-2.8403,-2.7989,-2.7385,-2.6644,-2.6644,-2.6435,-2.6083,-2.5737,-2.574,-2.6137,-2.5727,-2.5252,-2.4778,-2.4408,-2.3861,-2.3127,-2.3117,-2.2646,-2.1579,-2.1206,-2.0638,-1.9849,-1.8934,-1.8231,-1.7821,-1.7257,-1.6755,0.0,0.0,0.0,0.0,0.0,0.0,0.0,0.0,0.0,0.0,0.0,-1.7075,-1.7432,-1.7878,-1.8467,-1.927,-1.937,-1.9513,-1.9853,-1.9872,-2.0061,-2.0451,-2.0791,-2.1356,-2.226,-2.2679,-2.3084,-2.3547,-2.3618,-2.3611,-2.36,-2.3674,-2.3718,-2.3743,-2.3779,-2.381,-2.381,-2.3803,-2.3795,-2.3795,-2.3795,-2.3806,-2.3811,-2.3563,-2.3359,-2.3417,-2.3198,-2.3014,-2.3156,-2.324,-2.333,-2.3408,-2.3457,-2.3484,-2.3543,-2.3575,-2.3297,-2.2665,-2.2779,-2.3026,-3.7685,-3.7685,-3.7631,-3.7466,-3.7297,-3.7354,-3.7242,-3.6978,-3.6211,-3.5782,-3.558,-3.4708,-3.4261,-3.4096,-3.4096,-3.3734,-3.3076,-3.2955,-3.2541,-3.1938,-3.1852,-3.18,-3.18,-3.18,-3.1455,-3.0851,-3.0731,-2.9955,-2.8558,-2.8454,-2.8023,-2.7349,-2.7315,-2.7315,-2.728,-2.6609,-2.6264,-2.6249,-2.6247,-2.6197,-2.6092,-2.5471,-2.4715,-2.3853,-2.3802,-2.3164,-2.1832,-2.1647,-2.1285,-2.0561,-1.9288,-1.8617,-1.8631,-1.7455,-1.6809,0.0,-1.6887,0.0,0.0,0.0,0.0,0.0,0.0,0.0,0.0,-1.7441,-1.819,-1.8904,-1.9029,-1.9386,-2.0073,-2.0144,-2.0412,-2.1019,-2.109,-2.1144,-2.1268,-2.1875,-2.235,-2.2428,-2.3077,-2.3505,-2.3505,-2.3505,-2.3505,-2.3517,-2.3562,-2.3618,-2.3656,-2.3732,-2.3793,-2.3804,-2.381,-2.3795,-2.3795,-2.3795,-2.3806,-2.3816,-2.386,-2.4006,-2.4037,-2.4145,-2.4293,-2.4409,-2.4464,-2.4599,-2.4692,-2.4704,-2.4763,-2.4757,-2.4759,-2.4375,-2.3341,-2.3449,-2.3847,-3.7685,-3.7685,-3.7631,-3.7484,-3.7297,-3.7203,-3.7009,-3.6728,-3.637,-3.5852,-3.5299,-3.512,-3.4665,-3.4113,-3.4096,-3.4044,-3.3854,-3.3197,-3.2817,-3.2679,-3.2076,-3.18,-3.18,-3.18,-3.1714,-3.1558,-3.0972,-3.0213,-2.9299,-2.8696,-2.8023,-2.7332,-2.7315,-2.7315,-2.7315,0.0,0.0,0.0,-2.7075,-2.6764,-2.6143,-2.5956,-2.5215,-2.3871,-2.3802,0.0,-2.2526,-2.1906,-2.1527,-2.1354,-2.0546,0.0,0.0,0.0,0.0,0.0,0.0,0.0,0.0,0.0,0.0,0.0,-1.9909,-1.968,-1.8494,-1.9092,-1.9609,-1.977,-2.0323,-2.0733,-2.0876,-2.0894,-2.0947,-2.1072,-2.1108,-2.1358,-2.1975,-2.2225,-2.2517,-2.3202,-2.3416,-2.3505,-2.3577,-2.3505,-2.3541,-2.3594,-2.3523,-2.3546,-2.3575,-2.3652,-2.3732,-2.3775,-2.38,-2.3795,-2.3795,-2.3795,-2.3795,-2.3824,-2.3876,-2.3955,-2.4016,-2.4133,-2.4266,-2.4394,-2.4482,-2.4566,-2.4676,-2.4696,-2.4753,-2.482,-2.4863,-2.483,-2.458,-2.4624,-2.4757,-3.7685,0.0,-3.7558,-3.7411,0.0,-3.7126,-3.6911,-3.6684,-3.6464,-3.6136,-3.5749,-3.5732,-3.5525,-3.52,-3.518,-3.4993,-3.4611,-3.4214,-3.3628,-3.2904,-3.2524,-3.2145,-3.18,-3.18,-3.18,-3.1783,-3.142,-3.0834,-3.0075,-2.9317,-2.8575,-2.7851,-2.7471,-2.7315,-2.7315,-2.7315,-2.7315,-2.7315,-2.7315,-2.7092,-2.6713,-2.6695,-2.5954,-2.4456,0.0,0.0,0.0,0.0,0.0,0.0,0.0,0.0,0.0,0.0,0.0,-2.0702,-2.0735,-2.0594,-2.029,-2.0742,-2.0877,-2.0494,-2.086,-2.0759,-1.9974,-2.0323,-2.0537,-2.0555,-2.0894,-2.1279,-2.1643,-2.1679,-2.1839,-2.2221,-2.2275,-2.2596,-2.3332,-2.3474,-2.3802,-2.4498,-2.4629,-2.4629,-2.4629,-2.4647,-2.4629,-2.4629,-2.4629,-2.4486,-2.4141,-2.3829,-2.3667,-2.3765,-2.3797,-2.3792,-2.3795,-2.3795,-2.3795,-2.3824,-2.3865,-2.3917,-2.3986,-2.4103,-2.4246,-2.433,-2.4438,-2.4542,-2.4613,-2.4679,-2.4718,-2.4787,-2.4839,-2.487,-2.4931,-2.4996,-2.4984,-3.7774,-3.7739,-3.7541,-3.741,-3.7297,-3.7068,-3.6849,-3.6623,0.0,0.0,0.0,-3.6284,-3.6284,-3.6284,-3.6284,-3.5956,-3.5404,-3.5249,-3.4438,-3.3128,-3.2972,-3.2507,-3.1817,-3.18,-3.18,-3.18,-3.18,-3.1403,-3.0697,-2.9886,-2.9127,-2.8385,-2.7661,-2.7315,-2.7315,-2.7315,-2.7315,-2.7315,-2.7315,-2.7315,-2.7315,-2.7315,-2.6642,-2.5229,-2.5195,-2.4474,-2.2957,-2.2888,-2.2836,-2.2681,-2.2176,-2.1873,-2.1868,-2.1298,-2.0987,-2.0981,-2.104,-2.1022,-2.0934,-2.1192,-2.145,-2.1624,-2.1686,-2.1607,-2.1358,-2.1436,-2.159,-2.1714,-2.1857,-2.2214,-2.2839,-2.2921,-2.3178,-2.3844,-2.3915,-2.4165,-2.4783,-2.4908,-2.5087,-2.5676,-2.5729,-2.577,-2.5717,-2.5717,-2.5788,-2.577,-2.5663,-2.5533,-2.4801,-2.4045,-2.3629,-2.3729,-2.3754,-2.3797,-2.381,-2.3795,-2.3795,-2.3795,-2.3855,-2.3907,-2.3996,-2.4094,-2.4181,-2.4284,-2.4393,-2.45,-2.4574,-2.4631,-2.4698,-2.4768,-2.4776,-2.482,-2.4882,-2.4917,-2.4964,-3.8018,-3.7949,-3.7739,-3.7558,-3.7355,-3.7106,-3.6751,-3.6381,-3.6343,-3.6322,-3.6284,-3.6284,-3.6284,-3.6284,-3.6284,-3.6249,-3.6111,-3.5511,-3.4731,0.0,-3.3214,-3.2507,-3.1817,-3.18,-3.18,-3.18,-3.18,-3.142,-3.0679,-2.9903,-2.9127,-2.8403,-2.7677,-2.7332,-2.7315,-2.7315,-2.7315,-2.7315,-2.7315,-2.7315,-2.7315,-2.7315,-2.6868,-2.6008,-2.5937,-2.5215,-2.3719,-2.3646,-2.3353,-2.2733,-2.2625,-2.2556,-2.2539,-2.2466,-2.2423,-2.2487,-2.25,-2.2285,-2.1814,-2.2393,-2.3182,-2.4005,-2.4159,-2.3624,-2.2285,-2.2767,-2.3452,-2.4123,-2.4641,-2.5176,-2.5301,-2.5212,-2.5212,-2.5408,-2.5449,-2.552,-2.564,-2.5658,-2.5711,-2.589,-2.5788,-2.5872,-2.5931,-2.5895,-2.5931,-2.5841,-2.5948,-2.5586,-2.4944,-2.4063,-2.365,-2.3629,-2.3718,-2.3793,-2.3797,-2.381,-2.3813,-2.3795,-2.3824,-2.3876,-2.3958,-2.4016,-2.4095,-2.4275,-2.4312,-2.4393,-2.4497,-2.4564,-2.465,-2.4698,-2.4753,-2.4806,-2.4821,-2.4832,-2.4868,-3.8068,-3.8017,-3.781,-3.7577,-3.7355,-3.7007,-3.6667,-3.6402,-3.6339,-3.6284,-3.6284,-3.6284,-3.6284,-3.6284,-3.6284,-3.6284,-3.6266,-3.5939,-3.52,-3.4111,-3.3697,-3.2921,-3.1869,-3.18,-3.18,-3.18,-3.18,-3.161,-3.1248,-3.0524,-2.9972,-2.9592,-2.8489,-2.7696,-2.7333,-2.7315,-2.7315,-2.7315,-2.7315,-2.7315,-2.7315,-2.7315,-2.6919,-2.6126,-2.6092,-2.5609,-2.4491,-2.4439,-2.4298,-2.3957,-2.3953,-2.3957,-2.3953,-2.3953,-2.3953,-2.3995,-2.4022,-2.3948,-2.3702,-2.4147,-2.464,-2.5159,-2.5232,-2.5162,-2.4903,-2.4783,-2.4908,-2.5265,-2.5622,-2.5788,-2.5788,-2.5788,-2.5788,-2.5788,-2.5788,-2.5979,-2.6354,-2.6456,-2.6621,-2.7001,-2.7108,-2.709,-2.7108,-2.7108,-2.7108,-2.7072,-2.6769,-2.6318,-2.5925,-2.495,-2.4045,-2.3692,-2.367,-2.3718,-2.3783,-2.3797,-2.381,-2.3813,-2.3795,-2.3855,-2.3927,-2.3976,-2.4066,-2.4209,-2.4257,-2.4303,-2.4419,-2.4507,-2.4549,-2.458,-2.4663,-2.4729,-2.4756,-2.4718,-2.4734,-3.8168,-3.8119,-3.7879,-3.7631,-3.7336,-3.6906,-3.6623,-3.6485,-3.6343,-3.6284,-3.6284,-3.6284,-3.6284,-3.6284,-3.6284,-3.6284,-3.6284,-3.6284,-3.5508,-3.4199,-3.4096,-3.3283,-3.1903,-3.18,-3.18,-3.18,-3.18,-3.18,-3.1714,-3.1059,-3.061,-3.03,-2.9075,-2.8109,-2.7558,-2.7385,-2.7315,-2.7315,-2.7315,-2.7315,-2.7315,-2.7315,-2.7006,-2.6421,-2.6368,-2.6008,-2.5316,-2.5232,-2.516,-2.5023,-2.5005,-2.5005,-2.5005,-2.5005,-2.5005,-2.4988,-2.5049,-2.5117,-2.5195,-2.5374,-2.561,-2.5923,-2.5949,-2.6339,-2.7077,-2.6697,-2.6354,-2.6341,-2.6394,-2.6394,-2.6412,-2.6376,-2.6341,-2.6354,-2.6323,-2.6639,-2.7157,-2.7264,-2.7478,-2.8088,-2.8196,-2.816,-2.8196,-2.8196,-2.8142,-2.7999,-2.7643,-2.7264,-2.6907,-2.5908,-2.4956,-2.4081,-2.371,-2.3647,-2.3739,-2.3783,-2.3797,-2.3803,-2.3795,-2.3827,-2.3878,-2.3937,-2.4026,-2.4133,-2.4181,-2.4238,-2.434,-2.4412,-2.4446,-2.4471,-2.4539,-2.4615,-2.4617,-2.4557,-2.4547,-3.8382,-3.8272,-3.8119,-3.7774,-3.7278,-3.6866,-3.6658,-3.6485,-3.636,-3.6284,-3.6284,-3.6284,-3.6284,-3.6284,-3.6284,-3.6284,-3.6284,-3.6284,-3.5525,-3.4234,-3.4096,-3.3302,-3.1921,-3.18,-3.18,-3.18,-3.18,-3.18,-3.1748,-3.1076,-3.0351,-2.9592,-2.8799,-2.8403,-2.823,-2.7644,-2.7332,-2.7315,-2.7315,-2.7315,-2.7315,-2.7315,-2.7264,-2.7211,-2.7178,-2.6833,-2.6057,-2.599,-2.5695,-2.5074,-2.5057,-2.5023,-2.504,-2.5023,-2.5005,-2.504,-2.5054,-2.5074,-2.5216,-2.532,-2.5793,-2.6523,-2.6721,-2.7108,-2.7864,-2.7954,-2.7981,-2.7892,-2.791,-2.7857,-2.7964,-2.791,-2.7821,-2.7767,-2.7821,-2.8017,-2.8017,-2.8106,-2.8142,-2.8178,-2.8196,-2.8196,-2.8196,-2.8196,-2.8196,-2.8196,-2.8071,-2.775,-2.721,-2.6831,-2.6081,-2.4867,-2.4069,-2.3685,-2.3676,-2.3729,-2.3765,-2.3786,-2.381,-2.3816,-2.3858,-2.3907,-2.3955,-2.4064,-2.4132,-2.4142,-2.419,-2.4266,-2.433,-2.433,-2.4374,-2.4417,-2.442,-2.4321,-2.4311,-3.8462,-3.8382,-3.8203,-3.7792,-3.7331,-3.7419,-3.7102,-3.652,-3.6381,-3.6284,-3.6284,-3.6284,-3.6284,-3.6284,-3.6284,-3.6284,-3.6284,-3.6284,-3.5732,-3.4731,-3.432,-3.3527,-3.2507,-3.199,-3.18,-3.18,-3.18,-3.18,-3.1748,-3.1472,-3.099,-3.0248,-2.9886,-2.9523,-2.9023,-2.8316,-2.7954,-2.7937,-2.7523,-2.7315,-2.7315,-2.7315,-2.7315,-2.7315,-2.7315,-2.7161,-2.6851,-2.6816,-2.6661,-2.6385,-2.6368,-2.6368,-2.635,-2.635,-2.635,-2.6366,-2.6413,-2.6459,-2.6499,-2.6615,-2.6868,-2.727,-2.7406,-2.7681,-2.8045,-2.8126,-2.8154,-2.8182,-2.8196,-2.8196,-2.8196,-2.8196,-2.8196,-2.8196,-2.8196,-2.8196,-2.8196,-2.8196,-2.8196,-2.8196,-2.8196,-2.8196,-2.8196,-2.8196,-2.8196,-2.8196,-2.8196,-2.8017,-2.7727,-2.7317,-2.655,-2.5569,-2.4724,-2.4116,-2.3728,-2.3658,-2.3696,-2.3721,-2.3775,-2.381,-2.3821,-2.3876,-2.3917,-2.3986,-2.4006,-2.4026,-2.4056,-2.4133,-2.419,-2.42,-2.4182,-2.421,-2.4219,-2.4114,-2.4086,-3.8727,-3.8467,-3.8336,-3.8205,-3.8009,-3.797,-3.7568,-3.6839,-3.645,-3.6284,-3.6284,-3.6284,-3.6284,-3.6284,-3.6284,-3.6284,-3.6284,-3.6284,-3.5904,-3.5197,-3.4648,-3.3869,-3.2921,-3.2369,-3.199,-3.1817,-3.18,-3.18,-3.18,-3.18,-3.1524,-3.1059,-3.0782,-3.0403,-2.9817,-2.9075,-2.8713,-2.8627,-2.7971,-2.7609,-2.7575,-2.7418,-2.7315,-2.7315,-2.7315,-2.7315,-2.7315,-2.7315,-2.7315,-2.7315,-2.7315,-2.7315,-2.7315,-2.7315,-2.7315,-2.7315,-2.7346,-2.736,-2.7392,-2.7483,-2.7572,-2.7627,-2.7766,-2.7885,-2.7968,-2.8039,-2.8099,-2.8172,-2.8168,-2.8186,-2.8196,-2.8196,-2.8196,-2.8196,-2.8196,-2.8196,-2.8196,-2.8196,-2.8196,-2.8196,-2.8196,-2.8196,-2.8196,-2.8196,-2.8196,-2.8196,-2.8196,-2.8196,-2.816,-2.7692,-2.7067,-2.6264,-2.5497,-2.4635,-2.3812,-2.3596,-2.3629,-2.3674,-2.3739,-2.3783,-2.3783,-2.381,-2.3834,-2.3842,-2.3894,-2.3904,-2.3922,-2.3963,-2.4034,-2.4024,-2.4024,-2.4024,-2.4014,-2.3933,-2.3852,-3.9273,-3.8532,-3.8743,-3.9223,-3.9658,-3.8526,-3.7885,-3.7568,-3.67,-3.6284,-3.6284,-3.6284,-3.6284,-3.6284,-3.6284,-3.6284,-3.6284,-3.6284,-3.5939,-3.5283,-3.5145,-3.4335,-3.2955,-3.2852,-3.249,-3.1921,-3.1817,-3.18,-3.18,-3.18,-3.18,-3.1696,-3.1094,-3.0713,-3.0524,-2.9868,-2.9472,-2.9403,-2.873,-2.8351,-2.8265,-2.7678,-2.7366,-2.7384,-2.7315,-2.7315,-2.7315,-2.7315,-2.7315,-2.7315,-2.7315,-2.7315,-2.7315,-2.7315,-2.7315,-2.7315,-2.7315,-2.7329,-2.7393,-2.7425,-2.7454,-2.7511,-2.7644,-2.7716,-2.776,-2.7893,-2.8011,-2.8081,-2.8112,-2.814,-2.82,-2.8213,-2.8196,-2.8196,-2.8196,-2.8196,-2.8196,-2.8196,-2.8196,-2.8196,-2.8196,-2.8196,-2.8196,-2.8196,-2.8196,-2.8196,-2.8196,-2.8196,-2.8196,-2.8124,-2.771,-2.696,-2.6139,-2.5217,-2.3909,-2.3551,-2.3585,-2.3618,-2.3663,-2.37,-2.3718,-2.3729,-2.3721,-2.3703,-2.3754,-2.3765,-2.3743,-2.3765,-2.3821,-2.3831,-2.3828,-2.3818,-2.3847,-2.3765,-2.3711,-4.0189,-3.9801,-4.0181,-4.0128,-3.9623,-3.8974,-3.8318,-3.7606,-3.6692,-3.6284,-3.6284,-3.6284,-3.6284,-3.6284,-3.6284,-3.6284,-3.6284,-3.6284,-3.6146,-3.5852,-3.5421,-3.4904,-3.4335,-3.3404,-3.2783,-3.249,-3.2024,-3.18,-3.18,-3.18,-3.18,-3.1783,-3.1541,-3.1403,-3.1265,-3.0644,-3.0265,-3.0214,-2.9489,-2.911,-2.9041,-2.8385,-2.8006,-2.7971,-2.7523,-2.7315,-2.7315,-2.7315,-2.7315,-2.7315,-2.7315,-2.7315,-2.7315,-2.7315,-2.7315,-2.7315,-2.7315,-2.7315,-2.7346,-2.7376,-2.7407,-2.7421,-2.7526,-2.7597,-2.7686,-2.7774,-2.7864,-2.8014,-2.8085,-2.813,-2.8126,-2.8168,-2.8196,-2.8196,-2.8196,-2.8196,-2.8196,-2.8196,-2.8196,-2.8196,-2.8196,-2.8196,-2.8196,-2.8196,-2.8196,-2.8196,-2.8196,-2.8196,-2.8196,-2.8196,-2.791,-2.7121,-2.6318,-2.5461,-2.4516,-2.3802,-2.3539,-2.3562,-2.3596,-2.3618,-2.3641,-2.3667,-2.3689,-2.3689,-2.3696,-2.3696,-2.3707,-2.3707,-2.3714,-2.3714,-2.37,-2.3696,-2.3692,-2.3652,-2.3607,-4.0673,-4.0817,-4.0978,-4.077,-4.0223,-3.9421,-3.8655,-3.7888,-3.6774,-3.6284,-3.6284,-3.6284,-3.6284,-3.6284,-3.6284,-3.6284,-3.6284,-3.6284,-3.6284,-3.6249,-3.5766,-3.5421,-3.5079,-3.4128,-3.3369,-3.2852,-3.2145,-3.18,-3.18,-3.18,-3.18,-3.18,-3.18,-3.18,-3.1714,-3.1282,-3.1041,-3.092,-3.03,-2.9903,-2.9799,-2.9161,-2.8627,-2.8351,-2.7902,-2.7523,-2.7332,-2.7315,-2.7315,-2.7315,-2.7315,-2.7315,-2.7315,-2.7315,-2.7315,-2.7315,-2.7315,-2.7315,-2.7315,-2.7346,-2.7378,-2.7378,-2.7421,-2.7529,-2.7617,-2.7612,-2.7733,-2.785,-2.7922,-2.7982,-2.8053,-2.8126,-2.8168,-2.8182,-2.8196,-2.8196,-2.8196,-2.8196,-2.8196,-2.8196,-2.8196,-2.8196,-2.8196,-2.8196,-2.8196,-2.8196,-2.8196,-2.8196,-2.8196,-2.8178,-2.8053,-2.746,-2.6746,-2.5997,-2.5176,-2.4498,-2.3784,-2.3671,-2.3539,-2.3562,-2.3585,-2.3611,-2.3634,-2.3634,-2.3652,-2.3652,-2.3652,-2.3652,-2.3652,-2.3634,-2.3618,-2.3585,-2.358,-2.3557,-2.3539,-4.072,-4.1272,-4.091,-4.1103,-4.1257,-3.9691,-3.8903,-3.8438,-3.6982,-3.6284,-3.6284,-3.6284,-3.6284,-3.6284,-3.6284,-3.6284,-3.6284,-3.6284,-3.6284,-3.6266,-3.6232,-3.587,-3.5283,-3.5059,-3.418,-3.2938,-3.2179,-3.1817,-3.18,-3.18,-3.18,-3.18,-3.18,-3.18,-3.18,-3.1714,-3.1731,-3.1558,-3.1007,-3.0714,-3.0593,-2.992,-2.923,-2.8644,-2.8454,-2.8075,-2.7418,-2.7332,-2.7315,-2.7315,-2.7315,-2.7315,-2.7315,-2.7315,-2.7315,-2.7315,-2.7315,-2.7315,-2.7315,-2.7315,-2.7315,-2.733,-2.736,-2.739,-2.7438,-2.7465,-2.7554,-2.7672,-2.7748,-2.7789,-2.7954,-2.8056,-2.8126,-2.82,-2.82,-2.8196,-2.8196,-2.8196,-2.8196,-2.8196,-2.8196,-2.8196,-2.8196,-2.8196,-2.8196,-2.8196,-2.8196,-2.8196,-2.8196,-2.8196,-2.8196,-2.8017,-2.7335,-2.6461,-2.5818,-2.5176,-2.4397,-2.3791,-2.3612,-2.3517,-2.3528,-2.3544,-2.3544,-2.3573,-2.3573,-2.3573,-2.3573,-2.3573,-2.3562,-2.3551,-2.3517,-2.3517,-2.3517,-2.3517,-2.3505,-4.1517,-4.1692,-4.1349,-4.127,-4.1176,-3.9586,-3.8789,-3.8489,-3.6995,-3.6301,-3.6284,-3.6284,-3.6284,-3.6284,-3.6284,-3.6284,-3.6284,-3.6284,-3.6284,-3.6284,-3.6284,-3.618,-3.5887,-3.5439,-3.4404,-3.3093,-3.2679,-3.2283,-3.1886,-3.1817,-3.18,-3.18,-3.18,-3.18,-3.18,-3.18,-3.18,-3.1765,-3.1593,-3.1455,-3.1386,-3.0696,-3.0196,-2.9955,-2.9472,-2.8799,-2.8092,-2.7558,-2.7332,-2.7315,-2.7315,-2.7315,-2.7315,-2.7315,-2.7315,-2.7315,-2.7315,-2.7315,-2.7315,-2.7332,-2.7349,-2.7315,-2.7348,-2.7345,-2.7393,-2.7475,-2.7519,-2.7589,-2.7659,-2.7745,-2.7806,-2.794,-2.8056,-2.8144,-2.8186,-2.8196,-2.8196,-2.8196,-2.8196,-2.8196,-2.8196,-2.8196,-2.8196,-2.8196,-2.8196,-2.8196,-2.8196,-2.8196,-2.8196,-2.8196,-2.8196,-2.8142,-2.746,-2.6973,-2.6389,-2.5747,-2.4998,-2.4254,-2.3862,-2.3523,-2.3505,-2.3505,-2.3505,-2.3505,-2.3505,-2.3505,-2.3505,-2.3505,-2.3505,-2.3505,-2.3505,-2.3505,-2.3505,-2.3505,-2.3505,-4.1719,-4.1675,-4.1403,-4.1244,-4.0961,-3.9408,-3.8679,-3.8375,-3.6973,-3.6284,-3.6284,-3.6284,-3.6284,-3.6284,-3.6284,-3.6284,-3.6284,-3.6284,-3.6284,-3.6284,-3.6284,-3.6284,-3.6197,-3.5542,-3.4766,-3.3869,-3.3473,-3.2955,-3.2231,-3.2196,-3.2093,-3.1852,-3.18,-3.18,-3.18,-3.18,-3.18,-3.18,-3.18,-3.18,-3.1696,-3.1334,-3.0972,-3.0679,-3.0196,-2.9592,-2.8851,-2.8351,-2.7851,-2.742,-2.7315,-2.7315,-2.7315,-2.7315,-2.7402,-2.7661,-2.7713,-2.773,-2.7696,-2.7763,-2.7696,-2.7696,-2.7696,-2.7884,-2.8089,-2.8174,-2.8136,-2.7919,-2.7962,-2.7882,-2.7697,-2.7777,-2.7893,-2.7936,-2.8085,-2.8168,-2.8182,-2.8196,-2.8196,-2.8196,-2.8196,-2.8196,-2.8196,-2.8196,-2.8196,-2.8196,-2.8196,-2.8196,-2.8196,-2.8196,-2.8196,-2.816,-2.7857,-2.7406,-2.6978,-2.6318,-2.5586,-2.4855,-2.4183,-2.3773,-2.3505,-2.3505,-2.3505,-2.3505,-2.3505,-2.3505,-2.3505,-2.3505,-2.3505,-2.3505,-2.3505,-2.3505,-2.3505,-2.3505,-2.3505,-4.138,-4.1358,-4.1186,-4.1041,-4.0776,-3.9266,-3.8548,-3.8249,-3.6939,-3.6284,-3.6284,-3.6284,-3.6284,-3.6284,-3.6284,-3.6284,-3.6284,-3.6284,-3.6284,-3.6284,-3.6284,-3.6284,-3.618,-3.5663,-3.5232,-3.4921,-3.4424,-3.3731,-3.3007,-3.2972,-3.2593,-3.2024,-3.1972,-3.1834,-3.1817,-3.18,-3.18,-3.18,-3.18,-3.18,-3.18,-3.1765,-3.1472,-3.0869,-3.0783,-3.0386,-2.9696,-2.9368,-2.8747,-2.7661,-2.7625,-2.7644,-2.7489,-2.7453,-2.7885,-2.842,-2.8454,-2.8472,-2.8454,-2.8454,-2.8454,-2.8454,-2.8489,-2.8713,-2.9179,-2.9213,-2.904,-2.8605,-2.8568,-2.8357,-2.7914,-2.7929,-2.7985,-2.7836,-2.8039,-2.8112,-2.8182,-2.8182,-2.8196,-2.8196,-2.8196,-2.8196,-2.8196,-2.8196,-2.8196,-2.8196,-2.8196,-2.8196,-2.8196,-2.8196,-2.8196,-2.8124,-2.8035,-2.7839,-2.7424,-2.6884,-2.6193,-2.5765,-2.4968,-2.4343,-2.3755,-2.363,-2.3505,-2.3505,-2.3505,-2.3505,-2.3505,-2.3505,-2.3505,-2.3505,-2.3505,-2.3505,-2.3505,-2.3505,-2.3505,-4.1082,-4.1163,-4.1006,-4.0607,-3.9986,-3.8996,-3.8267,-3.7719,-3.6749,-3.6284,-3.6284,-3.6284,-3.6284,-3.6284,-3.6284,-3.6284,-3.6284,-3.6284,-3.6284,-3.6284,-3.6284,-3.6284,-3.6284,-3.6094,-3.5697,-3.5249,-3.5007,-3.4527,-3.3818,-3.3785,-3.3369,-3.2645,-3.2559,-3.23,-3.1903,-3.1817,-3.18,-3.18,-3.18,-3.18,-3.18,-3.18,-3.1714,-3.1558,-3.1489,-3.111,-3.0403,-2.9817,-2.9386,-2.8989,-2.892,-2.892,-2.8834,-2.8834,-2.892,-2.9144,-2.9213,-2.9196,-2.9213,-2.9213,-2.923,-2.9213,-2.923,-2.9299,-2.9472,-2.9523,-2.9403,-2.9247,-2.9281,-2.921,-2.9069,-2.9098,-2.9,-2.8614,-2.8332,-2.8152,-2.8144,-2.8168,-2.8196,-2.8196,-2.8196,-2.8196,-2.8196,-2.8196,-2.8196,-2.8196,-2.8196,-2.8196,-2.8196,-2.8196,-2.8196,-2.8196,-2.8142,-2.8071,-2.7835,-2.7299,-2.6884,-2.6616,-2.5943,-2.5146,-2.4468,-2.3915,-2.3701,-2.3505,-2.3505,-2.3505,-2.3505,-2.3505,-2.3505,-2.3505,-2.3505,-2.3505,-2.3505,-2.3505,-2.3505,-4.0864,-4.0929,-4.0912,-4.0446,-3.9646,-3.8905,-3.8163,-3.7461,-3.6663,-3.6284,-3.6284,-3.6284,-3.6284,-3.6284,-3.6284,-3.6284,-3.6284,-3.6284,-3.6284,-3.6284,-3.6284,-3.6284,-3.6284,-3.6284,-3.6059,-3.5714,-3.5645,-3.5232,-3.4663,-3.4579,-3.4111,-3.3438,-3.3059,-3.2662,-3.2317,-3.1921,-3.18,-3.18,-3.18,-3.18,-3.18,-3.18,-3.18,-3.18,-3.18,-3.1541,-3.111,-3.0713,-3.0213,-2.9696,-2.9506,-2.9506,-2.9506,-2.9506,-2.9644,-2.9937,-3.0006,-2.9989,-3.0006,-3.0006,-3.0006,-3.0006,-3.0006,-3.0179,-3.042,-3.0472,-3.042,-3.0058,-3.0058,-2.9886,-2.9626,-2.9642,-2.9567,-2.929,-2.879,-2.8357,-2.8138,-2.814,-2.8168,-2.8182,-2.8196,-2.8196,-2.8196,-2.8196,-2.8196,-2.8196,-2.8196,-2.8196,-2.8196,-2.8196,-2.8196,-2.8196,-2.8196,-2.8142,-2.8106,-2.7727,-2.7531,-2.7281,-2.6817,-2.6032,-2.5122,-2.4373,-2.3933,-2.3701,-2.3594,-2.3505,-2.3505,-2.3505,-2.3505,-2.3505,-2.3505,-2.3523,-2.3541,-2.3666,-2.3648,-4.069,-4.0714,-4.084,-4.0371,-3.9526,-3.887,-3.8099,-3.7305,-3.6594,-3.6284,-3.6284,-3.6284,-3.6284,-3.6284,-3.6284,-3.6284,-3.6284,-3.6284,-3.6284,-3.6284,-3.6284,-3.6284,-3.6284,-3.6284,-3.6249,-3.618,-3.6266,-3.5887,-3.5439,-3.5318,-3.4924,-3.4286,-3.3542,-3.3059,-3.2766,-3.2248,-3.1921,-3.1817,-3.18,-3.18,-3.18,-3.18,-3.18,-3.18,-3.18,-3.1783,-3.1714,-3.1593,-3.1145,-2.9834,-2.9748,-2.9886,-2.9851,-2.9799,-3.0093,-3.0644,-3.08,-3.0782,-3.0817,-3.0817,-3.0817,-3.0817,-3.08,-3.1058,-3.1455,-3.1524,-3.1352,-3.0834,-3.08,-3.0524,-3.0127,-2.992,-2.9987,-2.9946,-2.9448,-2.8951,-2.8425,-2.8191,-2.8126,-2.82,-2.8196,-2.8196,-2.8196,-2.8196,-2.8196,-2.8196,-2.8196,-2.8196,-2.8196,-2.8196,-2.8196,-2.8196,-2.8196,-2.8196,-2.8196,-2.8142,-2.8071,-2.7928,-2.7513,-2.6782,-2.5711,-2.4944,-2.4361,-2.4005,-2.3773,-2.3612,-2.3505,-2.3505,-2.3559,-2.3505,-2.3505,-2.3577,-2.3666,-2.3898,-2.3969,-4.0519,-4.0714,-4.0738,-4.0001,-3.8922,-3.8629,-3.7801,-3.6577,-3.6387,-3.6284,-3.6284,-3.6284,-3.6284,-3.6284,-3.6284,-3.6284,-3.6284,-3.6284,-3.6284,-3.6284,-3.6284,-3.6284,-3.6284,-3.6284,-3.6284,-3.6284,-3.6284,-3.618,-3.6025,-3.5904,-3.5697,-3.5007,-3.4611,-3.4093,-3.3059,-3.2783,-3.2352,-3.1921,-3.1817,-3.18,-3.18,-3.18,-3.18,-3.18,-3.18,-3.18,-3.18,-3.18,-3.1627,-3.1386,-3.1231,-3.111,-3.1127,-3.1179,-3.1265,-3.1386,-3.1507,-3.1524,-3.1541,-3.1489,-3.1558,-3.1489,-3.1472,-3.1627,-3.1731,-3.18,-3.1731,-3.1558,-3.1577,-3.1369,-3.118,-3.1321,-3.1063,-3.0716,-3.0522,-3.0268,-2.9624,-2.8697,-2.8241,-2.8221,-2.8231,-2.8196,-2.8196,-2.8196,-2.8196,-2.8196,-2.8196,-2.8196,-2.8196,-2.8196,-2.8196,-2.8196,-2.8196,-2.8196,-2.8196,-2.8196,-2.8196,-2.8196,-2.7892,-2.7638,-2.655,-2.5604,-2.5051,-2.445,-2.3898,-2.3791,-2.3844,-2.3773,-2.388,-2.3701,-2.3648,-2.3987,-2.4272,-2.4343,-2.4486,-3.9347,-3.9491,-3.9585,-3.8975,-3.8097,-3.802,-3.7409,-3.6439,-3.6284,-3.6284,-3.6284,-3.6284,-3.6284,-3.6284,-3.6284,-3.6284,-3.6284,-3.6284,-3.6284,-3.6284,-3.6284,-3.6284,-3.6284,-3.6284,-3.6284,-3.6284,-3.6284,-3.6284,-3.6284,-3.6266,-3.6077,-3.5697,-3.5387,-3.48,-3.3886,-3.33,-3.2731,-3.2334,-3.1955,-3.18,-3.18,-3.18,-3.18,-3.18,-3.18,-3.18,-3.18,-3.18,-3.18,-3.18,-3.18,-3.18,-3.18,-3.18,-3.18,-3.18,-3.18,-3.18,-3.18,-3.18,-3.1783,-3.18,-3.18,-3.18,-3.18,-3.18,-3.18,-3.18,-3.1783,-3.1783,-3.18,-3.1802,-3.1579,-3.1409,-3.1116,-3.0852,-3.0425,-2.9382,-2.8603,-2.8571,-2.8417,-2.8271,-2.8196,-2.8196,-2.8196,-2.8196,-2.8196,-2.8196,-2.8196,-2.8196,-2.8196,-2.8196,-2.8196,-2.8196,-2.8196,-2.8196,-2.8196,-2.8196,-2.8124,-2.7964,-2.75,-2.6603,-2.5765,-2.5212,-2.4712,-2.4462,-2.4462,-2.4355,-2.4308,-2.4302,-2.4427,-2.4748,-2.4998,-2.514,-2.5253,-3.8078,-3.8125,-3.83,-3.7928,-3.7394,-3.7447,-3.7042,-3.6353,-3.6284,-3.6284,-3.6284,-3.6284,-3.6284,-3.6284,-3.6284,-3.6284,-3.6284,-3.6284,-3.6284,-3.6284,-3.6284,-3.6284,-3.6284,-3.6284,-3.6284,-3.6284,-3.6284,-3.6284,-3.6284,-3.6284,-3.6249,-3.6163,-3.5714,-3.5249,-3.4852,-3.4024,-3.3179,-3.28,-3.2317,-3.1921,-3.1817,-3.18,-3.18,-3.18,-3.18,-3.18,-3.18,-3.18,-3.18,-3.18,-3.18,-3.18,-3.18,-3.18,-3.18,-3.18,-3.18,-3.18,-3.18,-3.18,-3.18,-3.18,-3.18,-3.18,-3.18,-3.18,-3.18,-3.18,-3.18,-3.18,-3.18,-3.1818,-3.182,-3.1719,-3.1341,-3.1202,-3.1058,-3.0184,-2.9602,-2.9065,-2.8813,-2.8606,-2.8338,-2.8196,-2.8196,-2.8196,-2.8196,-2.8196,-2.8196,-2.8196,-2.8196,-2.8196,-2.8196,-2.8196,-2.8196,-2.8196,-2.8196,-2.8196,-2.8196,-2.816,-2.8106,-2.7536,-2.671,-2.6139,-2.5693,-2.5372,-2.5158,-2.514,-2.5087,-2.5033,-2.5158,-2.5408,-2.5676,-2.5943,-2.6091,-3.8001,-3.8084,-3.8148,-3.7826,-3.7332,-3.7308,-3.6926,-3.637,-3.6284,-3.6284,-3.6284,-3.6284,-3.6284,-3.6284,-3.6284,-3.6284,-3.6284,-3.6284,-3.6284,-3.6284,-3.6284,-3.6284,-3.6284,-3.6284,-3.6284,-3.6284,-3.6284,-3.6284,-3.6284,-3.6284,-3.6284,-3.6266,-3.6128,-3.5818,-3.5352,-3.4818,-3.4042,-3.33,-3.2869,-3.2507,-3.2145,-3.1919,-3.1902,-3.1885,-3.1815,-3.1763,-3.1781,-3.18,-3.18,-3.18,-3.18,-3.18,-3.18,-3.18,-3.18,-3.18,-3.18,-3.18,-3.18,-3.18,-3.18,-3.18,-3.18,-3.18,-3.18,-3.18,-3.18,-3.18,-3.18,-3.18,-3.18,-3.18,-3.18,-3.1786,-3.1772,-3.1706,-3.169,-3.125,-3.0341,-2.9647,-2.9304,-2.8959,-2.8641,-2.8338,-2.8196,-2.8196,-2.8196,-2.8196,-2.8196,-2.8196,-2.8196,-2.8196,-2.8196,-2.8196,-2.8196,-2.8196,-2.8196,-2.8196,-2.8196,-2.8196,-2.816,-2.816,-2.7678,-2.7014,-2.6425,-2.5979,-2.5872,-2.5908,-2.5841,-2.5758,-2.5895,-2.6073,-2.6404,-2.6783,-2.7081,-3.6745,-3.6797,-3.6882,-3.6769,-3.6556,-3.6693,-3.6552,-3.6289,-3.628,-3.6284,-3.6284,-3.6284,-3.6284,-3.6284,-3.6284,-3.6284,-3.6284,-3.6284,-3.6284,-3.6284,-3.6284,-3.6284,-3.6284,-3.6284,-3.6284,-3.6284,-3.6284,-3.6284,-3.6284,-3.6284,-3.6284,-3.6284,-3.6284,-3.6094,-3.5732,-3.5318,-3.4835,-3.4059,-3.3697,-3.3335,-3.2921,-3.259,-3.2328,-3.2223,-3.1876,-3.1668,-3.1651,-3.169,-3.169,-3.1709,-3.1763,-3.18,-3.1816,-3.1797,-3.1762,-3.1833,-3.1817,-3.18,-3.18,-3.18,-3.18,-3.18,-3.18,-3.18,-3.18,-3.18,-3.1781,-3.18,-3.18,-3.18,-3.18,-3.18,-3.18,-3.1818,-3.1857,-3.193,-3.195,-3.1864,-3.1192,-3.0243,-2.9674,-2.9283,-2.8959,-2.8641,-2.8303,-2.8196,-2.8196,-2.8196,-2.8196,-2.8196,-2.8196,-2.8196,-2.8196,-2.8196,-2.8196,-2.8196,-2.8196,-2.8196,-2.8196,-2.8196,-2.8196,-2.8178,-2.8088,-2.7714,-2.7179,-2.6697,-2.6715,-2.6787,-2.6649,-2.6551,-2.6823,-2.7077,-2.7317,-2.7619,-2.7743,-3.5616,-3.5622,-3.5728,-3.5773,-3.5839,-3.6014,-3.6178,-3.6208,-3.6255,-3.6259,-3.628,-3.628,-3.628,-3.628,-3.6284,-3.6284,-3.6284,-3.6284,-3.6284,-3.6284,-3.6284,-3.6284,-3.6284,-3.6284,-3.6284,-3.6284,-3.6284,-3.6284,-3.6284,-3.6284,-3.6284,-3.6284,-3.6284,-3.6284,-3.6111,-3.5749,-3.5421,-3.5025,-3.468,-3.432,-3.3953,-3.3427,-3.2987,-3.2951,-3.2271,-3.1991,-3.2093,-3.2134,-3.2194,-3.2252,-3.2276,-3.2316,-3.2264,-3.2154,-3.2118,-3.214,-3.1934,-3.178,-3.1763,-3.1763,-3.1763,-3.18,-3.18,-3.1781,-3.1744,-3.1726,-3.1707,-3.1744,-3.1746,-3.1763,-3.1744,-3.1764,-3.1781,-3.1763,-3.1784,-3.184,-3.193,-3.1933,-3.1934,-3.1068,-3.0205,-2.9618,-2.9294,-2.8641,-2.8249,-2.8196,-2.8196,-2.8196,-2.8196,-2.8196,-2.8196,-2.8196,-2.8196,-2.8196,-2.8196,-2.8196,-2.8196,-2.8196,-2.8196,-2.8196,-2.8196,-2.8196,-2.8106,-2.8021,-2.7999,-2.7607,-2.766,-2.7594,-2.7406,-2.7419,-2.7783,-2.7865,-2.7734,-2.7706,-2.7766,-3.5616,-3.5616,-3.5622,-3.5706,-3.5812,-3.5839,-3.5988,-3.6165,-3.6204,-3.6208,-3.6208,-3.6208,-3.6208,-3.6229,-3.6276,-3.6301,-3.6284,-3.6284,-3.6284,-3.6284,-3.6284,-3.6284,-3.6284,-3.6284,-3.6284,-3.6284,-3.6284,-3.6284,-3.6284,-3.6284,-3.6284,-3.6284,-3.6284,-3.6284,-3.6249,-3.6094,-3.5835,-3.5318,-3.5111,-3.4763,-3.4263,-3.3922,-3.3702,-3.355,-3.3278,-3.3039,-3.2951,-3.2978,-3.3148,-3.3394,-3.3522,-3.3687,-3.3781,-3.3702,-3.3645,-3.3247,-3.2503,-3.1557,-3.1701,-3.1651,-3.1774,-3.1865,-3.1866,-3.1744,-3.1737,-3.161,-3.1555,-3.1555,-3.1578,-3.1653,-3.1671,-3.1727,-3.1709,-3.1671,-3.1654,-3.171,-3.1783,-3.1856,-3.1863,-3.1794,-3.0892,-3.0145,-2.9635,-2.8863,-2.8196,-2.8196,-2.8196,-2.8196,-2.8196,-2.8196,-2.8196,-2.8196,-2.8196,-2.8196,-2.8196,-2.8196,-2.8182,-2.8182,-2.8168,-2.8168,-2.8154,-2.814,-2.8168,-2.8132,-2.8168,-2.8168,-2.7976,-2.7895,-2.8006,-2.7954,-2.7869,-2.7844,-2.7815,-2.7789,-2.7719,-3.5616,-3.5616,-3.5616,-3.5622,-3.5689,-3.5773,-3.5861,-3.5988,-3.6075,-3.6079,-3.6079,-3.6101,-3.6122,-3.6204,-3.6229,-3.6259,-3.6284,-3.6284,-3.6284,-3.6284,-3.6284,-3.6284,-3.6284,-3.6284,-3.6284,-3.6284,-3.6284,-3.6284,-3.6284,-3.6284,-3.6284,-3.6284,-3.6284,-3.6284,-3.6284,-3.6284,-3.6086,-3.5838,-3.5671,-3.5475,-3.5128,-3.4651,-3.429,-3.4147,-3.3647,-3.3406,-3.3351,-3.3389,-3.3494,-3.3656,-3.3758,-3.3862,-3.3862,-3.3785,-3.3724,-3.3529,-3.2951,-3.2414,-3.2183,-3.1812,-3.1901,-3.216,-3.2248,-3.2207,-3.201,-3.1696,-3.1455,-3.1406,-3.1408,-3.15,-3.1627,-3.1615,-3.1632,-3.1614,-3.1591,-3.1559,-3.1615,-3.1671,-3.1697,-3.1672,-3.1567,-3.0783,-3.0085,-2.9546,-2.8756,-2.8196,-2.8196,-2.8196,-2.8196,-2.8196,-2.8196,-2.8196,-2.8196,-2.8196,-2.8196,-2.8196,-2.8154,-2.814,-2.8126,-2.8112,-2.8085,-2.8085,-2.8085,-2.8099,-2.8067,-2.8071,-2.8085,-2.8053,-2.7989,-2.7893,-2.7763,-2.7689,-2.7582,-2.7476,-2.7448,-3.5616,-3.5616,-3.5616,-3.5616,-3.5622,-3.5689,-3.5773,-3.5817,-3.5888,-3.5954,-3.5971,-3.5954,-3.6019,-3.6144,-3.6165,-3.6233,-3.6284,-3.6284,-3.6284,-3.6284,-3.6284,-3.6284,-3.6284,-3.6284,-3.6284,-3.6284,-3.6284,-3.6284,-3.6284,-3.6284,-3.6284,-3.6284,-3.6284,-3.6284,-3.6301,-3.6259,-3.6161,-3.6011,-3.589,-3.583,-3.5645,-3.5166,-3.4871,-3.4536,-3.4046,-3.36,-3.3578,-3.3711,-3.3837,-3.413,-3.4329,-3.4486,-3.4493,-3.4486,-3.438,-3.4164,-3.3714,-3.3305,-3.2944,-3.2601,-3.2392,-3.2599,-3.2801,-3.2764,-3.2615,-3.2049,-3.1735,-3.1901,-3.1984,-3.2032,-3.1993,-3.1976,-3.1912,-3.1807,-3.1615,-3.1528,-3.144,-3.1481,-3.1578,-3.1646,-3.1515,-3.1217,-3.064,-3.0275,-2.9525,-2.8485,-2.8196,-2.8196,-2.8182,-2.8182,-2.8182,-2.8182,-2.8182,-2.8182,-2.8154,-2.8154,-2.8109,-2.8053,-2.8042,-2.7982,-2.7925,-2.7925,-2.7908,-2.7922,-2.794,-2.794,-2.7925,-2.794,-2.794,-2.778,-2.7617,-2.7417,-2.7308,-2.7198,-2.7198,-3.5616,-3.5616,-3.5616,-3.5616,-3.5616,-3.5639,-3.5667,-3.5773,-3.5817,-3.58,-3.5817,-3.5817,-3.5888,-3.6036,-3.6144,-3.6229,-3.6284,-3.6284,-3.6284,-3.6284,-3.6284,-3.6284,-3.6284,-3.6284,-3.6284,-3.6284,-3.6284,-3.6284,-3.6284,-3.6284,-3.6284,-3.6284,-3.6284,-3.6284,-3.6259,-3.6191,-3.6019,-3.5883,-3.5773,-3.5706,-3.56,-3.5352,-3.5221,-3.5124,-3.4922,-3.4828,-3.4905,-3.4692,-3.4724,-3.5049,-3.5148,-3.5259,-3.5261,-3.5256,-3.5147,-3.4908,-3.4438,-3.4108,-3.3805,-3.3334,-3.3296,-3.3354,-3.3367,-3.3301,-3.3204,-3.3021,-3.2852,-3.2667,-3.261,-3.2891,-3.2893,-3.2859,-3.2491,-3.2114,-3.1786,-3.1455,-3.1331,-3.123,-3.1349,-3.1542,-3.1472,-3.1237,-3.1076,-3.0674,-2.9861,-2.882,-2.8217,-2.8196,-2.8182,-2.8168,-2.8168,-2.8168,-2.8182,-2.8154,-2.8095,-2.8053,-2.7996,-2.7911,-2.7853,-2.7777,-2.7701,-2.7716,-2.7733,-2.7763,-2.7763,-2.7763,-2.7733,-2.7689,-2.763,-2.7572,-2.7419,-2.7182,-2.7071,-2.699,-2.6989,-3.5616,-3.5616,-3.5616,-3.5616,-3.5616,-3.5616,-3.5622,-3.5667,-3.5667,-3.5667,-3.5706,-3.5689,-3.58,-3.5975,-3.6041,-3.617,-3.628,-3.6284,-3.6284,-3.6284,-3.6284,-3.6284,-3.6284,-3.6284,-3.6284,-3.6301,-3.6284,-3.6284,-3.6284,-3.6301,-3.6284,-3.6284,-3.6284,-3.6284,-3.6237,-3.6062,-3.58,-3.5577,-3.5435,-3.5321,-3.5188,-3.5118,-3.5024,-3.4923,-3.4875,-3.4739,-3.4723,-3.4763,-3.493,-3.5158,-3.5321,-3.5458,-3.5571,-3.5554,-3.5464,-3.5321,-3.4821,-3.4638,-3.4336,-3.3785,-3.3395,-3.3871,-3.39,-3.3817,-3.3679,-3.3184,-3.2829,-3.2768,-3.2968,-3.3222,-3.311,-3.3014,-3.281,-3.2425,-3.1999,-3.1567,-3.1291,-3.1207,-3.1112,-3.1274,-3.1386,-3.1316,-3.1185,-3.1058,-3.0108,-2.9171,-2.8639,-2.8217,-2.8243,-2.8126,-2.8081,-2.8067,-2.8067,-2.8039,-2.7996,-2.7922,-2.7864,-2.7748,-2.763,-2.7554,-2.7461,-2.7491,-2.7509,-2.7554,-2.7569,-2.7539,-2.7494,-2.7384,-2.7338,-2.7308,-2.7117,-2.6891,-2.6792,-2.6759,-2.6825,-3.5616,-3.5616,-3.5616,-3.5616,-3.5616,-3.5616,-3.5616,-3.5616,-3.56,-3.5616,-3.5616,-3.5622,-3.5711,-3.5888,-3.5997,-3.6084,-3.6255,-3.628,-3.628,-3.6259,-3.6259,-3.6237,-3.6233,-3.6195,-3.6174,-3.6195,-3.6216,-3.6195,-3.6276,-3.6276,-3.6297,-3.628,-3.6284,-3.628,-3.6152,-3.5888,-3.5554,-3.5281,-3.5024,-3.4811,-3.4691,-3.4643,-3.4618,-3.4521,-3.4431,-3.4472,-3.4448,-3.4497,-3.4618,-3.4828,-3.5018,-3.5111,-3.5205,-3.5228,-3.5165,-3.5024,-3.4906,-3.4828,-3.4466,-3.4147,-3.3772,-3.4301,-3.4362,-3.423,-3.3948,-3.3548,-3.3446,-3.3301,-3.3321,-3.3326,-3.3484,-3.3572,-3.3506,-3.3182,-3.2244,-3.1728,-3.1405,-3.1217,-3.1053,-3.0998,-3.1138,-3.1319,-3.1229,-3.1098,-3.0564,-2.966,-2.9053,-2.8656,-2.8536,-2.833,-2.7965,-2.7936,-2.7908,-2.7893,-2.7882,-2.7763,-2.7644,-2.7494,-2.7371,-2.7279,-2.7231,-2.7247,-2.7263,-2.7294,-2.7294,-2.7294,-2.723,-2.7133,-2.7101,-2.7085,-2.6858,-2.6607,-2.6538,-2.6503,-2.6606,-3.5616,-3.5616,-3.5616,-3.5616,-3.5616,-3.5616,-3.5616,-3.5616,-3.5616,-3.5616,-3.5616,-3.5616,-3.5684,-3.5817,-3.5932,-3.6079,-3.617,-3.6237,-3.6237,-3.6212,-3.617,-3.6122,-3.6079,-3.6041,-3.6019,-3.598,-3.5997,-3.6041,-3.6182,-3.6144,-3.6208,-3.6276,-3.6259,-3.6233,-3.6144,-3.5689,-3.5258,-3.493,-3.4667,-3.4399,-3.4201,-3.4151,-3.4126,-3.4101,-3.405,-3.4101,-3.4176,-3.4159,-3.4325,-3.4594,-3.4683,-3.478,-3.4899,-3.5018,-3.4947,-3.4756,-3.4828,-3.4715,-3.4496,-3.4544,-3.4574,-3.466,-3.457,-3.4525,-3.4552,-3.4414,-3.4169,-3.3899,-3.4176,-3.4435,-3.4508,-3.4395,-3.4153,-3.3666,-3.273,-3.206,-3.1755,-3.13,-3.1154,-3.0861,-3.1058,-3.1283,-3.1213,-3.1091,-3.0801,-3.0226,-2.9538,-2.916,-2.8971,-2.8555,-2.8144,-2.7912,-2.7867,-2.7642,-2.76,-2.7557,-2.745,-2.7261,-2.7119,-2.7023,-2.6958,-2.6958,-2.6975,-2.7007,-2.7024,-2.704,-2.6974,-2.6874,-2.6825,-2.6758,-2.6573,-2.6365,-2.6293,-2.631,-2.6452,-3.5616,-3.5616,-3.5616,-3.5616,-3.5616,-3.5616,-3.5616,-3.5616,-3.5616,-3.5616,-3.5616,-3.5616,-3.5684,-3.5795,-3.5861,-3.5993,-3.6165,-3.6084,-3.6084,-3.6187,-3.614,-3.6062,-3.5975,-3.5905,-3.5861,-3.5822,-3.58,-3.5795,-3.5927,-3.5927,-3.6058,-3.617,-3.6148,-3.6088,-3.5932,-3.5577,-3.5158,-3.4763,-3.4333,-3.3975,-3.3736,-3.371,-3.371,-3.371,-3.372,-3.3797,-3.3899,-3.3848,-3.4,-3.4275,-3.4325,-3.4423,-3.4586,-3.4707,-3.4643,-3.4546,-3.457,-3.4423,-3.43,-3.4267,-3.4382,-3.4521,-3.4594,-3.4538,-3.4448,-3.4399,-3.4325,-3.43,-3.4374,-3.4472,-3.4374,-3.462,-3.4452,-3.3983,-3.3212,-3.265,-3.2195,-3.1629,-3.1255,-3.0842,-3.0797,-3.1081,-3.114,-3.1134,-3.0919,-3.0768,-3.0174,-2.9731,-2.9486,-2.8895,-2.8411,-2.8058,-2.7839,-2.7527,-2.7357,-2.745,-2.7286,-2.7022,-2.6875,-2.6775,-2.6725,-2.6691,-2.6708,-2.6759,-2.6759,-2.6759,-2.6708,-2.664,-2.6504,-2.64,-2.6313,-2.6277,-2.6257,-2.6292,-2.6381,-3.5616,-3.5616,-3.5616,-3.5616,-3.5616,-3.5616,-3.5616,-3.5616,-3.5616,-3.5616,-3.5616,-3.5616,-3.5644,-3.5728,-3.5795,-3.5861,-3.6058,-3.6058,-3.5954,-3.6058,-3.601,-3.5883,-3.5795,-3.5723,-3.5588,-3.5549,-3.5441,-3.5418,-3.5549,-3.5594,-3.5773,-3.5949,-3.5971,-3.591,-3.5734,-3.5373,-3.4947,-3.4521,-3.4059,-3.3642,-3.3424,-3.3335,-3.3282,-3.3293,-3.3346,-3.345,-3.3529,-3.3607,-3.3684,-3.3873,-3.4,-3.4092,-3.4226,-3.4325,-3.4349,-3.4325,-3.43,-3.4176,-3.4151,-3.4126,-3.4234,-3.4333,-3.4374,-3.4325,-3.425,-3.4226,-3.4201,-3.4176,-3.4201,-3.425,-3.4349,-3.4643,-3.4565,-3.4067,-3.3746,-3.315,-3.279,-3.2243,-3.1407,-3.0981,-3.0559,-3.0814,-3.1021,-3.1103,-3.1074,-3.0974,-3.083,-3.0403,-2.9954,-2.9315,-2.8815,-2.8542,-2.8235,-2.8012,-2.7722,-2.7519,-2.7265,-2.6809,-2.6708,-2.6673,-2.6521,-2.6486,-2.6486,-2.652,-2.6572,-2.6589,-2.6486,-2.6399,-2.643,-2.6378,-2.6276,-2.6239,-2.622,-2.639,-2.6578,-3.5616,-3.5616,-3.5616,-3.5616,-3.5616,-3.5616,-3.5616,-3.5616,-3.5616,-3.5616,-3.5616,-3.5616,-3.5639,-3.5644,-3.5751,-3.5817,-3.5839,-3.5927,-3.5888,-3.5839,-3.5795,-3.5678,-3.552,-3.536,-3.5205,-3.5065,-3.497,-3.493,-3.5065,-3.5211,-3.5458,-3.5723,-3.5728,-3.5667,-3.5441,-3.5118,-3.4715,-3.4325,-3.3822,-3.3424,-3.3192,-3.3005,-3.2962,-3.2962,-3.3032,-3.3123,-3.3229,-3.3309,-3.345,-3.3607,-3.371,-3.3787,-3.3899,-3.4025,-3.4075,-3.4126,-3.4126,-3.4101,-3.4101,-3.4101,-3.4101,-3.4159,-3.4151,-3.4101,-3.4126,-3.4126,-3.4126,-3.4101,-3.4126,-3.4201,-3.43,-3.4448,-3.4561,-3.4312,-3.4133,-3.3789,-3.3487,-3.2806,-3.183,-3.1182,-3.0617,-3.0588,-3.0671,-3.0797,-3.0942,-3.0923,-3.0828,-3.0793,-3.0322,-2.9744,-2.9315,-2.9159,-2.8884,-2.8645,-2.832,-2.7945,-2.7486,-2.7094,-2.6788,-2.6683,-2.6497,-2.6346,-2.6329,-2.6381,-2.645,-2.6483,-2.663,-2.6593,-2.6506,-2.6486,-2.6803,-2.662,-2.6717,-2.6901,-2.7123,-3.5616,-3.5616,-3.5616,-3.5616,-3.5616,-3.5616,-3.5616,-3.5616,-3.5616,-3.5616,-3.5616,-3.5616,-3.5616,-3.5622,-3.5644,-3.5728,-3.5751,-3.5773,-3.5756,-3.5711,-3.5656,-3.5498,-3.5274,-3.5041,-3.4851,-3.4643,-3.4497,-3.4399,-3.4554,-3.4771,-3.5095,-3.5389,-3.5412,-3.5344,-3.5142,-3.4851,-3.4546,-3.4176,-3.3642,-3.3282,-3.2962,-3.2773,-3.2718,-3.2718,-3.2816,-3.2908,-3.3005,-3.3032,-3.3176,-3.3346,-3.3398,-3.3503,-3.3745,-3.3873,-3.3975,-3.4075,-3.4101,-3.4101,-3.4101,-3.4101,-3.4075,-3.4075,-3.4101,-3.4101,-3.4101,-3.4101,-3.4101,-3.4101,-3.4101,-3.4151,-3.4201,-3.43,-3.4423,-3.4357,-3.4208,-3.4074,-3.3726,-3.3014,-3.2046,-3.115,-3.0604,-3.0276,-3.038,-3.051,-3.0675,-3.0695,-3.0747,-3.0793,-3.0695,-3.0129,-2.9843,-2.9721,-2.9447,-2.9158,-2.8779,-2.8401,-2.7893,-2.7435,-2.7196,-2.6909,-2.6658,-2.6507,-2.6305,-2.6308,-2.6461,-2.6726,-2.7022,-2.6984,-2.7031,-2.7564,-2.7864,-2.7481,-2.7265,-2.7514,-2.7748,-3.5616,-3.5616,-3.5616,-3.5616,-3.5616,-3.5616,-3.5616,-3.5616,-3.5616,-3.5616,-3.5616,-3.5616,-3.5616,-3.5616,-3.5639,-3.5661,-3.5706,-3.5684,-3.5644,-3.5594,-3.5498,-3.5251,-3.5018,-3.4691,-3.4423,-3.4201,-3.4,-3.3873,-3.4009,-3.4267,-3.4626,-3.4947,-3.5018,-3.4954,-3.4811,-3.457,-3.4275,-3.3899,-3.3503,-3.3096,-3.2812,-3.2605,-3.2551,-3.2551,-3.2691,-3.2718,-3.2773,-3.2773,-3.2908,-3.3123,-3.3176,-3.3319,-3.3539,-3.3694,-3.3822,-3.3899,-3.3924,-3.3924,-3.3924,-3.4,-3.4,-3.405,-3.4075,-3.4101,-3.4101,-3.4101,-3.4101,-3.4101,-3.4101,-3.4101,-3.4126,-3.4176,-3.425,-3.4308,-3.426,-3.4252,-3.3704,-3.3085,-3.2173,-3.1154,-3.0591,-3.0196,-3.0146,-3.0295,-3.0422,-3.0526,-3.0589,-3.0662,-3.0704,-3.0535,-3.0373,-3.0323,-2.9978,-2.9654,-2.9273,-2.8934,-2.8496,-2.8127,-2.7871,-2.7551,-2.7066,-2.6785,-2.6702,-2.6602,-2.6536,-2.6917,-2.7381,-2.7663,-2.7845,-2.8343,-2.8641,-2.8343,-2.8194,-2.8406,-2.8644,-3.5616,-3.5616,-3.5616,-3.5616,-3.5616,-3.5616,-3.5616,-3.5616,-3.5616,-3.5616,-3.5616,-3.5616,-3.5616,-3.5594,-3.5577,-3.5571,-3.5571,-3.5532,-3.5481,-3.5452,-3.5314,-3.5065,-3.4691,-3.4374,-3.405,-3.3745,-3.3555,-3.345,-3.345,-3.3694,-3.4075,-3.4423,-3.4521,-3.4497,-3.4358,-3.425,-3.3924,-3.3503,-3.3187,-3.2881,-3.266,-3.248,-3.2398,-3.2425,-3.2453,-3.2496,-3.2551,-3.2605,-3.2691,-3.287,-3.3005,-3.3107,-3.3346,-3.3555,-3.3642,-3.372,-3.3771,-3.3771,-3.3771,-3.3848,-3.3899,-3.3949,-3.3984,-3.405,-3.4075,-3.4101,-3.4101,-3.4101,-3.4101,-3.4101,-3.4126,-3.4126,-3.4176,-3.4226,-3.4202,-3.4202,-3.3974,-3.3192,-3.2166,-3.1203,-3.0455,-3.0109,-3.0011,-3.0167,-3.0274,-3.0375,-3.0459,-3.0543,-3.0576,-3.0633,-3.064,-3.0664,-3.0369,-3.0012,-2.9859,-2.9536,-2.9201,-2.8862,-2.8594,-2.8262,-2.7812,-2.7464,-2.7149,-2.7182,-2.7247,-2.7412,-2.7779,-2.816,-2.8575,-2.8906,-2.9105,-2.9052,-2.9102,-2.9268,-2.94,-3.5616,-3.5616,-3.5616,-3.5616,-3.5616,-3.5616,-3.5616,-3.5616,-3.5616,-3.56,-3.56,-3.56,-3.5571,-3.5543,-3.5498,-3.5475,-3.5389,-3.5367,-3.5297,-3.5158,-3.5058,-3.4732,-3.4374,-3.4025,-3.371,-3.3424,-3.3203,-3.3096,-3.3134,-3.3309,-3.3503,-3.3848,-3.3949,-3.3949,-3.3899,-3.3771,-3.3503,-3.3096,-3.2908,-3.273,-3.2578,-3.248,-3.2398,-3.2398,-3.2425,-3.2425,-3.2453,-3.2453,-3.2551,-3.2648,-3.2703,-3.292,-3.3282,-3.345,-3.3581,-3.3668,-3.3642,-3.3617,-3.3642,-3.3668,-3.3745,-3.3848,-3.3924,-3.4025,-3.4075,-3.4075,-3.4101,-3.4101,-3.4101,-3.4101,-3.4101,-3.4101,-3.4126,-3.4126,-3.4151,-3.4176,-3.4184,-3.3169,-3.2127,-3.1307,-3.0471,-3.013,-3.0016,-3.0011,-3.0119,-3.0248,-3.0359,-3.0443,-3.0506,-3.0539,-3.0543,-3.0563,-3.0559,-3.0319,-3.022,-3.0091,-2.9739,-2.9506,-2.9254,-2.8906,-2.8542,-2.8243,-2.7978,-2.8028,-2.8127,-2.8224,-2.8472,-2.8936,-2.9301,-2.9533,-2.9682,-2.9698,-2.9831,-2.9976,-3.0125,-3.5616,-3.5616,-3.5616,-3.5616,-3.5616,-3.5616,-3.5616,-3.56,-3.5571,-3.5549,-3.5549,-3.5549,-3.552,-3.5446,-3.54,-3.5291,-3.5182,-3.5152,-3.4994,-3.4851,-3.4643,-3.4325,-3.4,-3.3658,-3.3303,-3.3027,-3.2839,-3.2757,-3.2866,-3.292,-3.3081,-3.3372,-3.344,-3.3456,-3.3456,-3.3335,-3.3197,-3.28,-3.271,-3.2624,-3.257,-3.2468,-3.2398,-3.2398,-3.2398,-3.2398,-3.2398,-3.2398,-3.2453,-3.2523,-3.2578,-3.2773,-3.3043,-3.3176,-3.3256,-3.3293,-3.3319,-3.3356,-3.3424,-3.3503,-3.3607,-3.371,-3.3873,-3.3949,-3.4,-3.4025,-3.4101,-3.4101,-3.4101,-3.4101,-3.4101,-3.4101,-3.4101,-3.4101,-3.4126,-3.4126,-3.3761,-3.2983,-3.2277,-3.1741,-3.0843,-3.0005,-2.9946,-2.9973,-3.0081,-3.0189,-3.0316,-3.0438,-3.048,-3.0489,-3.0489,-3.0489,-3.0489,-3.0489,-3.0394,-3.0328,-3.0245,-3.0046,-2.9814,-2.9516,-2.9152,-2.8969,-2.882,-2.8704,-2.8721,-2.8936,-2.9214,-2.9562,-2.9877,-3.0092,-3.0257,-3.0373,-3.0489,-3.0468,-3.0414,-3.5554,-3.5554,-3.5571,-3.5571,-3.5554,-3.5571,-3.5554,-3.5532,-3.5498,-3.5446,-3.5423,-3.54,-3.54,-3.5291,-3.5152,-3.5041,-3.4923,-3.478,-3.4594,-3.4423,-3.4259,-3.3949,-3.3633,-3.3309,-3.3,-3.2742,-3.2523,-3.2523,-3.2605,-3.2633,-3.2757,-3.3005,-3.3137,-3.3184,-3.3199,-3.3298,-3.3349,-3.3156,-3.2971,-3.2712,-3.2592,-3.2428,-3.2413,-3.2398,-3.2398,-3.2398,-3.2398,-3.2398,-3.2398,-3.2453,-3.2523,-3.2676,-3.2843,-3.2951,-3.2978,-3.3005,-3.3032,-3.3058,-3.3112,-3.3229,-3.3361,-3.3519,-3.3736,-3.3848,-3.3899,-3.3975,-3.405,-3.4101,-3.4101,-3.4101,-3.4101,-3.4101,-3.4101,-3.4101,-3.4101,-3.4126,-3.3542,-3.2975,-3.2521,-3.2084,-3.1329,-3.0378,-3.0232,-3.0244,-3.025,-3.0347,-3.0373,-3.045,-3.0518,-3.0485,-3.0489,-3.0489,-3.0489,-3.0489,-3.0489,-3.0472,-3.0423,-3.0373,-3.0141,-2.9959,-2.9794,-2.9648,-2.9433,-2.9135,-2.9218,-2.9496,-2.9728,-3.0026,-3.0323,-3.0489,-3.0489,-3.0489,-3.0485,-3.0485,-3.0422,-3.536,-3.536,-3.536,-3.536,-3.536,-3.536,-3.536,-3.536,-3.5337,-3.5268,-3.5128,-3.4947,-3.4835,-3.4835,-3.4707,-3.4546,-3.4374,-3.4275,-3.4101,-3.3873,-3.3822,-3.3529,-3.324,-3.3016,-3.2757,-3.2551,-3.2425,-3.2425,-3.248,-3.2468,-3.2523,-3.2703,-3.341,-3.3566,-3.3659,-3.3833,-3.4102,-3.3836,-3.347,-3.3226,-3.2995,-3.2782,-3.2444,-3.2398,-3.2398,-3.2398,-3.2398,-3.2398,-3.2398,-3.2453,-3.2508,-3.2594,-3.2691,-3.2788,-3.2816,-3.2816,-3.2816,-3.287,-3.2951,-3.3016,-3.315,-3.3335,-3.3529,-3.3694,-3.3771,-3.3899,-3.3975,-3.4075,-3.4075,-3.4101,-3.4101,-3.4101,-3.4101,-3.4101,-3.4101,-3.4151,-3.3925,-3.3405,-3.2918,-3.2577,-3.2145,-3.1595,-3.1387,-3.1303,-3.1144,-3.1126,-3.091,-3.0925,-3.0513,-3.0485,-3.0489,-3.0489,-3.0489,-3.0489,-3.0489,-3.0489,-3.0472,-3.0489,-3.0472,-3.0257,-3.0191,-3.0323,-3.0108,-2.9728,-2.9843,-3.0158,-3.0373,-3.0323,-3.039,-3.0489,-3.0489,-3.0489,-3.0485,-3.0443,-3.038]},{"header":{"parameterUnit":"m.s-1","parameterCategory":1,"la1":31.0,"la2":29.5877,"lo1":-88.7671,"lo2":-86.6584,"dy":0.0162,"dx":0.0185,"nx":115,"ny":88,"refTime":"2026-03-06T00:00:00:Z","depth":0,"parameterNumber":3,"parameterNumberName":"V-component_of_WINDS"},"data":[0.0,0.0,0.0,0.0,0.0,0.0,0.0,0.0,0.0,0.0,0.0,0.0,0.0,0.0,0.0,0.0,0.0,0.0,0.0,0.0,0.0,0.0,0.0,0.0,0.0,0.0,0.0,0.0,0.0,0.0,0.0,0.0,0.0,0.0,0.0,0.0,0.0,0.0,0.0,0.0,0.0,0.0,0.0,0.0,0.0,0.0,0.0,0.0,0.0,0.0,0.0,0.0,0.0,0.0,0.0,0.0,0.0,0.0,0.0,0.0,0.0,0.0,0.0,0.0,0.0,0.0,0.0,0.0,0.0,0.0,0.0,0.0,0.0,0.0,0.0,0.0,0.0,0.0,0.0,0.0,0.0,0.0,0.0,0.0,0.0,0.0,0.0,0.0,0.0,0.0,0.0,0.0,0.0,0.0,0.0,0.0,0.0,0.0,0.0,0.0,0.0,0.0,0.0,0.0,0.0,0.0,0.0,0.0,0.0,0.0,0.0,0.0,0.0,0.0,0.0,0.0,0.0,0.0,0.0,0.0,0.0,0.0,0.0,0.0,0.0,0.0,0.0,0.0,0.0,0.0,0.0,0.0,0.0,0.0,0.0,0.0,0.0,0.0,0.0,0.0,0.0,0.0,0.0,0.0,0.0,0.0,0.0,0.0,0.0,0.0,0.0,0.0,0.0,0.0,0.0,0.0,0.0,0.0,0.0,0.0,0.0,0.0,0.0,0.0,0.0,0.0,0.0,0.0,0.0,0.0,0.0,0.0,0.0,0.0,0.0,0.0,0.0,0.0,0.0,0.0,0.0,0.0,0.0,0.0,0.0,0.0,0.0,0.0,0.0,0.0,0.0,0.0,0.0,0.0,0.0,0.0,0.0,0.0,0.0,0.0,0.0,0.0,0.0,0.0,0.0,0.0,0.0,0.0,0.0,0.0,0.0,0.0,0.0,0.0,0.0,0.0,0.0,0.0,0.0,0.0,0.0,0.0,0.0,0.0,0.0,0.0,0.0,0.0,0.0,0.0,0.0,0.0,0.0,0.0,0.0,0.0,0.0,0.0,0.0,0.0,0.0,0.0,0.0,0.0,0.0,0.0,0.0,0.0,0.0,0.0,0.0,0.0,0.0,0.0,0.0,0.0,0.0,0.0,0.0,0.0,0.0,0.0,0.0,0.0,0.0,0.0,0.0,0.0,0.0,0.0,0.0,0.0,0.0,0.0,0.0,0.0,0.0,0.0,0.0,0.0,0.0,0.0,0.0,0.0,0.0,0.0,0.0,0.0,0.0,0.0,0.0,0.0,0.0,0.0,0.0,0.0,0.0,0.0,0.0,0.0,0.0,0.0,0.0,0.0,0.0,0.0,0.0,0.0,0.0,0.0,0.0,0.0,0.0,0.0,0.0,0.0,0.0,0.0,0.0,0.0,0.0,0.0,0.0,0.0,0.0,0.0,0.0,0.0,0.0,0.0,0.0,0.0,0.0,0.0,0.0,0.0,0.0,0.0,0.0,0.0,0.0,0.0,0.0,0.0,0.0,0.0,0.0,0.0,0.0,0.0,0.0,0.0,0.0,0.0,0.0,0.0,0.0,0.0,0.0,0.0,0.0,0.0,0.0,0.0,0.0,0.0,0.0,0.0,0.0,0.0,0.0,0.0,0.0,0.0,0.0,0.0,0.0,0.0,0.0,0.0,0.0,0.0,0.0,0.0,0.0,0.0,0.0,0.0,0.0,0.0,0.0,0.0,0.0,0.0,0.0,0.0,0.0,0.0,0.0,0.0,0.0,0.0,0.0,0.0,0.0,0.0,0.0,0.0,0.0,0.0,0.0,0.0,0.0,0.0,0.0,0.0,0.0,0.0,0.0,0.0,0.0,0.0,0.0,0.0,0.0,0.0,0.0,0.0,0.0,0.0,0.0,0.0,0.0,0.0,0.0,0.0,0.0,0.0,0.0,0.0,0.0,0.0,0.0,0.0,0.0,0.0,0.0,0.0,0.0,0.0,0.0,0.0,0.0,0.0,0.0,0.0,0.0,0.0,0.0,0.0,0.0,0.0,0.0,0.0,0.0,0.0,0.0,0.0,0.0,0.0,0.0,0.0,0.0,0.0,0.0,0.0,0.0,0.0,0.0,0.0,0.0,0.0,0.0,0.0,0.0,0.0,0.0,0.0,0.0,0.0,0.0,0.0,0.0,0.0,0.0,0.0,0.0,0.0,0.0,0.0,0.0,0.0,0.0,0.0,0.0,0.0,0.0,0.0,0.0,0.0,0.0,0.0,0.0,0.0,0.0,0.0,0.0,0.0,0.0,0.0,0.0,0.0,0.0,0.0,0.0,0.0,0.0,0.0,0.0,0.0,0.0,0.0,0.0,0.0,0.0,0.0,0.0,0.0,0.0,0.0,0.0,0.0,0.0,0.0,0.0,0.0,0.0,0.0,0.0,0.0,0.0,0.0,0.0,0.0,0.0,0.0,0.0,0.0,0.0,0.0,0.0,0.0,0.0,0.0,0.0,0.0,0.0,0.0,0.0,0.0,0.0,0.0,0.0,0.0,0.0,0.0,0.0,0.0,0.0,0.0,0.0,0.0,0.0,0.0,0.0,0.0,0.0,0.0,0.0,0.0,0.0,0.0,0.0,0.0,0.0,0.0,0.0,0.0,0.0,0.0,0.0,0.0,0.0,0.0,0.0,0.0,0.0,0.0,0.0,0.0,0.0,0.0,0.0,0.0,0.0,0.0,0.0,0.0,0.0,0.0,0.0,0.0,0.0,0.0,0.0,0.0,0.0,0.0,0.0,0.0,0.0,0.0,0.0,0.0,0.0,0.0,0.0,0.0,0.0,0.0,0.0,0.0,0.0,0.0,0.0,0.0,0.0,0.0,0.0,0.0,0.0,0.0,0.0,0.0,0.0,0.0,0.0,0.0,0.0,0.0,0.0,0.0,0.0,0.0,0.0,0.0,0.0,0.0,0.0,0.0,0.0,0.0,0.0,0.0,0.0,0.0,0.0,0.0,0.0,0.0,0.0,0.0,0.0,0.0,0.0,0.0,0.0,0.0,0.0,0.0,0.0,0.0,0.0,0.0,0.0,0.0,0.0,0.0,0.0,0.0,0.0,0.0,0.0,0.0,0.0,0.0,0.0,0.0,0.0,0.0,0.0,0.0,0.0,0.0,0.0,0.0,0.0,0.0,0.0,0.0,0.0,0.0,0.0,0.0,0.0,0.0,0.0,0.0,0.0,0.0,0.0,0.0,0.0,0.0,0.0,0.0,0.0,0.0,0.0,0.0,0.0,0.0,0.0,0.0,0.0,0.0,0.0,0.0,0.0,0.0,0.0,0.0,0.0,0.0,0.0,0.0,0.0,0.0,0.0,0.0,0.0,0.0,0.0,0.0,0.0,0.0,0.0,0.0,0.0,0.0,0.0,0.0,0.0,0.0,0.0,0.0,0.0,0.0,0.0,0.0,0.0,0.0,0.0,0.0,0.0,0.0,0.0,0.0,0.0,0.0,0.0,0.0,0.0,0.0,0.0,0.0,0.0,0.0,0.0,0.0,0.0,0.0,0.0,0.0,0.0,0.0,0.0,0.0,0.0,0.0,0.0,0.0,0.0,0.0,0.0,0.0,0.0,0.0,0.0,0.0,0.0,0.0,0.0,0.0,0.0,0.0,0.0,0.0,0.0,0.0,0.0,0.0,0.0,0.0,0.0,0.0,0.0,0.0,0.0,0.0,0.0,0.0,0.0,0.0,0.0,0.0,0.0,0.0,0.0,0.0,0.0,0.0,0.0,0.0,0.0,0.0,0.0,0.0,0.0,0.0,0.0,0.0,0.0,0.0,0.0,0.0,0.0,0.0,0.0,0.0,0.0,0.0,0.0,0.0,0.0,0.0,0.0,0.0,0.0,0.0,0.0,0.0,0.0,0.0,0.0,0.0,0.0,0.0,0.0,0.0,0.0,0.0,0.0,0.0,0.0,0.0,0.0,0.0,0.0,0.0,0.0,0.0,0.0,0.0,0.0,0.0,0.0,0.0,0.0,0.0,0.0,0.0,0.0,0.0,0.0,0.0,0.0,0.0,0.0,0.0,0.0,0.0,0.0,0.0,0.0,0.0,0.0,0.0,0.0,0.0,0.0,0.0,0.0,0.0,0.0,0.0,0.0,0.0,0.0,0.0,0.0,0.0,0.0,0.0,0.0,0.0,0.0,0.0,0.0,0.0,0.0,0.0,0.0,0.0,0.0,0.0,0.0,0.0,0.0,0.0,0.0,0.0,0.0,0.0,0.0,0.0,0.4231,0.0,0.0,0.0,0.0,0.0,0.0,0.0,0.0,0.0,0.0,0.0,0.0,0.0,0.0,0.0,0.0,0.0,0.0,0.0,0.0,0.0,0.0,0.0,0.0,0.0,0.0,0.0,0.0,0.0,0.0,0.0,0.0,0.0,0.0,0.0,0.0,0.0,0.0,0.0,0.0,0.0,0.0,0.0,0.0,0.0,0.0,0.0,0.0,0.0,0.0,0.0,0.0,0.0,0.0,0.0,0.0,0.0,0.0,0.0,0.0,0.0,0.0,0.0,0.0,0.0,0.0,0.0,0.0,0.0,0.0,0.0,0.0,0.0,0.0,0.0,0.0,0.0,0.0,0.0,0.0,0.0,0.0,0.0,0.0,0.0,0.0,0.0,0.0,0.0,0.0,0.0,0.0,0.0,0.0,0.0,0.0,0.0,0.0,0.0,0.0,0.0,0.0,0.0,0.0,0.0,0.0,0.0,0.0,0.0,0.0,0.6277,0.5837,0.549,0.5084,0.462,0.0,0.0,0.0,0.0,0.0,0.0,0.0,0.0,0.0,0.0,0.0,0.0,0.0,0.0,0.0,0.0,0.0,0.0,0.0,0.0,0.0,0.0,0.0,0.0,0.0,0.0,0.0,0.0,0.0,0.0,0.0,0.0,0.0,0.0,0.0,0.0,0.0,0.0,0.0,0.0,0.0,0.0,0.0,0.0,0.0,0.0,0.0,0.0,0.0,0.0,0.0,0.0,0.0,0.0,0.0,0.0,0.0,0.0,0.0,0.0,0.0,0.0,0.0,0.0,0.0,0.0,0.0,0.0,0.0,0.0,0.0,0.0,0.0,0.0,0.0,0.0,0.0,0.0,0.0,0.0,0.0,0.0,0.0,0.0,0.0,0.0,0.0,0.0,0.0,0.0,0.0,0.0,0.0,0.0,0.0,0.0,0.0,0.0,0.0,0.0,0.0,0.0,0.0,0.0,0.0,0.0,0.0,0.0,0.0,0.0,0.0,0.0,0.5857,0.5375,0.4892,0.0,0.0,0.0,0.0,0.0,0.0,0.0,0.0,0.0,0.0,0.0,0.0,0.0,0.0,0.0,0.0,0.0,0.0,0.0,0.0,0.0,0.0,0.0,0.0,0.0,0.0,0.0,0.0,0.0,0.0,0.0,0.0,0.0,0.0,0.0,0.0,0.0,0.0,0.0,0.0,0.0,0.0,0.0,0.0,0.0,0.0,0.0,0.0,0.0,0.0,0.0,0.0,0.0,0.0,0.0,0.0,0.0,0.0,0.0,0.0,0.0,0.0,0.0,0.0,0.0,0.0,0.0,0.0,0.0,0.0,0.0,0.0,0.0,0.0,0.0,0.0,0.0,0.0,0.0,0.0,0.0,0.0,0.0,0.0,0.0,0.0,0.0,0.0,0.0,0.0,0.0,0.0,0.0,0.0,0.0,0.0,0.0,0.0,0.0,0.0,0.0,0.0,0.0,0.0,0.0,0.0,0.0,0.0,0.0,0.0,0.7237,0.6843,0.6369,0.0,0.4689,0.0,0.0,0.0,0.0,0.0,0.0,0.0,0.0,0.0,0.0,0.0,0.0,0.0,0.0,0.0,0.0,0.0,0.0,0.0,0.0,0.0,0.0,0.0,0.0,0.0,0.0,0.0,0.0,0.0,0.0,0.0,0.0,0.0,0.0,0.0,0.0,0.0,0.0,0.0,0.0,0.0,0.0,0.0,0.0,0.0,0.0,0.0,0.0,0.0,0.0,0.0,0.0,0.0,0.0,0.0,0.0,0.0,0.0,0.0,0.0,0.0,0.0,0.0,0.0,0.0,0.0,0.0,0.0,0.0,0.0,0.0,0.0,0.0,0.0,0.0,0.0,0.0,0.0,0.0,0.0,0.0,0.0,0.0,0.0,0.0,0.0,0.0,0.0,0.0,0.0,0.0,0.0,0.0,0.0,0.0,0.0,0.0,0.0,0.0,0.0,0.0,0.0,0.0,0.0,0.0,0.0,0.0,0.0,0.0,0.0,0.7466,0.7265,0.6545,0.5805,0.0,0.0,0.0,0.0,0.0,0.0,0.0,0.0,0.0,0.0,0.0,0.0,0.0,0.0,0.0,0.0,0.0,0.0,0.0,0.0,0.0,0.0,0.0,0.0,0.0,0.0,0.0,0.0,0.0,0.0,0.0,0.0,0.0,0.0,0.0,0.0,0.0,0.0,0.0,0.0,0.0,0.0,0.0,0.0,0.0,0.0,0.0,0.0,0.0,0.0,0.0,0.0,0.0,0.0,0.0,0.0,0.0,0.0,0.0,0.0,0.0,0.0,0.0,0.0,0.0,0.0,0.0,0.0,0.0,0.0,0.0,0.0,0.0,0.0,0.0,0.0,0.0,0.0,0.0,0.0,0.0,0.0,0.0,0.0,0.0,0.0,0.0,0.0,0.0,0.0,0.0,0.0,0.0,0.0,0.0,0.0,0.0,0.0,0.0,0.0,0.0,0.0,0.0,0.0,0.0,0.0,0.0,0.0,0.0,0.0,0.7747,0.7538,0.7395,0.6653,0.5999,0.5526,0.0,0.0,0.0,0.0,0.0,0.0,0.0,0.0,0.0,0.0,0.0,0.0,0.0,0.0,0.0,0.0,0.0,0.0,0.0,0.0,0.0,0.0,0.0,0.0,0.0,0.0,0.0,0.0,0.0,0.0,0.0,0.0,0.0,0.0,0.0,0.0,0.0,0.0,0.0,0.0,0.0,0.0,0.0,0.0,0.0,0.0,0.0,0.0,0.0,0.0,0.0,0.0,0.0,0.0,0.0,0.0,0.0,0.0,0.0,0.0,0.0,0.0,0.0,0.0,0.0,0.0,0.0,0.0,0.0,0.0,0.0,0.0,0.0,0.0,0.0,0.0,0.0,0.0,0.0,0.0,0.0,0.0,0.0,0.0,0.0,0.0,0.0,0.0,0.0,0.0,0.0,0.0,0.0,0.0,0.0,0.0,0.0,0.0,0.0,0.0,0.0,0.0,0.0,0.0,0.0,0.0,0.0,0.0,0.0,0.7653,0.7475,0.7209,0.6812,0.6329,0.0,0.0,0.0,0.0,0.0,0.0,0.0,0.0,0.0,0.0,0.0,0.0,0.0,0.0,0.0,0.0,0.0,0.0,0.0,0.0,0.0,0.0,0.0,0.0,0.0,0.0,0.0,0.0,0.0,0.0,0.0,0.0,0.0,0.0,0.0,0.0,0.0,0.0,0.0,0.0,0.0,0.0,0.0,0.0,0.0,0.0,0.0,0.0,0.0,0.0,0.0,0.0,0.0,0.0,0.0,0.0,0.0,0.0,0.0,0.0,0.0,0.0,0.0,0.0,0.0,0.0,0.0,0.0,0.0,0.0,0.0,0.0,0.0,0.0,0.0,0.0,0.0,0.0,0.0,0.0,0.0,0.0,0.0,0.0,0.0,0.0,0.0,0.0,0.0,0.0,0.0,0.0,0.0,0.0,0.0,0.0,0.0,0.0,0.0,0.0,0.0,0.0,0.0,0.0,0.0,0.0,0.0,0.0,0.0,0.7677,0.7586,0.7481,0.7393,0.6968,0.652,0.0,0.0,0.0,0.0,0.0,0.0,0.0,0.0,0.0,0.0,0.0,0.0,0.0,0.0,0.0,0.0,0.0,0.0,0.0,0.0,0.0,0.0,0.0,0.0,0.0,0.0,0.0,0.0,0.0,0.0,0.0,0.0,0.0,0.0,0.0,0.0,0.0,0.0,0.0,0.0,0.0,0.0,0.0,0.0,0.0,0.0,0.0,0.0,0.0,0.0,0.0,0.0,0.0,0.0,0.0,0.0,0.0,0.0,0.0,0.0,0.0,0.0,0.0,0.0,0.0,0.0,0.0,0.0,0.0,0.0,0.0,0.0,0.0,0.0,0.0,0.0,0.0,0.0,0.0,0.0,0.0,0.0,0.0,0.0,0.0,0.0,0.0,0.0,0.0,0.0,0.0,0.0,0.0,0.0,0.0,0.0,0.0,0.0,0.0,0.0,0.0,0.0,0.0,0.0,0.0,0.0,0.0,0.0,0.0,0.761,0.0,0.749,0.0,0.7131,0.671,0.0,0.0,0.0,0.0,0.0,0.0,0.0,0.0,0.0,0.0,0.0,0.0,0.0,0.0,0.0,0.0,0.0,0.0,0.0,0.0,0.0,0.0,0.0,0.0,0.0,0.0,0.0,0.0,0.0,0.0,0.0,0.0,0.0,0.0,0.0,0.0,0.0,0.0,0.0,0.0,0.0,0.0,0.0,0.0,0.0,0.0,0.0,0.0,0.0,0.0,0.0,0.0,0.0,0.0,0.0,0.0,0.0,0.0,0.0,0.0,0.0,0.0,0.0,0.0,0.0,0.0,0.0,0.0,0.0,0.0,0.0,0.0,0.0,0.0,0.0,0.0,0.0,0.0,0.0,0.0,0.0,0.0,0.0,0.0,0.0,0.0,0.0,0.0,0.0,0.0,0.0,0.0,0.0,0.0,0.0,0.0,0.0,0.0,0.0,0.0,0.0,0.0,0.0,0.0,0.0,0.0,0.0,0.0,0.7357,0.7412,0.7439,0.7493,0.7518,0.7328,0.6917,0.0,0.0,0.0,0.0,0.0,0.0,0.0,0.0,0.0,0.0,0.0,0.0,0.0,0.0,0.0,0.0,0.0,0.0,0.0,0.0,0.0,0.0,0.0,0.0,0.0,0.0,0.0,0.0,0.0,0.0,0.0,0.0,0.0,0.0,0.0,0.0,0.0,0.0,0.0,0.0,0.0,0.0,0.0,0.0,0.0,0.0,0.0,0.0,0.0,0.0,0.0,0.0,0.0,0.0,0.0,0.0,0.0,0.0,0.0,0.0,0.0,0.0,0.0,0.0,0.0,0.0,0.0,0.0,0.0,0.0,0.0,0.0,0.0,0.0,0.0,0.0,0.0,0.0,0.0,0.0,0.0,0.0,0.0,0.0,0.0,0.0,0.0,0.0,0.0,0.0,0.0,0.0,0.0,0.0,0.0,0.0,0.0,0.0,0.0,0.0,0.0,0.0,0.0,0.0,0.0,0.0,0.0,0.0,0.0,0.7948,0.8132,0.8201,0.8103,0.7881,0.741,0.0,0.0,0.0,0.0,0.0,0.0,0.0,0.0,0.0,0.0,0.0,0.0,0.0,0.0,0.0,0.0,0.0,0.0,0.0,0.0,0.0,0.0,0.0,0.0,0.0,0.0,0.0,0.0,0.0,0.0,0.0,0.0,0.0,0.0,0.0,0.0,0.0,0.0,0.0,0.0,0.0,0.0,0.0,0.0,0.0,0.0,0.0,0.0,0.0,0.0,0.0,0.0,0.0,0.0,0.0,0.0,0.0,0.0,0.0,0.0,0.0,0.0,0.0,0.0,0.0,0.0,0.0,0.0,0.0,0.0,0.0,0.0,0.0,0.0,0.0,0.0,0.0,0.0,0.0,0.0,0.0,0.0,0.0,0.0,0.0,0.0,0.0,0.0,0.0,0.0,0.0,0.0,0.0,0.0,0.0,0.0,0.0,0.0,0.0,0.0,0.0,0.0,0.0,0.0,0.0,0.0,0.0,0.0,0.0,0.9181,0.9022,0.8893,0.8811,0.848,0.8003,0.7366,0.0,0.0,0.0,0.0,0.0,0.0,0.0,0.0,0.0,0.0,0.0,0.0,0.0,0.0,0.0,0.0,0.0,0.0,0.0,0.0,0.0,0.0,0.0,0.0,0.0,0.0,0.0,0.0,0.0,0.0,0.0,0.0,0.0,0.0,0.0,0.0,0.0,0.0,0.0,0.0,0.0,0.0,0.0,0.0,0.0,0.0,0.0,0.0,0.0,0.0,0.0,0.0,0.0,0.0,0.0,0.0,0.0,0.0,0.0,0.0,0.0,0.0,0.0,0.0,0.0,0.0,0.0,0.0,0.0,0.0,0.0,0.0,0.0,0.0,0.0,0.0,0.0,0.0,0.0,0.0,0.0,0.0,0.0,0.0,0.0,0.0,0.0,0.0,0.0,0.0,0.0,0.0,0.0,0.0,0.0,0.0,0.0,0.0,0.0,0.0,0.0,0.0,0.0,0.0,0.0,0.0,0.0,0.0,1.0902,1.008,0.9652,0.9596,0.9108,0.8694,0.0,0.0,0.0,0.0,0.0,0.0,0.0,0.0,0.0,0.0,0.0,0.0,0.0,0.0,0.0,0.0,0.0,0.0,0.0,0.0,0.0,0.0,0.0,0.0,0.0,0.0,0.0,0.0,0.0,0.0,0.0,0.0,0.0,0.0,0.0,0.0,0.0,0.0,0.0,0.0,0.0,0.0,0.0,0.0,0.0,0.0,0.0,0.0,0.0,0.0,0.0,0.0,0.0,0.0,0.0,0.0,0.0,0.0,0.0,0.0,0.0,0.0,0.0,0.0,0.0,0.0,0.0,0.0,0.0,0.0,0.0,0.0,0.0,0.0,0.0,0.0,0.0,0.0,0.0,0.0,0.0,0.0,0.0,0.0,0.0,0.0,0.0,0.0,0.0,0.0,0.0,0.0,0.0,0.0,0.0,0.0,0.0,0.0,0.0,0.0,0.0,0.0,0.0,0.0,0.0,0.0,0.0,0.0,0.0,1.1233,1.1311,1.1132,1.0691,1.0003,0.9402,0.0,0.0,0.0,0.0,0.0,0.0,0.0,0.0,0.0,0.0,0.0,0.0,0.0,0.0,0.0,0.0,0.0,0.0,0.0,0.0,0.0,0.0,0.0,0.0,0.0,0.0,0.0,0.0,0.0,0.0,0.0,0.0,0.0,0.0,0.0,0.0,0.0,0.0,0.0,0.0,0.0,0.0,0.0,0.0,0.0,0.0,0.0,0.0,0.0,0.0,0.0,0.0,0.0,0.0,0.0,0.0,0.0,0.0,0.0,0.0,0.0,0.0,0.0,0.0,0.0,0.0,0.0,0.0,0.0,0.0,0.0,0.0,0.0,0.0,0.0,0.0,0.0,0.0,0.0,0.0,0.0,0.0,0.0,0.0,0.0,0.0,0.0,0.0,0.0,0.0,0.0,0.0,0.0,0.0,0.0,0.0,0.0,0.0,0.0,0.0,0.0,0.0,0.0,0.0,0.0,0.0,0.0,0.0,1.0899,1.1948,1.2079,1.1981,1.1678,1.0948,1.024,0.0,0.0,0.0,0.0,0.0,0.0,0.0,0.0,0.0,0.0,0.0,0.0,0.0,0.0,0.0,0.0,0.0,0.0,0.0,0.0,0.0,0.0,0.0,0.0,0.0,0.0,0.0,0.0,0.0,0.0,0.0,0.0,0.0,0.0,0.0,0.0,0.0,0.0,0.0,0.0,0.0,0.0,0.0,0.0,0.0,0.0,0.0,0.0,0.0,0.0,0.0,0.0,0.0,0.0,0.0,0.0,0.0,0.0,0.0,0.0,0.0,0.0,0.0,0.0,0.0,0.0,0.0,0.0,0.0,0.0,0.0,0.0,0.0,0.0,0.0,0.0,0.0,0.0,0.0,0.0,0.0,0.0,0.0,0.0,0.0,0.0,0.0,0.0,0.0,0.0,0.0,0.0,0.0,0.0,0.0,0.0,0.0,0.0,0.0,0.0,0.0,0.0,0.0,0.0,0.0,0.0,0.0,0.0,1.1322,1.274,1.2492,1.2379,1.2472,1.1786,1.1108,0.0,0.0,0.0,0.0,0.0,0.0,0.0,0.0,0.0,0.0,0.0,0.0,0.0,0.0,0.0,0.0,0.0,0.0,0.0,0.0,0.0,0.0,0.0,0.0,0.0,0.0,0.0,0.0,0.0,0.0,0.0,0.0,0.0,0.0,0.0,0.0,0.0,0.0,0.0,0.0,0.0,0.0,0.0,0.0,0.0,0.0,0.0,0.0,0.0,0.0,0.0,0.0,0.0,0.0,0.0,0.0,0.0,0.0,0.0,0.0,0.0,0.0,0.0,0.0,0.0,0.0,0.0,0.0,0.0,0.0,0.0,0.0,0.0,0.0,0.0,0.0,0.0,0.0,0.0,0.0,0.0,0.0,0.0,0.0,0.0,0.0,0.0,0.0,0.0,0.0,0.0,0.0,0.0,0.0,0.0,0.0,0.0,0.0,0.0,0.0,0.0,0.0,0.0,0.0,0.0,0.0,0.0,0.0,1.151,1.2525,1.2495,1.243,1.2342,1.1828,1.123,0.0,0.0,0.0,0.0,0.0,0.0,0.0,0.0,0.0,0.0,0.0,0.0,0.0,0.0,0.0,0.0,0.0,0.0,0.0,0.0,0.0,0.0,0.0,0.0,0.0,0.0,0.0,0.0,0.0,0.0,0.0,0.0,0.0,0.0,0.0,0.0,0.0,0.0,0.0,0.0,0.0,0.0,0.0,0.0,0.0,0.0,0.0,0.0,0.4125,0.0,0.0,0.0,0.0,0.0,0.0,0.0,0.0,0.0,0.0,0.0,0.0,0.0,0.0,0.0,0.0,0.0,0.0,0.0,0.0,0.0,0.0,0.0,0.0,0.0,0.0,0.0,0.0,0.0,0.0,0.0,0.0,0.0,0.0,0.0,0.0,0.0,0.0,0.0,0.0,0.0,0.0,0.0,0.0,0.0,0.0,0.0,0.0,0.0,0.0,0.0,0.0,0.0,0.0,0.0,0.0,0.0,0.0,0.0,1.1819,1.262,1.2618,1.2561,1.2392,1.2099,1.1499,0.0,0.0,0.0,0.0,0.0,0.0,0.0,0.0,0.0,0.0,0.0,0.0,0.0,0.0,0.0,0.0,0.0,0.0,0.0,0.0,0.0,0.0,0.0,0.0,0.0,0.0,0.0,0.0,0.0,0.0,0.0,0.0,0.0,0.0,0.0,0.0,0.0,0.0,0.0,0.0,0.0,0.0,0.0,0.0,0.0,0.0,0.0,0.0,0.0,0.0,0.0,0.0,0.0,0.0,0.0,0.0,0.0,0.0,0.0,0.0,0.0,0.0,0.0,0.0,0.0,0.0,0.0,0.0,0.0,0.0,0.0,0.0,0.0,0.0,0.0,0.0,0.0,0.0,0.0,0.0,0.0,0.0,0.0,0.0,0.0,0.0,0.0,0.0,0.0,0.0,0.0,0.0,0.0,0.0,0.0,0.0,0.0,0.0,0.0,0.0,0.0,0.0,0.0,0.0,0.0,0.0,0.0,1.1586,1.2101,1.2742,1.2781,1.267,1.2477,1.2304,1.1727,1.0681,0.0,0.0,0.0,0.0,0.0,0.0,0.0,0.0,0.0,0.0,0.0,0.0,0.0,0.0,0.0,0.0,0.0,0.0,0.0,0.0,0.0,0.0,0.0,0.0,0.0,0.0,0.0,0.0,0.0,0.0,0.0,0.0,0.0,0.0,0.0,0.0,0.0,0.0,0.4277,0.4746,0.0,0.0,0.0,0.0,0.0,0.0,0.0,0.0,0.4845,0.0,0.0,0.0,0.0,0.0,0.0,0.0,0.0,0.0,0.0,0.0,0.0,0.0,0.0,0.0,0.0,0.0,0.0,0.0,0.0,0.0,0.0,0.0,0.0,0.0,0.0,0.0,0.0,0.0,0.0,0.0,0.0,0.0,0.0,0.0,0.0,0.0,0.0,0.0,0.0,0.0,0.0,0.0,0.0,0.0,0.0,0.0,0.0,0.0,0.0,0.0,0.0,0.0,0.0,0.0,0.0,1.1282,1.1466,1.1895,1.2623,1.2616,1.2546,1.2352,1.2042,1.1538,1.0787,0.0,0.0,0.0,0.0,0.0,0.0,0.0,0.0,0.0,0.0,0.0,0.0,0.0,0.0,0.0,0.0,0.0,0.0,0.0,0.0,0.0,0.0,0.0,0.0,0.0,0.0,0.0,0.0,0.0,0.0,0.0,0.0,0.0,0.0,0.0,0.0,0.0,0.0,0.0,0.518,0.5508,0.0,0.0,0.0,0.0,0.0,0.0,0.0,0.0,0.4884,0.0,0.0,0.0,0.0,0.0,0.0,0.0,0.0,0.0,0.0,0.0,0.0,0.0,0.0,0.0,0.0,0.0,0.0,0.0,0.0,0.0,0.0,0.0,0.0,0.0,0.0,0.0,0.0,0.0,0.0,0.0,0.0,0.0,0.0,0.0,0.0,0.0,0.0,0.0,0.0,0.0,0.0,0.0,0.0,0.0,0.0,0.0,0.0,0.0,0.0,0.0,0.0,0.0,0.0,0.0,1.1111,1.1554,1.199,1.2424,1.2625,1.2617,1.2402,1.2166,1.1686,0.0,0.0,0.0,0.0,0.0,0.0,0.0,0.0,0.0,0.0,0.0,0.0,0.0,0.0,0.0,0.0,0.0,0.0,0.0,0.0,0.0,0.0,0.0,0.0,0.0,0.0,0.0,0.0,0.0,0.0,0.0,0.0,0.0,0.0,0.0,0.0,0.0,0.0,0.0,0.0,0.575,0.6064,0.624,0.0,0.0,0.0,0.0,0.0,0.0,0.548,0.5241,0.0,0.0,0.0,0.0,0.0,0.0,0.0,0.0,0.0,0.0,0.0,0.0,0.0,0.0,0.0,0.0,0.0,0.0,0.0,0.0,0.0,0.0,0.0,0.0,0.0,0.0,0.0,0.0,0.0,0.0,0.0,0.0,0.0,0.0,0.0,0.0,0.0,0.0,0.0,0.0,0.0,0.0,0.0,0.0,0.0,0.0,0.0,0.0,0.0,0.0,0.0,0.0,0.0,0.0,0.0,1.0987,1.1627,1.2065,1.2338,1.2636,1.2742,1.2622,1.2299,1.1772,0.0,0.0,0.0,0.0,0.0,0.0,0.0,0.0,0.0,0.0,0.0,0.0,0.0,0.0,0.0,0.0,0.0,0.0,0.0,0.0,0.0,0.0,0.0,0.0,0.0,0.0,0.0,0.0,0.0,0.0,0.0,0.0,0.0,0.0,0.0,0.0,0.0,0.0,0.0,0.0,0.0,0.6694,0.6873,0.6749,0.0,0.0,0.0,0.0,0.6163,0.5863,0.0,0.0,0.0,0.0,0.0,0.0,0.0,0.0,0.0,0.0,0.0,0.0,0.0,0.0,0.0,0.0,0.0,0.0,0.0,0.0,0.0,0.0,0.0,0.0,0.0,0.0,0.0,0.0,0.0,0.0,0.0,0.0,0.0,0.0,0.0,0.0,0.0,0.0,0.0,0.0,0.0,0.0,0.0,0.0,0.0,0.0,0.0,0.0,0.0,0.0,0.0,0.0,0.0,0.0,0.0,0.0,1.0963,1.1535,1.2061,1.2451,1.2626,1.2831,1.3003,1.2265,1.1562,0.0,0.0,0.0,0.0,0.0,0.0,0.0,0.0,0.0,0.0,0.0,0.0,0.0,0.0,0.0,0.0,0.0,0.0,0.0,0.0,0.0,0.0,0.0,0.0,0.0,0.0,0.0,0.0,0.0,0.0,0.0,0.0,0.0,0.0,0.0,0.0,0.0,0.0,0.0,0.0,0.0,0.722,0.7528,0.7316,0.7227,0.0,0.0,0.6759,0.6619,0.6349,0.0,0.0,0.0,0.0,0.0,0.0,0.0,0.0,0.0,0.0,0.0,0.0,0.0,0.0,0.0,0.0,0.0,0.0,0.0,0.0,0.0,0.0,0.0,0.0,0.0,0.0,0.0,0.0,0.0,0.0,0.0,0.0,0.0,0.0,0.0,0.0,0.0,0.0,0.0,0.0,0.0,0.0,0.0,0.0,0.0,0.0,0.0,0.0,0.0,0.0,0.0,0.0,0.0,0.0,0.0,0.9843,1.0703,1.1417,1.2026,1.2476,1.2851,1.3118,1.3329,1.2708,1.1953,0.0,0.0,0.0,0.0,0.0,0.0,0.0,0.0,0.0,0.0,0.0,0.0,0.0,0.0,0.0,0.0,0.0,0.0,0.0,0.0,0.0,0.0,0.0,0.0,0.0,0.0,0.0,0.0,0.0,0.0,0.0,0.0,0.0,0.0,0.0,0.0,0.0,0.0,0.0,0.0,0.0,0.0,0.7937,0.7793,0.0,0.0,0.0,0.7332,0.7288,0.0,0.0,0.0,0.0,0.0,0.0,0.0,0.0,0.0,0.0,0.0,0.0,0.0,0.0,0.0,0.0,0.0,0.0,0.0,0.0,0.0,0.0,0.0,0.0,0.0,0.0,0.0,0.0,0.0,0.0,0.0,0.0,0.0,0.0,0.0,0.0,0.0,0.0,0.0,0.0,0.0,0.0,0.0,0.0,0.0,0.0,0.0,0.0,0.0,0.0,0.0,0.0,0.0,0.0,0.0,0.0,0.0,1.0403,1.1288,1.1977,1.2434,1.2917,1.3258,1.3489,1.2945,0.0,0.0,0.0,0.0,0.0,0.0,0.0,0.0,0.0,0.0,0.0,0.0,0.0,0.0,0.0,0.0,0.0,0.0,0.0,0.0,0.0,0.0,0.0,0.0,0.0,0.0,0.0,0.4163,0.0,0.0,0.0,0.0,0.0,0.0,0.0,0.0,0.0,0.0,0.0,0.0,0.0,0.0,0.7687,0.8158,0.8099,0.8162,0.0,0.0,0.7908,0.7779,0.7426,0.6979,0.0,0.0,0.0,0.0,0.0,0.0,0.0,0.0,0.0,0.0,0.0,0.0,0.0,0.0,0.0,0.0,0.0,0.0,0.0,0.0,0.0,0.0,0.0,0.0,0.0,0.0,0.0,0.0,0.0,0.0,0.0,0.0,0.0,0.0,0.0,0.0,0.0,0.0,0.0,0.0,0.0,0.0,0.0,0.0,0.0,0.0,0.0,0.0,0.0,0.0,0.0,0.0,0.0,0.0,0.0,1.014,1.1103,1.1849,1.2316,1.264,1.3039,1.3484,1.2682,1.1893,0.0,0.0,0.0,0.0,0.0,0.0,0.0,0.0,0.0,0.0,0.0,0.0,0.0,0.0,0.0,0.0,0.0,0.0,0.0,0.0,0.0,0.0,0.0,0.0,0.0,0.0,0.0,0.0,0.0,0.0,0.0,0.0,0.0,0.0,0.0,0.0,0.0,0.0,0.0,0.0,0.0,0.7815,0.8158,0.8202,0.8319,0.0,0.0,0.8476,0.8046,0.79,0.7536,0.672,0.0,0.0,0.0,0.0,0.0,0.0,0.0,0.0,0.0,0.0,0.0,0.0,0.0,0.0,0.0,0.0,0.0,0.0,0.0,0.0,0.0,0.0,0.0,0.0,0.0,0.0,0.0,0.0,0.0,0.0,0.0,0.0,0.0,0.0,0.0,0.0,0.0,0.0,0.0,0.0,0.0,0.0,0.0,0.0,0.0,0.0,0.0,0.0,0.0,0.0,0.0,0.0,0.0,0.9799,1.035,1.1328,1.2123,1.2637,1.2999,1.341,1.3841,1.3033,1.2215,0.0,0.0,0.0,0.0,0.0,0.0,0.0,0.0,0.0,0.0,0.0,0.0,0.0,0.0,0.0,0.0,0.0,0.0,0.0,0.0,0.0,0.0,0.0,0.0,0.0,0.0,0.0,0.0,0.5264,0.5358,0.5521,0.0,0.0,0.0,0.0,0.0,0.0,0.0,0.0,0.0,0.0,0.7902,0.8429,0.8525,0.0,0.0,0.9109,0.8941,0.8769,0.8366,0.7889,0.732,0.6887,0.0,0.0,0.0,0.0,0.0,0.0,0.0,0.0,0.0,0.0,0.0,0.0,0.0,0.0,0.0,0.0,0.0,0.0,0.0,0.0,0.0,0.0,0.0,0.0,0.0,0.0,0.0,0.0,0.0,0.0,0.0,0.0,0.0,0.0,0.0,0.0,0.0,0.0,0.0,0.0,0.0,0.0,0.0,0.0,0.0,0.0,0.0,0.0,0.0,0.0,0.0,0.0,0.9971,1.0615,1.1547,1.2292,1.283,1.3165,1.3516,1.3844,1.3201,1.2463,0.0,0.0,0.0,0.0,0.0,0.0,0.0,0.0,0.0,0.0,0.0,0.0,0.0,0.0,0.0,0.0,0.0,0.0,0.0,0.0,0.0,0.0,0.0,0.0,0.0,0.0,0.0,0.0,0.546,0.5545,0.5716,0.0,0.0,0.0,0.0,0.0,0.0,0.0,0.0,0.0,0.0,0.8026,0.848,0.8737,0.8985,0.9424,0.9387,0.9302,0.9214,0.8811,0.8318,0.7802,0.0,0.0,0.0,0.0,0.0,0.0,0.0,0.0,0.0,0.0,0.0,0.0,0.0,0.0,0.0,0.0,0.0,0.0,0.0,0.0,0.0,0.0,0.0,0.0,0.0,0.0,0.0,0.0,0.0,0.0,0.6577,0.0,0.0,0.0,0.0,0.0,0.0,0.0,0.0,0.0,0.0,0.0,0.0,0.0,0.0,0.0,0.0,0.0,0.0,0.0,0.0,0.0,0.0,1.0149,1.0876,1.1688,1.2292,1.2705,1.3031,1.3296,1.3416,1.3073,1.2532,1.1802,0.0,0.0,0.0,0.0,0.0,0.0,0.0,0.0,0.0,0.0,0.0,0.0,0.0,0.0,0.0,0.0,0.0,0.0,0.0,0.0,0.0,0.0,0.0,0.0,0.0,0.0,0.5514,0.5599,0.5732,0.0,0.0,0.0,0.0,0.0,0.0,0.0,0.0,0.0,0.0,0.7982,0.8194,0.8231,0.8765,0.9192,0.9222,0.9424,0.9497,0.9258,0.9185,0.8909,0.0,0.0,0.0,0.0,0.0,0.0,0.0,0.0,0.0,0.0,0.0,0.0,0.0,0.0,0.0,0.0,0.0,0.0,0.0,0.0,0.0,0.0,0.0,0.0,0.0,0.0,0.0,0.8126,0.7724,0.0,0.0,0.0,0.0,0.0,0.0,0.0,0.0,0.0,0.0,0.0,1.1357,1.1444,0.0,0.0,0.0,0.0,0.0,0.0,0.0,0.0,0.0,0.0,0.0,0.0,1.0427,1.1155,1.1947,1.2529,1.2886,1.318,1.3386,1.3505,1.3119,1.2256,1.0904,0.0,0.0,0.0,0.0,0.0,0.0,0.0,0.0,0.0,0.0,0.0,0.0,0.0,0.0,0.0,0.0,0.0,0.0,0.0,0.0,0.0,0.0,0.0,0.0,0.0,0.5695,0.0,0.0,0.0,0.0,0.0,0.0,0.0,0.0,0.0,0.0,0.0,0.7647,0.7997,0.8319,0.8604,0.8816,0.906,0.9266,0.0,0.0,0.0,0.0,0.0,0.0,0.0,0.0,0.0,0.0,0.0,0.0,0.0,0.0,0.4668,0.4528,0.4393,0.4299,0.4318,0.0,0.0,0.0,0.0,0.0,0.0,0.0,0.0,0.0,0.0,0.0,0.0,0.0,0.0,0.9101,0.0,0.8672,0.0,0.0,0.0,0.0,0.0,0.0,0.0,0.0,1.1015,1.1659,1.2572,1.2636,1.2579,0.0,1.1913,1.0988,0.0,0.0,0.0,0.0,0.0,0.0,0.0,0.0,1.0813,1.1553,1.2241,1.2725,1.3041,1.3286,1.3443,1.3515,1.2884,1.1974,1.0853,0.9667,0.8839,0.0,0.0,0.0,0.0,0.0,0.0,0.0,0.0,0.0,0.0,0.0,0.0,0.0,0.0,0.0,0.0,0.0,0.0,0.0,0.0,0.0,0.0,0.0,0.5803,0.0,0.0,0.0,0.0,0.0,0.0,0.0,0.0,0.0,0.7377,0.7662,0.8004,0.8334,0.8655,0.8941,0.917,0.0,0.0,0.0,0.0,0.0,0.0,0.0,0.9317,0.9222,0.8697,0.8107,0.7605,0.6669,0.5853,0.5533,0.0,0.0,0.4836,0.4693,0.4603,0.4599,0.4603,0.4603,0.4603,0.4619,0.4641,0.0,0.0,0.0,0.0,0.0,0.0,0.0,0.0,1.0167,1.0147,0.0,1.001,0.0,0.0,0.0,0.0,0.0,1.0539,0.0,0.0,1.2201,1.2588,1.3167,1.3084,1.3057,1.3131,1.26,1.2146,1.1703,1.032,0.0,0.0,0.0,0.0,0.0,0.0,1.1294,1.2076,1.248,1.2842,1.3105,1.3282,1.3396,1.3365,1.2381,1.1757,1.1535,0.9898,0.8909,0.8797,0.7748,0.0,0.0,0.0,0.0,0.0,0.0,0.0,0.0,0.0,0.0,0.0,0.0,0.0,0.0,0.0,0.0,0.0,0.0,0.0,0.0,0.5825,0.0,0.0,0.0,0.0,0.0,0.0,0.0,0.0,0.0,0.0,0.7785,0.8041,0.8348,0.8686,0.0,0.0,0.0,0.0,0.9614,0.9614,0.9614,0.9614,0.9614,0.9581,0.9511,0.9258,0.0,0.0,0.738,0.669,0.6174,0.5853,0.5608,0.5381,0.5062,0.4988,0.4966,0.4988,0.4978,0.5002,0.5002,0.4964,0.4983,1.2214,0.0,0.0,0.0,0.0,1.1385,1.1452,1.1452,1.1452,1.1432,1.1383,1.1361,0.0,0.0,0.0,0.0,0.0,0.0,1.238,1.3353,1.3479,1.4055,1.4921,1.4617,1.4489,1.4492,1.3816,1.3396,1.3214,1.2169,1.1202,1.0299,0.0,0.0,0.0,0.0,1.1494,1.2331,1.2498,1.282,1.3371,1.3214,1.3166,1.3266,1.2477,1.1917,1.1538,1.0377,0.9573,0.9168,0.8334,0.0,0.0,0.0,0.0,0.0,0.0,0.0,0.0,0.0,0.0,0.0,0.0,0.0,0.0,0.0,0.0,0.0,0.0,0.0,0.6721,0.6625,0.6575,0.0,0.0,0.0,0.0,0.0,0.0,0.0,0.0,0.0,0.8723,0.8862,0.8926,0.0,0.0,0.949,0.949,0.9537,0.9614,0.9614,0.0,0.0,0.0,0.9614,0.9585,0.9504,0.8944,0.8193,0.7218,0.6597,0.6094,0.5661,0.5424,0.5228,0.5043,0.5007,0.5011,0.5007,0.5007,0.5007,0.5007,0.5007,0.5011,1.3554,1.2509,1.2303,1.227,1.2347,1.2685,1.2849,1.2834,1.2747,1.2686,1.2674,1.2635,1.2483,1.2336,1.253,0.0,0.0,0.0,1.3778,1.4555,1.4608,1.5024,1.5652,1.5473,1.5249,1.5084,1.4607,1.4203,1.3873,1.3332,1.2543,1.1554,0.0,0.0,1.1111,1.1474,1.196,1.2558,1.2805,1.3045,1.3352,1.3036,1.291,1.2987,1.2404,1.1839,1.135,1.0554,0.984,0.9317,0.8538,0.7933,0.0,0.0,0.0,0.0,0.0,0.0,0.0,0.0,0.0,0.0,0.0,0.6106,0.6083,0.0,0.0,0.0,0.6581,0.6883,0.7072,0.7026,0.0,0.0,0.0,0.0,0.0,0.0,0.0,0.8156,0.8587,0.8987,0.9313,0.9452,0.9484,0.9376,0.9504,0.9614,0.9614,0.0,0.9614,0.9614,0.9614,0.9614,0.9614,0.9614,0.9614,0.9614,0.8998,0.8307,0.7661,0.7074,0.6518,0.6062,0.5768,0.5545,0.5363,0.5281,0.5174,0.5018,0.5007,0.5007,0.5007,0.5073,0.5125,1.4754,1.4284,1.3556,1.3314,1.3499,1.4029,1.4223,1.4238,1.408,1.4053,1.408,1.3955,1.3856,1.3874,1.4345,0.0,1.4772,1.4952,1.5222,1.5573,1.5573,1.5665,1.579,1.5762,1.5551,1.5194,1.5129,1.4717,1.4039,1.3947,1.3736,1.3332,1.2356,1.1844,1.1835,1.2302,1.2622,1.279,1.3256,1.3362,1.3096,1.2851,1.2715,1.27,1.2216,1.1699,1.1153,1.0514,0.9915,0.9372,0.8486,0.7908,0.7663,0.0,0.0,0.0,0.0,0.0,0.0,0.0,0.0,0.0,0.0,0.0,0.0,0.0,0.0,0.0,0.6962,0.0,0.7201,0.719,0.0,0.0,0.0,0.7656,0.7698,0.8221,0.8628,0.8675,0.0,0.0,0.9625,0.0,0.9914,0.9666,0.9614,0.9614,0.9621,0.9614,0.9614,0.9614,0.9614,0.9614,0.9614,0.9614,0.9588,0.9555,0.913,0.8692,0.8364,0.7803,0.7224,0.666,0.6404,0.6102,0.5839,0.5673,0.5514,0.5122,0.5078,0.5046,0.507,0.5198,0.5334,1.5584,1.5632,1.5433,1.5112,1.4729,1.5187,1.5486,1.5615,1.5732,1.588,1.6018,1.566,1.5372,1.5103,1.5206,1.526,1.5292,1.5463,1.5733,1.609,1.6099,1.6297,1.6597,1.6279,1.612,1.5959,1.5404,1.5001,1.4808,1.4506,1.4148,1.3754,1.3497,1.3159,1.277,1.2905,1.3132,1.3477,1.3369,1.3219,1.295,1.2982,1.2852,1.2563,1.2337,1.1996,1.1561,1.0917,1.0362,0.9903,0.9159,0.8583,0.8285,0.7958,0.0,0.0,0.0,0.0,0.0,0.0,0.0,0.0,0.0,0.68,0.7012,0.0,0.7164,0.0,0.7415,0.7748,0.8063,0.8015,0.0,0.0,0.7921,0.8047,0.8406,0.8576,0.8857,0.9384,0.9593,0.9738,0.988,0.9953,0.9973,0.9921,0.981,0.9766,0.974,0.9673,0.9614,0.9614,0.9614,0.9614,0.9614,0.9614,0.9588,0.9458,0.9105,0.8713,0.8443,0.786,0.7242,0.6833,0.6544,0.6223,0.5908,0.577,0.5702,0.5505,0.5467,0.5462,0.5438,0.55,0.5533,1.6113,1.6245,1.6335,1.6265,1.6158,1.6308,1.6537,1.6834,1.6871,1.6996,1.7171,1.6971,1.68,1.6652,1.6673,1.6576,1.6394,1.6462,1.6523,1.6578,1.6544,1.6697,1.6899,1.6688,1.6453,1.6303,1.5854,1.546,1.5102,1.4882,1.4561,1.4167,1.4167,1.4019,1.3723,1.3541,1.3578,1.3788,1.3643,1.3497,1.3348,1.3252,1.2989,1.2622,1.2519,1.22,1.1625,1.1246,1.0858,1.0471,0.9647,0.909,0.8861,0.8324,0.788,0.0,0.0,0.0,0.0,0.0,0.0,0.0,0.0,0.0,0.0,0.0,0.7602,0.7761,0.796,0.8222,0.858,0.8548,0.8561,0.871,0.8666,0.8723,0.8999,0.9148,0.9369,0.9737,0.995,1.0097,1.0208,1.0239,1.0205,1.0231,1.011,1.0007,0.9895,0.9758,0.9681,0.9681,0.9647,0.9614,0.9614,0.9614,0.9588,0.947,0.9193,0.8908,0.8697,0.8215,0.7728,0.7357,0.7022,0.6717,0.6437,0.6258,0.6155,0.6006,0.596,0.5863,0.5651,0.5679,0.5741,1.6386,1.6435,1.6607,1.6976,1.7392,1.7221,1.7416,1.7836,1.7759,1.7791,1.7934,1.7924,1.7978,1.8081,1.8081,1.7889,1.7587,1.7523,1.7303,1.6982,1.6936,1.6908,1.6908,1.6908,1.6725,1.6404,1.634,1.5927,1.5184,1.5129,1.49,1.4504,1.4485,1.4485,1.4467,1.4148,1.3965,1.3994,1.3956,1.3966,1.3873,1.3543,1.3176,1.2716,1.2689,1.2349,1.1608,1.154,1.1347,1.0961,1.0068,0.9537,0.9467,0.8632,0.8085,0.0,0.792,0.0,0.0,0.0,0.0,0.0,0.0,0.0,0.0,0.7742,0.8075,0.8441,0.8497,0.8656,0.8937,0.8969,0.9088,0.9358,0.939,0.9414,0.9469,0.9739,0.9922,0.9986,1.0305,1.0496,1.0496,1.0496,1.0496,1.047,1.0368,1.0239,1.0102,0.9921,0.9825,0.9799,0.9681,0.9614,0.9614,0.9614,0.9588,0.9562,0.9399,0.9185,0.9047,0.8699,0.8335,0.799,0.7626,0.7316,0.7139,0.688,0.6664,0.646,0.6374,0.6219,0.5847,0.5819,0.5918,1.6386,1.6435,1.6607,1.6984,1.7392,1.7546,1.7951,1.8563,1.8833,1.8813,1.8522,1.8526,1.8383,1.8091,1.8081,1.8054,1.7953,1.7651,1.7449,1.7376,1.7055,1.6908,1.6908,1.6908,1.6862,1.678,1.6468,1.6065,1.5579,1.5258,1.49,1.4494,1.4485,1.4485,1.4485,0.0,0.0,0.0,1.4396,1.4231,1.3901,1.3837,1.3442,1.2726,1.2689,0.0,1.2009,1.1678,1.1476,1.1384,1.0781,0.0,0.0,0.0,0.0,0.0,0.0,0.0,0.0,0.0,0.0,0.0,0.8968,0.8762,0.8258,0.85,0.8731,0.8802,0.9048,0.9231,0.9295,0.9302,0.9326,0.9382,0.9398,0.9509,0.9755,0.9866,1.0025,1.0361,1.0456,1.0496,1.0528,1.0496,1.0512,1.0536,1.0504,1.0453,1.0435,1.0162,0.9921,0.9818,0.9706,0.9614,0.9614,0.9614,0.9614,0.9595,0.9465,0.9316,0.9159,0.8903,0.8593,0.8221,0.7955,0.7628,0.7192,0.7052,0.6923,0.668,0.6517,0.6335,0.6128,0.6111,0.6144,1.6386,0.0,1.6771,1.7098,0.0,1.7708,1.8152,1.8692,1.9033,1.9113,1.9008,1.8999,1.8889,1.8667,1.8705,1.8557,1.8403,1.8192,1.788,1.7495,1.7293,1.7092,1.6908,1.6908,1.6908,1.6899,1.6707,1.6395,1.5991,1.5588,1.5194,1.4808,1.4607,1.4485,1.4485,1.4485,1.4485,1.4485,1.4485,1.4405,1.4203,1.4194,1.38,1.3038,0.0,0.0,0.0,0.0,0.0,0.0,0.0,0.0,0.0,0.0,0.0,1.035,1.0282,1.0128,0.9814,0.9728,0.9624,0.9475,0.9424,0.927,0.8919,0.9048,0.9144,0.9152,0.9302,0.9446,0.9636,0.9652,0.9724,0.9923,0.9946,1.009,1.0357,1.0421,1.0597,1.0907,1.0998,1.0998,1.0998,1.1006,1.0998,1.0998,1.0998,1.0934,1.0748,1.0392,1.0076,0.9844,0.9766,0.9673,0.9614,0.9614,0.9614,0.9595,0.9491,0.9361,0.9237,0.8982,0.8705,0.8348,0.8088,0.7768,0.7408,0.7252,0.7117,0.6874,0.6685,0.649,0.6332,0.6232,0.62,1.6229,1.6312,1.6763,1.7147,1.7392,1.7829,1.8322,1.8812,0.0,0.0,0.0,1.9292,1.9292,1.9292,1.9292,1.9118,1.8825,1.8742,1.8311,1.7614,1.7532,1.7284,1.6917,1.6908,1.6908,1.6908,1.6908,1.6697,1.6279,1.589,1.5487,1.5093,1.4708,1.4485,1.4485,1.4485,1.4485,1.4485,1.4485,1.4485,1.4485,1.4485,1.4128,1.3415,1.3396,1.3047,1.2239,1.2202,1.2174,1.2092,1.1668,1.1447,1.1414,1.1028,1.078,1.0748,1.0634,1.0538,1.0409,1.0193,1.0059,1.0055,0.9826,0.962,0.9509,0.9572,0.9612,0.9668,0.9731,0.989,1.0168,1.0175,1.0319,1.0647,1.0679,1.0791,1.1034,1.109,1.1169,1.1431,1.1455,1.1507,1.1483,1.1483,1.1515,1.1507,1.1459,1.1368,1.1042,1.058,1.0213,0.9981,0.987,0.9766,0.9681,0.9614,0.9614,0.9614,0.9517,0.9387,0.9211,0.9008,0.8771,0.8421,0.8162,0.7901,0.7601,0.7413,0.7257,0.7014,0.6842,0.668,0.6522,0.6386,0.6282,1.565,1.5816,1.6312,1.6771,1.7172,1.7749,1.8474,1.9192,1.9222,1.9262,1.9292,1.9292,1.9292,1.9292,1.9292,1.9274,1.9201,1.8832,1.8467,0.0,1.766,1.7284,1.6917,1.6908,1.6908,1.6908,1.6908,1.6707,1.627,1.59,1.5487,1.5102,1.4677,1.4494,1.4485,1.4485,1.4485,1.4485,1.4485,1.4485,1.4485,1.4485,1.4286,1.3865,1.3791,1.3442,1.2678,1.2606,1.245,1.2119,1.203,1.1994,1.1984,1.1914,1.1828,1.1706,1.1681,1.1416,1.0876,1.0982,1.1057,1.1003,1.0851,1.0518,0.9922,1.0137,1.0472,1.074,1.0971,1.1209,1.1265,1.1225,1.1225,1.1312,1.1364,1.1396,1.1416,1.1424,1.1447,1.1527,1.1515,1.1519,1.1579,1.1563,1.1579,1.1539,1.1587,1.1392,1.1106,1.0588,1.0314,1.0213,1.0007,0.9825,0.9766,0.9681,0.9621,0.9614,0.9595,0.9465,0.9256,0.9159,0.8949,0.8507,0.8342,0.8162,0.7783,0.7568,0.7419,0.7257,0.7068,0.6879,0.6825,0.6712,0.6576,1.5477,1.5602,1.6147,1.6681,1.7172,1.8,1.8683,1.9152,1.9271,1.9292,1.9292,1.9292,1.9292,1.9292,1.9292,1.9292,1.9283,1.9109,1.8667,1.8137,1.7917,1.7504,1.6945,1.6908,1.6908,1.6908,1.6908,1.6807,1.6615,1.623,1.5936,1.5735,1.5148,1.4726,1.4533,1.4485,1.4485,1.4485,1.4485,1.4485,1.4485,1.4485,1.4313,1.3892,1.3873,1.3616,1.3056,1.3029,1.292,1.2772,1.2736,1.2772,1.2736,1.2736,1.2736,1.2658,1.2605,1.2367,1.1947,1.1842,1.172,1.1532,1.1466,1.1335,1.1055,1.1034,1.109,1.1249,1.1408,1.1515,1.1515,1.1515,1.1515,1.1515,1.1515,1.1567,1.1733,1.1744,1.1853,1.2057,1.2105,1.2097,1.2105,1.2105,1.2105,1.2089,1.1953,1.1717,1.1543,1.1043,1.058,1.0363,1.0169,1.0007,0.9851,0.9766,0.9681,0.9621,0.9614,0.9517,0.9335,0.9263,0.9028,0.8692,0.856,0.8368,0.8023,0.7815,0.7681,0.7515,0.7306,0.7149,0.7128,0.7117,0.7063,1.5228,1.5401,1.5933,1.6558,1.7261,1.825,1.8812,1.8993,1.9222,1.9292,1.9292,1.9292,1.9292,1.9292,1.9292,1.9292,1.9292,1.9292,1.888,1.8136,1.8081,1.7697,1.6963,1.6908,1.6908,1.6908,1.6908,1.6908,1.6862,1.6471,1.6233,1.6111,1.546,1.4946,1.4653,1.4561,1.4485,1.4485,1.4485,1.4485,1.4485,1.4485,1.4359,1.4085,1.402,1.3865,1.3461,1.3451,1.3378,1.3305,1.3296,1.3296,1.3296,1.3296,1.3296,1.3286,1.3214,1.304,1.2803,1.2444,1.2181,1.2019,1.1963,1.2003,1.2126,1.1921,1.1733,1.1762,1.1786,1.1786,1.1794,1.1778,1.1762,1.1733,1.1754,1.186,1.2091,1.2139,1.2234,1.2543,1.259,1.2574,1.259,1.259,1.2566,1.2503,1.2343,1.2139,1.198,1.1535,1.1079,1.0596,1.0371,1.0221,0.9955,0.9851,0.9766,0.9647,0.9614,0.9536,0.9406,0.9309,0.9133,0.8903,0.8771,0.8613,0.8381,0.8168,0.8002,0.7863,0.7649,0.7467,0.7526,0.7655,0.7622,1.4734,1.5124,1.5401,1.6229,1.7432,1.8331,1.8829,1.8993,1.9231,1.9292,1.9292,1.9292,1.9292,1.9292,1.9292,1.9292,1.9292,1.9292,1.8889,1.8155,1.8081,1.7661,1.6972,1.6908,1.6908,1.6908,1.6908,1.6908,1.6881,1.6523,1.6138,1.5735,1.5313,1.5102,1.501,1.4698,1.4494,1.4485,1.4485,1.4485,1.4485,1.4485,1.4497,1.443,1.4451,1.4268,1.3855,1.3856,1.3662,1.3332,1.3323,1.3305,1.3314,1.3305,1.3296,1.3314,1.3287,1.3123,1.2848,1.2555,1.2476,1.258,1.2389,1.2389,1.2661,1.2556,1.2495,1.2455,1.2463,1.2439,1.2487,1.2463,1.2423,1.2399,1.2423,1.2511,1.2511,1.2551,1.2566,1.2582,1.259,1.259,1.259,1.259,1.259,1.259,1.2535,1.2391,1.2115,1.1911,1.1578,1.1039,1.0622,1.0329,1.0203,0.9981,0.9844,0.9792,0.9681,0.9562,0.9458,0.9387,0.9316,0.9087,0.8962,0.8877,0.8745,0.8533,0.8348,0.8289,0.8096,0.7904,0.8082,0.8315,0.8282,1.4524,1.4734,1.5193,1.6188,1.7457,1.8402,1.8904,1.9011,1.9192,1.9292,1.9292,1.9292,1.9292,1.9292,1.9292,1.9292,1.9292,1.9292,1.8999,1.8467,1.82,1.7779,1.7284,1.7009,1.6908,1.6908,1.6908,1.6908,1.6881,1.6734,1.6434,1.6083,1.589,1.5698,1.5432,1.5056,1.4864,1.4854,1.4634,1.4485,1.4485,1.4485,1.4485,1.4485,1.4485,1.4442,1.4277,1.4258,1.4176,1.4029,1.402,1.402,1.4011,1.4011,1.4011,1.3982,1.3934,1.3847,1.3685,1.3415,1.3213,1.319,1.2998,1.2871,1.2781,1.2744,1.2683,1.2621,1.259,1.259,1.259,1.259,1.259,1.259,1.259,1.259,1.259,1.259,1.259,1.259,1.259,1.259,1.259,1.259,1.259,1.259,1.259,1.2511,1.2345,1.2162,1.1821,1.1384,1.0976,1.0611,1.0379,1.0195,1.0058,0.9947,0.9818,0.9681,0.9655,0.9465,0.9361,0.9237,0.9185,0.9133,0.9054,0.8903,0.8745,0.8718,0.8712,0.8573,0.8666,0.8896,0.8916,1.4431,1.4622,1.544,1.6464,1.7573,1.8519,1.8936,1.9075,1.9228,1.9292,1.9292,1.9292,1.9292,1.9292,1.9292,1.9292,1.9292,1.9292,1.9091,1.8715,1.8374,1.8009,1.7504,1.7211,1.7009,1.6917,1.6908,1.6908,1.6908,1.6908,1.6762,1.6471,1.6367,1.6166,1.5854,1.546,1.5267,1.5221,1.4873,1.468,1.4662,1.454,1.4485,1.4485,1.4485,1.4485,1.4485,1.4485,1.4485,1.4485,1.4485,1.4485,1.4485,1.4485,1.4485,1.4485,1.4426,1.4357,1.4297,1.4079,1.386,1.3662,1.3467,1.3263,1.3042,1.2889,1.2805,1.2691,1.2652,1.266,1.259,1.259,1.259,1.259,1.259,1.259,1.259,1.259,1.259,1.259,1.259,1.259,1.259,1.259,1.259,1.259,1.259,1.259,1.2574,1.2329,1.2051,1.1694,1.1352,1.0936,1.0478,1.029,1.0213,1.011,0.9955,0.9851,0.9851,0.9681,0.9569,0.9603,0.9472,0.9446,0.9453,0.9349,0.9166,0.9192,0.9192,0.9192,0.9218,0.9427,0.9577,1.4586,1.4888,1.6246,1.7208,1.7865,1.8583,1.9044,1.9194,1.9257,1.9292,1.9292,1.9292,1.9292,1.9292,1.9292,1.9292,1.9292,1.9292,1.9109,1.876,1.8687,1.8256,1.7523,1.7468,1.7275,1.6972,1.6917,1.6908,1.6908,1.6908,1.6908,1.6853,1.6489,1.6331,1.623,1.5881,1.567,1.5634,1.5276,1.5074,1.5029,1.4717,1.4513,1.4522,1.4485,1.4485,1.4485,1.4485,1.4485,1.4485,1.4485,1.4485,1.4485,1.4485,1.4485,1.4485,1.4485,1.4417,1.4336,1.4276,1.4178,1.398,1.367,1.348,1.339,1.3155,1.295,1.2797,1.2775,1.2713,1.2629,1.2598,1.259,1.259,1.259,1.259,1.259,1.259,1.259,1.259,1.259,1.259,1.259,1.259,1.259,1.259,1.259,1.259,1.259,1.2558,1.2337,1.2003,1.1638,1.126,1.0645,1.0393,1.0316,1.0239,1.0136,0.9999,1.0007,0.9981,0.9947,0.994,0.987,0.9844,0.9895,0.9844,0.9655,0.9629,0.9688,0.9714,0.9695,0.9844,0.9973,1.5477,1.5879,1.7108,1.7866,1.8319,1.8956,1.9314,1.942,1.9356,1.9292,1.9292,1.9292,1.9292,1.9292,1.9292,1.9292,1.9292,1.9292,1.9219,1.9063,1.8834,1.8559,1.8256,1.7761,1.7431,1.7275,1.7027,1.6908,1.6908,1.6908,1.6908,1.6899,1.6771,1.6697,1.6624,1.6294,1.6092,1.6023,1.568,1.5478,1.5441,1.5093,1.4891,1.4873,1.4634,1.4485,1.4485,1.4485,1.4485,1.4485,1.4485,1.4485,1.4485,1.4485,1.4485,1.4485,1.4485,1.4485,1.4426,1.4327,1.4267,1.4198,1.395,1.3722,1.3541,1.3359,1.3216,1.2989,1.2836,1.2783,1.2744,1.2652,1.259,1.259,1.259,1.259,1.259,1.259,1.259,1.259,1.259,1.259,1.259,1.259,1.259,1.259,1.259,1.259,1.259,1.259,1.2463,1.2075,1.1717,1.1336,1.0915,1.0597,1.0419,1.0368,1.029,1.0239,1.0187,1.0076,1.0025,1.0025,1.0058,1.0058,1.0032,1.0032,0.9914,0.9914,0.9999,1.0058,1.0118,1.0162,1.0265,1.6433,1.6907,1.7924,1.858,1.8971,1.9333,1.9643,1.9723,1.9451,1.9292,1.9292,1.9292,1.9292,1.9292,1.9292,1.9292,1.9292,1.9292,1.9292,1.9274,1.9017,1.8834,1.8603,1.8146,1.7743,1.7468,1.7092,1.6908,1.6908,1.6908,1.6908,1.6908,1.6908,1.6908,1.6862,1.6633,1.6505,1.6441,1.6111,1.59,1.5845,1.5505,1.5221,1.5074,1.4836,1.4634,1.4494,1.4485,1.4485,1.4485,1.4485,1.4485,1.4485,1.4485,1.4485,1.4485,1.4485,1.4485,1.4485,1.4426,1.4366,1.4366,1.4198,1.3989,1.3769,1.3692,1.3489,1.3246,1.3094,1.3011,1.2858,1.2744,1.2652,1.2621,1.259,1.259,1.259,1.259,1.259,1.259,1.259,1.259,1.259,1.259,1.259,1.259,1.259,1.259,1.259,1.2582,1.2527,1.2226,1.1908,1.1574,1.1209,1.0907,1.0589,1.0508,1.0419,1.0368,1.0316,1.0205,1.0154,1.0154,1.0162,1.0162,1.0162,1.0162,1.0162,1.0154,1.0239,1.0316,1.0375,1.0427,1.0419,1.7389,1.7785,1.8698,1.944,1.9844,1.9843,1.9929,2.0063,1.956,1.9292,1.9292,1.9292,1.9292,1.9292,1.9292,1.9292,1.9292,1.9292,1.9292,1.9283,1.9265,1.9072,1.876,1.8641,1.8174,1.7513,1.711,1.6917,1.6908,1.6908,1.6908,1.6908,1.6908,1.6908,1.6908,1.6862,1.6872,1.678,1.6486,1.6288,1.6266,1.5909,1.5542,1.523,1.5129,1.4928,1.454,1.4494,1.4485,1.4485,1.4485,1.4485,1.4485,1.4485,1.4485,1.4485,1.4485,1.4485,1.4485,1.4485,1.4485,1.4455,1.4357,1.4258,1.4207,1.407,1.3851,1.3571,1.3459,1.3329,1.3072,1.2897,1.2744,1.2629,1.2629,1.259,1.259,1.259,1.259,1.259,1.259,1.259,1.259,1.259,1.259,1.259,1.259,1.259,1.259,1.259,1.259,1.2511,1.217,1.1781,1.1495,1.1209,1.0894,1.0623,1.0544,1.047,1.0445,1.036,1.036,1.0342,1.0342,1.0342,1.0342,1.0342,1.0368,1.0393,1.047,1.047,1.047,1.047,1.0496,1.892,1.9055,1.9833,2.0352,2.0586,2.0224,2.0192,2.0303,1.9619,1.9301,1.9292,1.9292,1.9292,1.9292,1.9292,1.9292,1.9292,1.9292,1.9292,1.9292,1.9292,1.9237,1.9081,1.8843,1.8293,1.7596,1.7376,1.7165,1.6954,1.6917,1.6908,1.6908,1.6908,1.6908,1.6908,1.6908,1.6908,1.689,1.6798,1.6725,1.6688,1.6321,1.6056,1.5927,1.567,1.5313,1.4937,1.4653,1.4494,1.4485,1.4485,1.4485,1.4485,1.4485,1.4485,1.4485,1.4485,1.4485,1.4485,1.4494,1.4504,1.4485,1.4465,1.4387,1.4336,1.4264,1.4135,1.3868,1.364,1.342,1.3338,1.3103,1.2897,1.2752,1.266,1.259,1.259,1.259,1.259,1.259,1.259,1.259,1.259,1.259,1.259,1.259,1.259,1.259,1.259,1.259,1.259,1.2566,1.2226,1.1974,1.1749,1.1463,1.113,1.083,1.0655,1.0504,1.0496,1.0496,1.0496,1.0496,1.0496,1.0496,1.0496,1.0496,1.0496,1.0496,1.0496,1.0496,1.0496,1.0496,1.0496,2.0011,2.0102,2.0699,2.1015,2.1096,2.0569,2.0404,2.0351,1.9659,1.9292,1.9292,1.9292,1.9292,1.9292,1.9292,1.9292,1.9292,1.9292,1.9292,1.9292,1.9292,1.9292,1.9246,1.8898,1.8485,1.8009,1.7798,1.7523,1.7138,1.7119,1.7064,1.6936,1.6908,1.6908,1.6908,1.6908,1.6908,1.6908,1.6908,1.6908,1.6853,1.6661,1.6468,1.6312,1.6056,1.5735,1.534,1.5074,1.4808,1.4579,1.4485,1.4485,1.4485,1.4485,1.457,1.4708,1.4735,1.4744,1.4726,1.4723,1.4726,1.4726,1.4726,1.4787,1.4818,1.4823,1.4686,1.4341,1.4171,1.3939,1.3696,1.3398,1.3155,1.3064,1.2836,1.2652,1.2621,1.259,1.259,1.259,1.259,1.259,1.259,1.259,1.259,1.259,1.259,1.259,1.259,1.259,1.259,1.2574,1.2439,1.2202,1.2011,1.1717,1.1392,1.1066,1.0799,1.0615,1.0496,1.0496,1.0496,1.0496,1.0496,1.0496,1.0496,1.0496,1.0496,1.0496,1.0496,1.0496,1.0496,1.0496,1.0496,2.0744,2.0789,2.1212,2.1365,2.1283,2.0714,2.0442,2.0338,1.9641,1.9292,1.9292,1.9292,1.9292,1.9292,1.9292,1.9292,1.9292,1.9292,1.9292,1.9292,1.9292,1.9292,1.9237,1.8962,1.8733,1.8568,1.8255,1.7935,1.755,1.7532,1.733,1.7027,1.7,1.6927,1.6917,1.6908,1.6908,1.6908,1.6908,1.6908,1.6908,1.689,1.6734,1.637,1.6325,1.6156,1.579,1.5615,1.5285,1.4708,1.465,1.4698,1.4616,1.4558,1.4827,1.5111,1.5129,1.5139,1.5129,1.5129,1.5129,1.5129,1.5148,1.5267,1.5515,1.5492,1.536,1.497,1.4872,1.4683,1.4223,1.3887,1.3687,1.3501,1.3075,1.2775,1.2621,1.2621,1.259,1.259,1.259,1.259,1.259,1.259,1.259,1.259,1.259,1.259,1.259,1.259,1.259,1.2558,1.2519,1.2431,1.221,1.1934,1.1662,1.1471,1.1149,1.087,1.0607,1.0552,1.0496,1.0496,1.0496,1.0496,1.0496,1.0496,1.0496,1.0496,1.0496,1.0496,1.0496,1.0496,1.0496,2.1329,2.1257,2.1517,2.1478,2.1149,2.068,2.0347,2.0003,1.954,1.9292,1.9292,1.9292,1.9292,1.9292,1.9292,1.9292,1.9292,1.9292,1.9292,1.9292,1.9292,1.9292,1.9292,1.9191,1.8981,1.8742,1.8614,1.831,1.7981,1.7917,1.7743,1.7358,1.7312,1.7174,1.6963,1.6917,1.6908,1.6908,1.6908,1.6908,1.6908,1.6908,1.6862,1.678,1.6743,1.6541,1.6166,1.5854,1.5625,1.5454,1.5377,1.5377,1.5331,1.5331,1.5377,1.5496,1.5533,1.5565,1.5533,1.5533,1.5542,1.5533,1.5542,1.5579,1.567,1.5698,1.5634,1.5469,1.5405,1.5287,1.5092,1.4866,1.4498,1.3956,1.3324,1.283,1.2752,1.2652,1.259,1.259,1.259,1.259,1.259,1.259,1.259,1.259,1.259,1.259,1.259,1.259,1.259,1.259,1.2566,1.2535,1.2393,1.2154,1.1934,1.1816,1.1551,1.1229,1.0926,1.0679,1.0584,1.0496,1.0496,1.0496,1.0496,1.0496,1.0496,1.0496,1.0496,1.0496,1.0496,1.0496,1.0496,2.1785,2.1705,2.1696,2.1449,2.108,2.0686,2.0292,1.9866,1.9494,1.9292,1.9292,1.9292,1.9292,1.9292,1.9292,1.9292,1.9292,1.9292,1.9292,1.9292,1.9292,1.9292,1.9292,1.9292,1.9173,1.899,1.8953,1.8733,1.843,1.8338,1.8137,1.7779,1.7578,1.7367,1.7183,1.6972,1.6908,1.6908,1.6908,1.6908,1.6908,1.6908,1.6908,1.6908,1.6908,1.6771,1.6541,1.6331,1.6065,1.579,1.5689,1.5689,1.5689,1.5689,1.5762,1.5918,1.5955,1.5945,1.5955,1.5955,1.5955,1.5955,1.5955,1.6046,1.6175,1.6202,1.6175,1.5982,1.5898,1.5765,1.5587,1.5431,1.5065,1.4484,1.3771,1.3223,1.286,1.2713,1.2652,1.2621,1.259,1.259,1.259,1.259,1.259,1.259,1.259,1.259,1.259,1.259,1.259,1.259,1.259,1.2566,1.2551,1.2345,1.2258,1.2146,1.194,1.159,1.1185,1.0852,1.0687,1.0584,1.0536,1.0496,1.0496,1.0496,1.0496,1.0496,1.0496,1.0504,1.0512,1.0568,1.056,2.215,2.2106,2.183,2.1465,2.1016,2.0668,2.0204,1.9783,1.9457,1.9292,1.9292,1.9292,1.9292,1.9292,1.9292,1.9292,1.9292,1.9292,1.9292,1.9292,1.9292,1.9292,1.9292,1.9292,1.9274,1.9237,1.9283,1.9081,1.8843,1.8779,1.8521,1.8182,1.7834,1.7578,1.7422,1.7147,1.6972,1.6917,1.6908,1.6908,1.6908,1.6908,1.6908,1.6908,1.6908,1.6899,1.6862,1.6798,1.656,1.5863,1.5817,1.589,1.5872,1.5845,1.6001,1.6294,1.6376,1.6367,1.6343,1.6343,1.6343,1.6343,1.6376,1.6514,1.6725,1.6762,1.6627,1.6395,1.6376,1.6187,1.5977,1.5742,1.5486,1.5094,1.4562,1.3887,1.3217,1.2885,1.2744,1.2629,1.259,1.259,1.259,1.259,1.259,1.259,1.259,1.259,1.259,1.259,1.259,1.259,1.259,1.259,1.259,1.2566,1.2535,1.2471,1.225,1.1924,1.1447,1.1106,1.0878,1.0719,1.0615,1.0544,1.0496,1.0496,1.052,1.0496,1.0496,1.0528,1.0568,1.0671,1.0703,2.246,2.2106,2.2061,2.1493,2.0695,2.0539,2.0099,1.9448,1.9347,1.9292,1.9292,1.9292,1.9292,1.9292,1.9292,1.9292,1.9292,1.9292,1.9292,1.9292,1.9292,1.9292,1.9292,1.9292,1.9292,1.9292,1.9292,1.9237,1.9155,1.9091,1.8981,1.8614,1.8403,1.8128,1.7578,1.7431,1.7202,1.6972,1.6917,1.6908,1.6908,1.6908,1.6908,1.6908,1.6908,1.6908,1.6908,1.6908,1.6817,1.6688,1.6606,1.6541,1.6551,1.6578,1.6624,1.6688,1.6752,1.6762,1.6771,1.6743,1.678,1.6743,1.6734,1.6817,1.6872,1.6908,1.6872,1.678,1.6745,1.6679,1.6535,1.6435,1.617,1.5777,1.5384,1.4886,1.4289,1.342,1.287,1.2676,1.2606,1.259,1.259,1.259,1.259,1.259,1.259,1.259,1.259,1.259,1.259,1.259,1.259,1.259,1.259,1.259,1.259,1.259,1.2455,1.2305,1.1821,1.14,1.1153,1.0918,1.0671,1.0623,1.0647,1.0615,1.0663,1.0584,1.056,1.0711,1.0838,1.087,1.0934,2.2036,2.1778,2.1605,2.1052,2.0417,2.0269,1.9838,1.9375,1.9292,1.9292,1.9292,1.9292,1.9292,1.9292,1.9292,1.9292,1.9292,1.9292,1.9292,1.9292,1.9292,1.9292,1.9292,1.9292,1.9292,1.9292,1.9292,1.9292,1.9292,1.9283,1.9182,1.8981,1.8815,1.8504,1.8018,1.7706,1.7403,1.7193,1.6991,1.6908,1.6908,1.6908,1.6908,1.6908,1.6908,1.6908,1.6908,1.6908,1.6908,1.6908,1.6908,1.6908,1.6908,1.6908,1.6908,1.6908,1.6908,1.6908,1.6908,1.6908,1.6899,1.6908,1.6908,1.6908,1.6908,1.6908,1.6908,1.6908,1.6899,1.6899,1.6908,1.6821,1.6615,1.6351,1.594,1.5466,1.4921,1.3936,1.3111,1.2945,1.2764,1.2661,1.259,1.259,1.259,1.259,1.259,1.259,1.259,1.259,1.259,1.259,1.259,1.259,1.259,1.259,1.259,1.259,1.2558,1.2487,1.228,1.1845,1.1471,1.1225,1.1003,1.0891,1.0891,1.0844,1.0854,1.082,1.0875,1.1018,1.113,1.1193,1.1276,2.1543,2.146,2.1066,2.0647,2.0198,2.0016,1.9696,1.9329,1.9292,1.9292,1.9292,1.9292,1.9292,1.9292,1.9292,1.9292,1.9292,1.9292,1.9292,1.9292,1.9292,1.9292,1.9292,1.9292,1.9292,1.9292,1.9292,1.9292,1.9292,1.9292,1.9274,1.9228,1.899,1.8742,1.8531,1.8091,1.7642,1.744,1.7183,1.6972,1.6917,1.6908,1.6908,1.6908,1.6908,1.6908,1.6908,1.6908,1.6908,1.6908,1.6908,1.6908,1.6908,1.6908,1.6908,1.6908,1.6908,1.6908,1.6908,1.6908,1.6908,1.6908,1.6908,1.6908,1.6908,1.6908,1.6908,1.6908,1.6908,1.6908,1.6908,1.6874,1.6786,1.66,1.6185,1.5813,1.5358,1.4478,1.3882,1.3322,1.2979,1.2773,1.2654,1.259,1.259,1.259,1.259,1.259,1.259,1.259,1.259,1.259,1.259,1.259,1.259,1.259,1.259,1.259,1.259,1.2574,1.2551,1.2296,1.1892,1.1638,1.1439,1.1296,1.1201,1.1193,1.1169,1.1146,1.1201,1.1312,1.1431,1.1551,1.1651,2.1719,2.1492,2.1419,2.0913,2.027,2.0151,1.9789,1.9338,1.9292,1.9292,1.9292,1.9292,1.9292,1.9292,1.9292,1.9292,1.9292,1.9292,1.9292,1.9292,1.9292,1.9292,1.9292,1.9292,1.9292,1.9292,1.9292,1.9292,1.9292,1.9292,1.9292,1.9283,1.921,1.9045,1.8797,1.8513,1.81,1.7706,1.7477,1.7284,1.7092,1.7016,1.7007,1.6998,1.7005,1.6978,1.6943,1.6908,1.6908,1.6908,1.6908,1.6908,1.6908,1.6908,1.6908,1.6908,1.6908,1.6908,1.6908,1.6908,1.6908,1.6908,1.6908,1.6908,1.6908,1.6908,1.6908,1.6908,1.6908,1.6908,1.6908,1.6908,1.6908,1.6768,1.6584,1.633,1.6017,1.5368,1.4512,1.3785,1.3316,1.2893,1.2789,1.2654,1.259,1.259,1.259,1.259,1.259,1.259,1.259,1.259,1.259,1.259,1.259,1.259,1.259,1.259,1.259,1.259,1.2574,1.2574,1.2359,1.2027,1.1765,1.1567,1.1519,1.1535,1.1539,1.1535,1.1563,1.1643,1.186,1.2065,1.2164,2.1161,2.1031,2.092,2.0644,2.0263,1.9974,1.9743,1.9448,1.9341,1.9292,1.9292,1.9292,1.9292,1.9292,1.9292,1.9292,1.9292,1.9292,1.9292,1.9292,1.9292,1.9292,1.9292,1.9292,1.9292,1.9292,1.9292,1.9292,1.9292,1.9292,1.9292,1.9292,1.9292,1.9191,1.8999,1.8779,1.8522,1.8109,1.7917,1.7724,1.7504,1.742,1.737,1.7359,1.7262,1.7194,1.7185,1.7072,1.7072,1.7038,1.6978,1.6908,1.6961,1.6996,1.7021,1.6971,1.6917,1.6908,1.6908,1.6908,1.6908,1.6908,1.6908,1.6908,1.6908,1.6908,1.6943,1.6908,1.6908,1.6908,1.6908,1.6908,1.6908,1.6874,1.6716,1.6577,1.6367,1.5887,1.5129,1.4263,1.368,1.3268,1.2893,1.2789,1.2638,1.259,1.259,1.259,1.259,1.259,1.259,1.259,1.259,1.259,1.259,1.259,1.259,1.259,1.259,1.259,1.259,1.2582,1.2543,1.2375,1.2136,1.1921,1.1929,1.1961,1.1935,1.1961,1.2118,1.2268,1.2449,1.2587,1.2643,2.0615,2.0566,2.042,2.0342,2.0225,1.9912,1.9694,1.9557,1.9429,1.9381,1.9341,1.9341,1.9341,1.9341,1.9292,1.9292,1.9292,1.9292,1.9292,1.9292,1.9292,1.9292,1.9292,1.9292,1.9292,1.9292,1.9292,1.9292,1.9292,1.9292,1.9292,1.9292,1.9292,1.9292,1.9201,1.9008,1.8834,1.8623,1.844,1.82,1.8101,1.8008,1.7957,1.7984,1.7842,1.7824,1.7881,1.7767,1.7617,1.7511,1.7343,1.7228,1.72,1.7322,1.7348,1.7224,1.7114,1.6987,1.6978,1.6978,1.6978,1.6908,1.6908,1.6943,1.7012,1.7047,1.7081,1.7012,1.6968,1.6978,1.7012,1.6934,1.6943,1.6978,1.6855,1.6707,1.6577,1.6271,1.5835,1.5027,1.4205,1.3615,1.3196,1.2789,1.2614,1.259,1.259,1.259,1.259,1.259,1.259,1.259,1.259,1.259,1.259,1.259,1.259,1.259,1.259,1.259,1.259,1.259,1.2551,1.2549,1.2503,1.2328,1.2351,1.2358,1.2346,1.2459,1.2698,1.2846,1.2896,1.2956,1.3058,2.0615,2.0615,2.0566,2.0459,2.0313,2.0225,2.0,1.9636,1.9606,1.9557,1.9557,1.9557,1.9557,1.9518,1.939,1.9301,1.9292,1.9292,1.9292,1.9292,1.9292,1.9292,1.9292,1.9292,1.9292,1.9292,1.9292,1.9292,1.9292,1.9292,1.9292,1.9292,1.9292,1.9292,1.9274,1.9191,1.9054,1.8779,1.8669,1.8533,1.8266,1.8323,1.8442,1.8597,1.8684,1.8788,1.8785,1.8658,1.8516,1.8273,1.8201,1.8101,1.8009,1.8156,1.822,1.8052,1.7786,1.7358,1.7257,1.7185,1.7162,1.7077,1.7033,1.7012,1.7232,1.7342,1.7401,1.7401,1.7279,1.7141,1.7107,1.7003,1.7038,1.7107,1.7097,1.6994,1.6899,1.676,1.6323,1.5765,1.4942,1.4057,1.3389,1.2964,1.259,1.259,1.259,1.259,1.259,1.259,1.259,1.259,1.259,1.259,1.259,1.259,1.2621,1.2621,1.2652,1.2652,1.2683,1.2713,1.2652,1.2636,1.2652,1.2652,1.2602,1.2639,1.2726,1.2887,1.307,1.3169,1.323,1.3329,1.3519,2.0615,2.0615,2.0615,2.0566,2.045,2.0342,2.0186,2.0,1.9843,1.9794,1.9794,1.9754,1.9715,1.9606,1.9518,1.9381,1.9292,1.9292,1.9292,1.9292,1.9292,1.9292,1.9292,1.9292,1.9292,1.9292,1.9292,1.9292,1.9292,1.9292,1.9292,1.9292,1.9292,1.9292,1.9292,1.9292,1.9289,1.9256,1.9318,1.9311,1.9172,1.9108,1.9154,1.9369,1.9377,1.9482,1.9499,1.9277,1.9095,1.8848,1.8664,1.8434,1.8434,1.8535,1.8645,1.8874,1.8785,1.8386,1.7839,1.7543,1.7502,1.7598,1.76,1.7715,1.7789,1.7751,1.7661,1.7588,1.7545,1.7461,1.7351,1.721,1.722,1.7254,1.7376,1.7314,1.721,1.7107,1.681,1.6225,1.5653,1.4765,1.3909,1.3348,1.2916,1.259,1.259,1.259,1.259,1.259,1.259,1.259,1.259,1.259,1.259,1.259,1.2683,1.2713,1.2744,1.2775,1.2836,1.2836,1.2836,1.2805,1.2828,1.2867,1.2836,1.2858,1.2903,1.3155,1.3428,1.358,1.3752,1.3962,1.4061,2.0615,2.0615,2.0615,2.0615,2.0566,2.045,2.0342,2.0264,2.0098,1.9981,1.999,1.9981,1.9863,1.9676,1.9636,1.9469,1.9292,1.9292,1.9292,1.9292,1.9292,1.9292,1.9292,1.9292,1.9292,1.9292,1.9292,1.9292,1.9292,1.9292,1.9292,1.9292,1.9292,1.9292,1.9301,1.9381,1.9481,1.9756,1.9894,1.9963,2.0013,1.9947,2.0031,2.0141,2.0205,2.0189,2.0226,2.0156,1.9982,1.9556,1.9324,1.9165,1.9071,1.9165,1.9353,1.9576,1.9612,1.9423,1.8877,1.8492,1.8187,1.8256,1.8416,1.8442,1.8547,1.8317,1.8276,1.8418,1.8234,1.8031,1.778,1.777,1.7644,1.7631,1.7615,1.7611,1.7608,1.7495,1.7279,1.6782,1.6188,1.5479,1.4656,1.3917,1.33,1.2757,1.259,1.259,1.2621,1.2621,1.2621,1.2621,1.2621,1.2621,1.2683,1.2683,1.2736,1.2858,1.2928,1.3011,1.3133,1.3133,1.3125,1.3094,1.3103,1.3103,1.3133,1.3103,1.3103,1.3437,1.3769,1.4121,1.433,1.4538,1.4538,2.0615,2.0615,2.0615,2.0615,2.0615,2.0576,2.0489,2.0342,2.0264,2.0255,2.0264,2.0264,2.0098,1.9872,1.9676,1.9518,1.9292,1.9292,1.9292,1.9292,1.9292,1.9292,1.9292,1.9292,1.9292,1.9292,1.9292,1.9292,1.9292,1.9292,1.9292,1.9292,1.9292,1.9292,1.9381,1.9548,1.9863,2.0147,2.0342,2.0459,2.0605,2.072,2.0903,2.1104,2.14,2.1552,2.139,2.1363,2.1123,2.0542,2.0293,2.0101,1.9899,1.9947,2.0139,2.0358,2.0387,2.0292,2.0112,1.9489,1.9127,1.9064,1.9119,1.9275,1.9364,1.9597,1.969,1.958,1.9257,1.9085,1.8847,1.8591,1.8289,1.8123,1.8029,1.7978,1.7998,1.794,1.7691,1.7304,1.6734,1.6045,1.5367,1.4631,1.3648,1.3058,1.2637,1.259,1.2621,1.2652,1.2652,1.2652,1.2621,1.2683,1.2767,1.2858,1.2981,1.3164,1.3285,1.3398,1.3511,1.348,1.3489,1.3428,1.3428,1.3428,1.3489,1.358,1.37,1.386,1.416,1.4567,1.4813,1.4961,1.4922,2.0615,2.0615,2.0615,2.0615,2.0615,2.0615,2.0566,2.0489,2.0489,2.0489,2.0459,2.045,2.0255,1.9942,1.9824,1.9587,1.9341,1.9292,1.9292,1.9292,1.9292,1.9292,1.9292,1.9292,1.9292,1.9301,1.9292,1.9292,1.9292,1.9301,1.9292,1.9292,1.9292,1.9292,1.942,1.9784,2.0255,2.0644,2.0925,2.1118,2.13,2.1415,2.1568,2.1769,2.1845,2.2025,2.2014,2.1987,2.1721,2.1387,2.1118,2.0886,2.0693,2.0683,2.0838,2.1118,2.1078,2.1226,2.1196,2.0451,1.977,2.0001,2.0068,2.0169,2.0286,2.0385,2.0365,2.0278,2.0252,2.006,1.9601,1.9301,1.8991,1.8721,1.8521,1.8409,1.834,1.8291,1.8144,1.7784,1.7263,1.6695,1.6018,1.5316,1.432,1.3371,1.2938,1.2637,1.2723,1.2744,1.2797,1.2828,1.2828,1.2889,1.2981,1.3094,1.3216,1.3459,1.37,1.3851,1.3992,1.3932,1.3941,1.3851,1.3821,1.3881,1.3971,1.4142,1.4231,1.433,1.4647,1.5059,1.5274,1.541,1.5254,2.0615,2.0615,2.0615,2.0615,2.0615,2.0615,2.0615,2.0615,2.0605,2.0615,2.0615,2.0566,2.0411,2.0098,1.9902,1.9745,1.9429,1.9341,1.9341,1.9381,1.9381,1.942,1.9469,1.9499,1.9539,1.9499,1.946,1.9499,1.939,1.939,1.935,1.9341,1.9292,1.9341,1.9578,2.0098,2.0683,2.1146,2.1568,2.1911,2.2101,2.2176,2.2214,2.2365,2.2467,2.244,2.2478,2.2402,2.2214,2.1921,2.1617,2.1464,2.131,2.1272,2.1339,2.1568,2.1759,2.1921,2.1799,2.1389,2.0696,2.0917,2.1005,2.1182,2.1265,2.1167,2.1256,2.1266,2.1125,2.0824,2.0419,2.0122,1.9736,1.94,1.8993,1.8829,1.8684,1.8618,1.8474,1.8259,1.7707,1.7182,1.6692,1.5974,1.4948,1.3988,1.3394,1.3135,1.3117,1.3098,1.3003,1.3064,1.3125,1.3155,1.3224,1.3428,1.367,1.3971,1.421,1.4428,1.4517,1.4488,1.4458,1.4398,1.4398,1.4398,1.4478,1.4617,1.4677,1.4706,1.5118,1.5555,1.5749,1.5846,1.5633,2.0615,2.0615,2.0615,2.0615,2.0615,2.0615,2.0615,2.0615,2.0615,2.0615,2.0615,2.0615,2.0498,2.0264,2.002,1.9794,1.9587,1.942,1.942,1.9508,1.9587,1.9715,1.9794,1.9824,1.9863,1.9893,1.9902,1.9824,1.9645,1.9676,1.9557,1.939,1.9381,1.9469,1.9676,2.045,2.1185,2.1721,2.2138,2.2553,2.2852,2.2927,2.2964,2.3001,2.3075,2.3001,2.2889,2.2879,2.2665,2.2252,2.2149,2.1997,2.1807,2.1617,2.1731,2.2035,2.1921,2.2063,2.2295,2.2113,2.192,2.1711,2.1707,2.1889,2.2065,2.2136,2.219,2.2067,2.2035,2.1885,2.1511,2.1026,2.0521,2.0079,1.9666,1.9264,1.9127,1.9087,1.8951,1.8681,1.8158,1.7609,1.7213,1.6619,1.5567,1.4661,1.3971,1.3675,1.3663,1.3582,1.3537,1.3613,1.3705,1.3631,1.3761,1.389,1.41,1.4419,1.4686,1.4902,1.5059,1.5059,1.5029,1.497,1.4941,1.4911,1.499,1.5089,1.5177,1.5294,1.5613,1.5999,1.6192,1.6202,1.5894,2.0615,2.0615,2.0615,2.0615,2.0615,2.0615,2.0615,2.0615,2.0615,2.0615,2.0615,2.0615,2.0498,2.0303,2.0186,1.9951,1.9636,1.9745,1.9745,1.9597,1.9724,1.9784,1.9942,2.0108,2.0186,2.0216,2.0255,2.0303,2.0069,2.0069,1.9833,1.9587,1.9627,1.9696,2.002,2.0644,2.1387,2.1987,2.2617,2.3187,2.3567,2.3604,2.3604,2.3604,2.3556,2.3446,2.3298,2.3372,2.315,2.274,2.2665,2.2515,2.23,2.2111,2.2176,2.2327,2.2289,2.2515,2.2703,2.2681,2.2542,2.2365,2.2252,2.2375,2.2478,2.2553,2.2665,2.2703,2.259,2.244,2.2269,2.1738,2.1268,2.0876,2.0452,1.991,1.9681,1.9668,1.953,1.9085,1.8596,1.808,1.7663,1.7436,1.6526,1.5889,1.525,1.4783,1.4661,1.4446,1.432,1.4412,1.4453,1.4291,1.4279,1.448,1.4623,1.4863,1.5128,1.5342,1.5469,1.5527,1.5498,1.541,1.541,1.541,1.5459,1.5536,1.5729,1.5941,1.6085,1.6181,1.6288,1.623,1.6048,2.0615,2.0615,2.0615,2.0615,2.0615,2.0615,2.0615,2.0615,2.0615,2.0615,2.0615,2.0615,2.0527,2.042,2.0303,2.0186,1.9833,1.9833,1.9981,1.9833,1.996,2.0147,2.0303,2.0469,2.0702,2.0731,2.0876,2.0915,2.0731,2.0654,2.0342,2.0029,1.999,2.0059,2.0372,2.0992,2.1731,2.2365,2.3027,2.3666,2.4007,2.4164,2.4236,2.4189,2.4116,2.397,2.3861,2.3751,2.3641,2.3335,2.315,2.3049,2.2815,2.2665,2.2628,2.2665,2.2703,2.2889,2.2927,2.2964,2.2767,2.2617,2.259,2.2665,2.2777,2.2815,2.2852,2.2889,2.2852,2.2777,2.2628,2.2176,2.1862,2.1443,2.1036,2.0514,2.0242,2.0197,1.9912,1.9453,1.9096,1.8607,1.8182,1.8003,1.7581,1.7081,1.6609,1.6123,1.5635,1.5382,1.52,1.5256,1.529,1.517,1.513,1.5175,1.5269,1.5362,1.5537,1.5751,1.5778,1.5836,1.5836,1.5817,1.573,1.5701,1.5836,1.598,1.6117,1.6165,1.622,1.6316,1.6384,1.637,1.6287,2.0615,2.0615,2.0615,2.0615,2.0615,2.0615,2.0615,2.0615,2.0615,2.0615,2.0615,2.0615,2.0576,2.0527,2.0381,2.0264,2.0225,2.0069,2.0098,2.0225,2.0303,2.0547,2.0819,2.1089,2.131,2.154,2.1693,2.1721,2.154,2.1262,2.0886,2.0469,2.042,2.0489,2.0876,2.1415,2.2063,2.2665,2.3409,2.4007,2.4393,2.4646,2.467,2.467,2.461,2.4454,2.4309,2.42,2.397,2.3751,2.3604,2.3494,2.3298,2.3113,2.3038,2.2964,2.2964,2.3001,2.3001,2.3001,2.3001,2.2879,2.2927,2.3001,2.2964,2.2964,2.2964,2.3001,2.2964,2.2852,2.2703,2.2478,2.2231,2.1859,2.1484,2.1114,2.0824,2.0549,2.0229,1.9865,1.9552,1.916,1.8841,1.8596,1.8317,1.8079,1.762,1.7245,1.6765,1.6318,1.6166,1.6205,1.6176,1.6083,1.6063,1.6012,1.5909,1.5999,1.6016,1.6152,1.6158,1.6105,1.6095,1.6048,1.5972,1.6031,1.6239,1.6376,1.6442,1.651,1.6667,1.6554,1.6694,1.6769,1.6743,2.0615,2.0615,2.0615,2.0615,2.0615,2.0615,2.0615,2.0615,2.0615,2.0615,2.0615,2.0615,2.0615,2.0566,2.0527,2.042,2.0381,2.0342,2.0333,2.0411,2.0586,2.0858,2.1195,2.1578,2.1883,2.2176,2.2402,2.2553,2.2279,2.1939,2.1454,2.1002,2.0964,2.1079,2.1377,2.1883,2.2327,2.2889,2.3666,2.4236,2.467,2.4921,2.4992,2.4992,2.4897,2.4742,2.4646,2.461,2.4381,2.4116,2.4043,2.3897,2.3519,2.3335,2.3187,2.3038,2.3001,2.3001,2.3001,2.3001,2.3038,2.3038,2.3001,2.3001,2.3001,2.3001,2.3001,2.3001,2.3001,2.2927,2.2852,2.2703,2.2515,2.2259,2.195,2.176,2.1434,2.1134,2.0761,2.0277,1.9969,1.9614,1.9308,1.9065,1.8798,1.8764,1.8566,1.8184,1.7811,1.7307,1.71,1.7116,1.7044,1.6919,1.691,1.6897,1.6718,1.6607,1.6625,1.657,1.6456,1.6403,1.6358,1.628,1.6255,1.6458,1.6722,1.682,1.6891,1.7182,1.7327,1.713,1.6996,1.7151,1.7255,2.0615,2.0615,2.0615,2.0615,2.0615,2.0615,2.0615,2.0615,2.0615,2.0615,2.0615,2.0615,2.0615,2.0615,2.0576,2.0537,2.0459,2.0498,2.0527,2.0654,2.0858,2.1233,2.1617,2.2101,2.2515,2.2852,2.315,2.3335,2.3102,2.2681,2.2166,2.1731,2.1617,2.1683,2.1911,2.2289,2.274,2.3298,2.3897,2.449,2.4838,2.5076,2.5147,2.5147,2.5028,2.4992,2.4921,2.4921,2.4742,2.4454,2.4381,2.4152,2.3813,2.3593,2.3409,2.3298,2.3261,2.3261,2.3261,2.315,2.315,2.3075,2.3038,2.3001,2.3001,2.3001,2.3001,2.3001,2.3001,2.3001,2.2964,2.2889,2.2777,2.2654,2.2515,2.235,2.2045,2.1743,2.1245,2.0767,2.0344,1.9986,1.9671,1.944,1.9241,1.9075,1.8975,1.8744,1.8449,1.8122,1.7936,1.7906,1.7835,1.773,1.772,1.7601,1.742,1.7236,1.7205,1.7091,1.6872,1.6696,1.6645,1.6583,1.6541,1.6779,1.7068,1.7244,1.7358,1.7668,1.7854,1.7668,1.7575,1.775,1.7812,2.0615,2.0615,2.0615,2.0615,2.0615,2.0615,2.0615,2.0615,2.0615,2.0615,2.0615,2.0615,2.0615,2.0654,2.0644,2.0693,2.0693,2.0722,2.0848,2.0935,2.1167,2.154,2.2101,2.259,2.3075,2.3519,2.3824,2.397,2.397,2.3593,2.3038,2.2515,2.2365,2.2402,2.258,2.2777,2.3261,2.3897,2.4334,2.4778,2.5004,2.5206,2.5312,2.5276,2.5241,2.5218,2.5147,2.5076,2.5028,2.4825,2.4646,2.4442,2.4116,2.3824,2.3666,2.3556,2.3482,2.3482,2.3482,2.3372,2.3298,2.3224,2.3139,2.3075,2.3038,2.3001,2.3001,2.3001,2.3001,2.3001,2.2964,2.2964,2.2889,2.2815,2.2745,2.2638,2.2487,2.197,2.129,2.08,2.0301,1.9976,1.9911,1.9638,1.9473,1.9351,1.9218,1.9085,1.8921,1.868,1.8593,1.8516,1.8474,1.8347,1.8298,1.8189,1.8026,1.7904,1.7781,1.7575,1.7337,1.712,1.6924,1.6944,1.7026,1.7129,1.7316,1.7554,1.7812,1.8019,1.8143,1.8154,1.8185,1.8288,1.8371,2.0615,2.0615,2.0615,2.0615,2.0615,2.0615,2.0615,2.0615,2.0615,2.0605,2.0605,2.0605,2.0693,2.078,2.0858,2.0896,2.1002,2.1041,2.1156,2.1387,2.1589,2.2073,2.259,2.3113,2.3604,2.4007,2.4345,2.449,2.4406,2.42,2.3897,2.3372,2.3224,2.3224,2.3298,2.3482,2.3897,2.449,2.4742,2.4945,2.5111,2.5206,2.5312,2.5312,2.5276,2.5276,2.5241,2.5241,2.5147,2.5052,2.4981,2.4694,2.4236,2.397,2.3787,2.3629,2.3666,2.3703,2.3666,2.3629,2.3519,2.3372,2.3261,2.3113,2.3038,2.3038,2.3001,2.3001,2.3001,2.3001,2.3001,2.3001,2.2964,2.2964,2.2927,2.2889,2.2841,2.2111,2.1315,2.082,2.0312,2.0085,2.0009,1.9911,1.9747,1.955,1.9341,1.9208,1.9108,1.8944,1.89,1.8867,1.8911,1.8854,1.8792,1.8666,1.8493,1.8348,1.8236,1.8019,1.7792,1.7606,1.744,1.7471,1.7533,1.7636,1.7792,1.8081,1.8309,1.8454,1.8547,1.8557,1.864,1.8776,1.887,2.0615,2.0615,2.0615,2.0615,2.0615,2.0615,2.0615,2.0605,2.0693,2.0731,2.0731,2.0731,2.0819,2.0984,2.1061,2.1205,2.1349,2.1436,2.1655,2.1883,2.2176,2.2665,2.315,2.3677,2.4141,2.455,2.4802,2.4909,2.4766,2.4694,2.4478,2.408,2.4018,2.403,2.403,2.4164,2.4452,2.4885,2.5099,2.5147,2.5218,2.5253,2.5312,2.5312,2.5312,2.5312,2.5312,2.5312,2.5241,2.5182,2.5111,2.4921,2.4562,2.4381,2.4273,2.4189,2.4152,2.4068,2.4007,2.3897,2.3751,2.3604,2.3335,2.3224,2.315,2.3113,2.3001,2.3001,2.3001,2.3001,2.3001,2.3001,2.3001,2.3001,2.2964,2.2964,2.2665,2.2143,2.1618,2.1259,2.0706,2.0096,2.0009,1.9933,1.9769,1.9605,1.9407,1.9252,1.9185,1.9098,1.9098,1.9098,1.9098,1.9098,1.8992,1.8951,1.8899,1.8775,1.863,1.8444,1.8216,1.8102,1.8009,1.7936,1.7947,1.8081,1.83,1.8517,1.8714,1.8849,1.8953,1.9025,1.9098,1.9131,1.9144,2.0683,2.0683,2.0693,2.0693,2.0683,2.0693,2.0683,2.0722,2.0858,2.0984,2.1022,2.1061,2.1061,2.1205,2.1436,2.1578,2.1769,2.1997,2.2252,2.2515,2.2729,2.3224,2.3714,2.42,2.4586,2.4897,2.5182,2.5182,2.5076,2.504,2.4909,2.4646,2.4632,2.4667,2.4679,2.4808,2.513,2.5384,2.5529,2.5385,2.5349,2.5336,2.5324,2.5312,2.5312,2.5312,2.5312,2.5312,2.5312,2.5241,2.5182,2.5016,2.4861,2.4718,2.4682,2.4646,2.461,2.4574,2.4502,2.4309,2.4127,2.3909,2.3567,2.3372,2.3298,2.3187,2.3075,2.3001,2.3001,2.3001,2.3001,2.3001,2.3001,2.3001,2.3001,2.2964,2.2571,2.219,2.1884,2.159,2.1032,2.0346,2.0248,2.0161,1.9975,1.9755,1.9536,1.9306,1.9162,1.9142,1.9098,1.9098,1.9098,1.9098,1.9098,1.9088,1.9056,1.9025,1.888,1.8766,1.8662,1.8526,1.8392,1.8206,1.8257,1.8476,1.8621,1.8808,1.8994,1.9098,1.9098,1.9098,1.9142,1.9142,1.9241,2.1089,2.1089,2.1089,2.1089,2.1089,2.1089,2.1089,2.1089,2.1128,2.1244,2.1474,2.1731,2.1873,2.1873,2.2111,2.2327,2.259,2.274,2.3001,2.3335,2.3409,2.3861,2.4261,2.4598,2.4909,2.5147,2.5276,2.5276,2.5206,2.5253,2.5182,2.4981,2.5406,2.5524,2.5595,2.5786,2.6109,2.6199,2.6032,2.5901,2.5721,2.5612,2.5348,2.5312,2.5312,2.5312,2.5312,2.5312,2.5312,2.5241,2.517,2.5123,2.5028,2.4933,2.4897,2.4897,2.4897,2.4825,2.4718,2.4598,2.4418,2.4164,2.3861,2.3593,2.3482,2.3298,2.3187,2.3038,2.3038,2.3001,2.3001,2.3001,2.3001,2.3001,2.3001,2.2927,2.2668,2.232,2.1995,2.1767,2.1428,2.1161,2.1121,2.0966,2.0712,2.0456,2.0073,1.9796,1.9206,1.9142,1.9098,1.9098,1.9098,1.9098,1.9098,1.9098,1.9088,1.9098,1.9088,1.8953,1.8911,1.8994,1.8859,1.8621,1.8694,1.8891,1.9025,1.8994,1.9036,1.9098,1.9098,1.9098,1.9142,1.9208,1.9308]}]]